| time (UTC) | temp C | wind direction | speed KPH | gust KPH | rain 1hr cm | rain 24hr cm | rain mn cm | humidity % | barometer mb |
| 20260906175110 | 37 | 68 | 0.0 | 6.4 | 0.00 | 0.20 | 0.00 | 44 | 1015.3 |
| 20260906175008 | 36 | 68 | 0.0 | 8.0 | 0.00 | 0.20 | 0.00 | 44 | 1015.2 |
| 20260906174903 | 36 | 69 | 3.2 | 8.0 | 0.00 | 0.20 | 0.00 | 44 | 1015.3 |
| 20260906174807 | 36 | 141 | 3.2 | 8.0 | 0.00 | 0.20 | 0.00 | 44 | 1015.4 |
| 20260906174702 | 36 | 120 | 3.2 | 8.0 | 0.00 | 0.20 | 0.00 | 44 | 1015.4 |
| 20260906174557 | 36 | 80 | 3.2 | 8.0 | 0.00 | 0.20 | 0.00 | 44 | 1015.3 |
| 20260906174503 | 36 | 126 | 3.2 | 8.0 | 0.00 | 0.20 | 0.00 | 45 | 1015.4 |
| 20260906174452 | 36 | 148 | 3.2 | 8.0 | 0.00 | 0.20 | 0.00 | 45 | 1015.4 |
| 20260906174356 | 36 | 142 | 1.6 | 8.0 | 0.00 | 0.20 | 0.00 | 44 | 1015.4 |
| 20260906174255 | 36 | 88 | 3.2 | 8.0 | 0.00 | 0.20 | 0.00 | 46 | 1015.4 |
| 20260906174200 | 36 | 113 | 4.8 | 8.0 | 0.00 | 0.20 | 0.00 | 45 | 1015.4 |
| 20260906174054 | 37 | 64 | 3.2 | 8.0 | 0.00 | 0.20 | 0.00 | 45 | 1015.4 |
| 20260906174008 | 36 | 82 | 1.6 | 6.4 | 0.00 | 0.20 | 0.00 | 45 | 1015.5 |
| 20260906173912 | 36 | 97 | 0.0 | 4.8 | 0.00 | 0.20 | 0.00 | 45 | 1015.5 |
| 20260906173806 | 36 | 110 | 1.6 | 4.8 | 0.00 | 0.20 | 0.00 | 46 | 1015.5 |
| 20260906173710 | 36 | 55 | 1.6 | 4.8 | 0.00 | 0.20 | 0.00 | 46 | 1015.5 |
| 20260906173608 | 36 | 46 | 0.0 | 4.8 | 0.00 | 0.20 | 0.00 | 46 | 1015.6 |
| 20260906173503 | 36 | 49 | 1.6 | 4.8 | 0.00 | 0.20 | 0.00 | 46 | 1015.5 |
| 20260906173407 | 36 | 58 | 3.2 | 4.8 | 0.00 | 0.20 | 0.00 | 46 | 1015.6 |
| 20260906173322 | 36 | 113 | 1.6 | 4.8 | 0.00 | 0.20 | 0.00 | 46 | 1015.6 |
| 20260906173225 | 36 | 94 | 1.6 | 6.4 | 0.00 | 0.20 | 0.00 | 47 | 1015.6 |
| 20260906173112 | 36 | 140 | 1.6 | 6.4 | 0.00 | 0.20 | 0.00 | 45 | 1015.6 |
| 20260906173059 | 36 | 128 | 1.6 | 6.4 | 0.00 | 0.20 | 0.00 | 45 | 1015.6 |
| 20260906173004 | 36 | 120 | 1.6 | 6.4 | 0.00 | 0.20 | 0.00 | 45 | 1015.6 |
| 20260906172918 | 36 | 67 | 1.6 | 9.7 | 0.00 | 0.20 | 0.00 | 46 | 1015.6 |
| 20260906172805 | 36 | 70 | 1.6 | 9.7 | 0.00 | 0.20 | 0.00 | 46 | 1015.6 |
| 20260906172700 | 36 | 94 | 0.0 | 9.7 | 0.00 | 0.20 | 0.00 | 46 | 1015.6 |
| 20260906172555 | 36 | 70 | 0.0 | 9.7 | 0.00 | 0.20 | 0.00 | 47 | 1015.6 |
| 20260906172458 | 36 | 70 | 1.6 | 9.7 | 0.00 | 0.20 | 0.00 | 46 | 1015.7 |
| 20260906172354 | 36 | 70 | 3.2 | 9.7 | 0.00 | 0.20 | 0.00 | 46 | 1015.6 |
| 20260906172249 | 36 | 98 | 3.2 | 9.7 | 0.00 | 0.20 | 0.00 | 47 | 1015.7 |
| 20260906172152 | 36 | 116 | 4.8 | 9.7 | 0.00 | 0.20 | 0.00 | 48 | 1015.8 |
| 20260906172051 | 36 | 67 | 3.2 | 9.7 | 0.00 | 0.20 | 0.00 | 48 | 1015.8 |
| 20260906172015 | 36 | 43 | 1.6 | 9.7 | 0.00 | 0.20 | 0.00 | 48 | 1015.8 |
| 20260906171908 | 36 | 30 | 1.6 | 9.7 | 0.00 | 0.20 | 0.00 | 47 | 1015.8 |
| 20260906171811 | 36 | 48 | 3.2 | 9.7 | 0.00 | 0.20 | 0.00 | 47 | 1015.8 |
| 20260906171707 | 36 | 24 | 4.8 | 9.7 | 0.00 | 0.20 | 0.00 | 47 | 1015.8 |
| 20260906171621 | 36 | 136 | 4.8 | 9.7 | 0.00 | 0.20 | 0.00 | 47 | 1015.8 |
| 20260906171600 | 36 | 70 | 6.4 | 9.7 | 0.00 | 0.20 | 0.00 | 47 | 1015.8 |
| 20260906171504 | 36 | 96 | 4.8 | 8.0 | 0.00 | 0.20 | 0.00 | 49 | 1015.9 |
| 20260906171404 | 36 | 70 | 1.6 | 8.0 | 0.00 | 0.20 | 0.00 | 49 | 1015.9 |
| 20260906171259 | 36 | 143 | 0.0 | 8.0 | 0.00 | 0.20 | 0.00 | 49 | 1015.9 |
| 20260906171202 | 36 | 113 | 0.0 | 8.0 | 0.00 | 0.20 | 0.00 | 48 | 1015.9 |
| 20260906171057 | 36 | 89 | 1.6 | 8.0 | 0.00 | 0.20 | 0.00 | 49 | 1016.0 |
| 20260906171022 | 36 | 86 | 3.2 | 8.0 | 0.00 | 0.20 | 0.00 | 48 | 1016.0 |
| 20260906170855 | 36 | 76 | 4.8 | 8.0 | 0.00 | 0.20 | 0.00 | 49 | 1016.0 |
| 20260906170819 | 36 | 83 | 4.8 | 8.0 | 0.00 | 0.20 | 0.00 | 49 | 1016.0 |
| 20260906170653 | 36 | 76 | 3.2 | 9.7 | 0.00 | 0.20 | 0.00 | 49 | 1016.0 |
| 20260906170552 | 36 | 67 | 3.2 | 9.7 | 0.00 | 0.20 | 0.00 | 49 | 1016.0 |
| 20260906170455 | 36 | 158 | 1.6 | 9.7 | 0.00 | 0.20 | 0.00 | 49 | 1016.0 |
| 20260906170350 | 36 | 124 | 0.0 | 9.7 | 0.00 | 0.20 | 0.00 | 49 | 1016.0 |
| 20260906170314 | 36 | 110 | 0.0 | 9.7 | 0.00 | 0.20 | 0.00 | 49 | 1016.0 |
| 20260906170149 | 36 | 72 | 3.2 | 9.7 | 0.00 | 0.20 | 0.00 | 50 | 1016.0 |
| 20260906170130 | 35 | 72 | 3.2 | 9.7 | 0.00 | 0.20 | 0.00 | 50 | 1016.0 |
| 20260906170117 | 36 | 100 | 4.8 | 9.7 | 0.00 | 0.20 | 0.00 | 50 | 1016.0 |
| 20260906170004 | 36 | 79 | 6.4 | 9.7 | 0.00 | 0.20 | 0.00 | 50 | 1016.0 |
| 20260906165910 | 36 | 93 | 6.4 | 9.7 | 0.00 | 0.20 | 0.00 | 49 | 1016.0 |
| 20260906165805 | 36 | 58 | 3.2 | 9.7 | 0.00 | 0.20 | 0.00 | 49 | 1016.0 |
| 20260906165700 | 36 | 69 | 1.6 | 6.4 | 0.00 | 0.20 | 0.00 | 49 | 1016.1 |
| 20260906165605 | 36 | 128 | 1.6 | 6.4 | 0.00 | 0.20 | 0.00 | 49 | 1016.1 |
| 20260906165519 | 36 | 57 | 0.0 | 6.4 | 0.00 | 0.20 | 0.00 | 49 | 1016.1 |
| 20260906165353 | 36 | 36 | 0.0 | 6.4 | 0.00 | 0.20 | 0.00 | 49 | 1016.1 |
| 20260906165257 | 36 | 35 | 0.0 | 6.4 | 0.00 | 0.20 | 0.00 | 50 | 1016.1 |
| 20260906165156 | 36 | 75 | 1.6 | 6.4 | 0.00 | 0.20 | 0.00 | 50 | 1016.2 |
| 20260906165051 | 36 | 98 | 3.2 | 6.4 | 0.00 | 0.20 | 0.00 | 49 | 1016.2 |
| 20260906164955 | 36 | 63 | 3.2 | 8.0 | 0.00 | 0.20 | 0.00 | 50 | 1016.2 |
| 20260906164921 | 36 | 126 | 3.2 | 8.0 | 0.00 | 0.20 | 0.00 | 49 | 1016.2 |
| 20260906164753 | 36 | 73 | 1.6 | 8.0 | 0.00 | 0.20 | 0.00 | 49 | 1016.3 |
| 20260906164648 | 36 | 55 | 1.6 | 8.0 | 0.00 | 0.20 | 0.00 | 50 | 1016.2 |
| 20260906164612 | 36 | 98 | 1.6 | 8.0 | 0.00 | 0.20 | 0.00 | 49 | 1016.3 |
| 20260906164539 | 35 | 86 | 0.0 | 8.0 | 0.00 | 0.20 | 0.00 | 49 | 1016.3 |
| 20260906164451 | 35 | 62 | 0.0 | 8.0 | 0.00 | 0.20 | 0.00 | 49 | 1016.3 |
| 20260906164405 | 35 | 95 | 1.6 | 8.0 | 0.00 | 0.20 | 0.00 | 50 | 1016.3 |
| 20260906164329 | 35 | 96 | 3.2 | 8.0 | 0.00 | 0.20 | 0.00 | 49 | 1016.3 |
| 20260906164231 | 36 | 94 | 4.8 | 8.0 | 0.00 | 0.20 | 0.00 | 49 | 1016.3 |
| 20260906164135 | 36 | 51 | 3.2 | 8.0 | 0.00 | 0.20 | 0.00 | 49 | 1016.3 |
| 20260906163950 | 36 | 98 | 1.6 | 8.0 | 0.00 | 0.20 | 0.00 | 49 | 1016.3 |
| 20260906163903 | 36 | 53 | 1.6 | 8.0 | 0.00 | 0.20 | 0.00 | 50 | 1016.3 |
| 20260906163808 | 35 | 98 | 1.6 | 8.0 | 0.00 | 0.20 | 0.00 | 50 | 1016.3 |
| 20260906163702 | 35 | 243 | 1.6 | 8.0 | 0.00 | 0.20 | 0.00 | 50 | 1016.3 |
| 20260906163601 | 35 | 101 | 3.2 | 8.0 | 0.00 | 0.20 | 0.00 | 50 | 1016.3 |
| 20260906163505 | 35 | 65 | 3.2 | 9.7 | 0.00 | 0.20 | 0.00 | 50 | 1016.3 |
| 20260906163400 | 35 | 112 | 3.2 | 9.7 | 0.00 | 0.20 | 0.00 | 50 | 1016.3 |
| 20260906163324 | 35 | 127 | 1.6 | 9.7 | 0.00 | 0.20 | 0.00 | 50 | 1016.3 |
| 20260906163158 | 35 | 152 | 1.6 | 9.7 | 0.00 | 0.20 | 0.00 | 50 | 1016.3 |
| 20260906163053 | 35 | 56 | 3.2 | 9.7 | 0.00 | 0.20 | 0.00 | 51 | 1016.3 |
| 20260906163001 | 35 | 110 | 3.2 | 9.7 | 0.00 | 0.20 | 0.00 | 50 | 1016.3 |
| 20260906162950 | 35 | 110 | 3.2 | 9.7 | 0.00 | 0.20 | 0.00 | 50 | 1016.3 |
| 20260906162856 | 35 | 107 | 4.8 | 9.7 | 0.00 | 0.20 | 0.00 | 50 | 1016.3 |
| 20260906162751 | 35 | 152 | 4.8 | 9.7 | 0.00 | 0.20 | 0.00 | 50 | 1016.3 |
| 20260906162715 | 35 | 201 | 4.8 | 9.7 | 0.00 | 0.20 | 0.00 | 50 | 1016.3 |
| 20260906162549 | 35 | 139 | 1.6 | 8.0 | 0.00 | 0.20 | 0.00 | 51 | 1016.3 |
| 20260906162513 | 35 | 99 | 1.6 | 8.0 | 0.00 | 0.20 | 0.00 | 51 | 1016.3 |
| 20260906162407 | 35 | 72 | 1.6 | 8.0 | 0.00 | 0.20 | 0.00 | 50 | 1016.3 |
| 20260906162305 | 35 | 135 | 1.6 | 8.0 | 0.00 | 0.20 | 0.00 | 51 | 1016.3 |
| 20260906162210 | 35 | 79 | 1.6 | 8.0 | 0.00 | 0.20 | 0.00 | 50 | 1016.3 |
| 20260906162105 | 35 | 113 | 1.6 | 8.0 | 0.00 | 0.20 | 0.00 | 52 | 1016.3 |
| 20260906162000 | 35 | 113 | 3.2 | 8.0 | 0.00 | 0.20 | 0.00 | 52 | 1016.3 |
| 20260906161904 | 35 | 68 | 3.2 | 8.0 | 0.00 | 0.20 | 0.00 | 51 | 1016.3 |
| 20260906161819 | 35 | 58 | 1.6 | 8.0 | 0.00 | 0.20 | 0.00 | 53 | 1016.3 |
| 20260906161722 | 35 | 104 | 3.2 | 8.0 | 0.00 | 0.20 | 0.00 | 53 | 1016.3 |
| 20260906161611 | 35 | 114 | 3.2 | 8.0 | 0.00 | 0.20 | 0.00 | 53 | 1016.3 |
| 20260906161556 | 35 | 66 | 3.2 | 8.0 | 0.00 | 0.20 | 0.00 | 53 | 1016.3 |
| 20260906161500 | 35 | 64 | 3.2 | 8.0 | 0.00 | 0.20 | 0.00 | 53 | 1016.3 |
| 20260906161359 | 35 | 77 | 4.8 | 8.0 | 0.00 | 0.20 | 0.00 | 53 | 1016.3 |
| 20260906161254 | 35 | 58 | 3.2 | 8.0 | 0.00 | 0.20 | 0.00 | 53 | 1016.3 |
| 20260906161158 | 35 | 80 | 1.6 | 6.4 | 0.00 | 0.20 | 0.00 | 53 | 1016.2 |
| 20260906161053 | 35 | 137 | 0.0 | 4.8 | 0.00 | 0.20 | 0.00 | 54 | 1016.2 |
| 20260906160956 | 35 | 162 | 0.0 | 6.4 | 0.00 | 0.20 | 0.00 | 53 | 1016.2 |
| 20260906160911 | 35 | 98 | 0.0 | 6.4 | 0.00 | 0.20 | 0.00 | 54 | 1016.2 |
| 20260906160814 | 35 | 284 | 0.0 | 6.4 | 0.00 | 0.20 | 0.00 | 54 | 1016.2 |
| 20260906160648 | 35 | 168 | 0.0 | 6.4 | 0.00 | 0.20 | 0.00 | 54 | 1016.3 |
| 20260906160556 | 34 | 203 | 0.0 | 6.4 | 0.00 | 0.20 | 0.00 | 55 | 1016.2 |
| 20260906160451 | 34 | 67 | 0.0 | 6.4 | 0.00 | 0.20 | 0.00 | 54 | 1016.2 |
| 20260906160415 | 34 | 72 | 1.6 | 6.4 | 0.00 | 0.20 | 0.00 | 55 | 1016.2 |
| 20260906160250 | 34 | 117 | 3.2 | 6.4 | 0.00 | 0.20 | 0.00 | 56 | 1016.2 |
| 20260906160205 | 34 | 64 | 1.6 | 6.4 | 0.00 | 0.20 | 0.00 | 56 | 1016.2 |
| 20260906160118 | 34 | 39 | 0.0 | 4.8 | 0.00 | 0.20 | 0.00 | 56 | 1016.2 |
| 20260906160026 | 34 | 62 | 1.6 | 4.8 | 0.00 | 0.20 | 0.00 | 56 | 1016.2 |
| 20260906155859 | 34 | 63 | 3.2 | 6.4 | 0.00 | 0.20 | 0.00 | 55 | 1016.1 |
| 20260906155807 | 34 | 58 | 1.6 | 6.4 | 0.00 | 0.20 | 0.00 | 56 | 1016.1 |
| 20260906155702 | 33 | 169 | 0.0 | 6.4 | 0.00 | 0.20 | 0.00 | 56 | 1016.1 |
| 20260906155557 | 33 | 169 | 1.6 | 8.0 | 0.00 | 0.20 | 0.00 | 56 | 1016.1 |
| 20260906155520 | 33 | 101 | 3.2 | 8.0 | 0.00 | 0.20 | 0.00 | 56 | 1016.1 |
| 20260906155354 | 33 | 141 | 1.6 | 8.0 | 0.00 | 0.20 | 0.00 | 57 | 1016.1 |
| 20260906155258 | 33 | 105 | 1.6 | 8.0 | 0.00 | 0.20 | 0.00 | 57 | 1016.1 |
| 20260906155213 | 33 | 124 | 3.2 | 8.0 | 0.00 | 0.20 | 0.00 | 57 | 1016.0 |
| 20260906155100 | 33 | 122 | 3.2 | 8.0 | 0.00 | 0.20 | 0.00 | 56 | 1016.1 |
| 20260906155015 | 33 | 131 | 3.2 | 8.0 | 0.00 | 0.20 | 0.00 | 57 | 1016.0 |
| 20260906154858 | 33 | 36 | 4.8 | 8.0 | 0.00 | 0.20 | 0.00 | 57 | 1016.1 |
| 20260906154753 | 33 | 75 | 4.8 | 8.0 | 0.00 | 0.20 | 0.00 | 56 | 1016.0 |
| 20260906154648 | 33 | 50 | 4.8 | 8.0 | 0.00 | 0.20 | 0.00 | 56 | 1016.0 |
| 20260906154612 | 33 | 146 | 3.2 | 8.0 | 0.00 | 0.20 | 0.00 | 55 | 1016.0 |
| 20260906154536 | 33 | 105 | 3.2 | 8.0 | 0.00 | 0.20 | 0.00 | 56 | 1016.0 |
| 20260906154507 | 33 | 117 | 1.6 | 6.4 | 0.00 | 0.20 | 0.00 | 56 | 1016.0 |
| 20260906154402 | 33 | 46 | 1.6 | 6.4 | 0.00 | 0.20 | 0.00 | 57 | 1016.0 |
| 20260906154310 | 33 | 102 | 1.6 | 6.4 | 0.00 | 0.20 | 0.00 | 56 | 1016.0 |
| 20260906154205 | 33 | 113 | 4.8 | 6.4 | 0.00 | 0.20 | 0.00 | 56 | 1016.1 |
| 20260906154129 | 33 | 65 | 3.2 | 6.4 | 0.00 | 0.20 | 0.00 | 56 | 1016.1 |
| 20260906154003 | 33 | 43 | 1.6 | 4.8 | 0.00 | 0.20 | 0.00 | 58 | 1016.0 |
| 20260906153858 | 33 | 134 | 1.6 | 4.8 | 0.00 | 0.20 | 0.00 | 58 | 1016.1 |
| 20260906153802 | 33 | 102 | 1.6 | 4.8 | 0.00 | 0.20 | 0.00 | 59 | 1016.0 |
| 20260906153657 | 33 | 347 | 0.0 | 4.8 | 0.00 | 0.20 | 0.00 | 58 | 1016.0 |
| 20260906153556 | 33 | 246 | 0.0 | 4.8 | 0.00 | 0.20 | 0.00 | 59 | 1016.0 |
| 20260906153500 | 33 | 79 | 0.0 | 4.8 | 0.00 | 0.20 | 0.00 | 60 | 1016.0 |
| 20260906153355 | 33 | 70 | 1.6 | 6.4 | 0.00 | 0.20 | 0.00 | 59 | 1016.0 |
| 20260906153250 | 33 | 82 | 3.2 | 6.4 | 0.00 | 0.20 | 0.00 | 59 | 1016.0 |
| 20260906153154 | 33 | 81 | 3.2 | 6.4 | 0.00 | 0.20 | 0.00 | 60 | 1016.1 |
| 20260906153049 | 33 | 68 | 1.6 | 6.4 | 0.00 | 0.20 | 0.00 | 60 | 1016.1 |
| 20260906153004 | 32 | 110 | 0.0 | 8.0 | 0.00 | 0.20 | 0.00 | 60 | 1016.1 |
| 20260906152949 | 32 | 69 | 1.6 | 8.0 | 0.00 | 0.20 | 0.00 | 60 | 1016.1 |
| 20260906152911 | 32 | 70 | 1.6 | 8.0 | 0.00 | 0.20 | 0.00 | 60 | 1016.1 |
| 20260906152836 | 32 | 64 | 3.2 | 8.0 | 0.00 | 0.20 | 0.00 | 59 | 1016.1 |
| 20260906152650 | 32 | 71 | 3.2 | 8.0 | 0.00 | 0.20 | 0.00 | 60 | 1016.0 |
| 20260906152605 | 32 | 115 | 3.2 | 8.0 | 0.00 | 0.20 | 0.00 | 59 | 1016.0 |
| 20260906152509 | 32 | 89 | 3.2 | 8.0 | 0.00 | 0.20 | 0.00 | 58 | 1016.1 |
| 20260906152404 | 32 | 100 | 3.2 | 8.0 | 0.00 | 0.20 | 0.00 | 59 | 1016.1 |
| 20260906152259 | 32 | 100 | 3.2 | 8.0 | 0.00 | 0.20 | 0.00 | 59 | 1016.1 |
| 20260906152207 | 32 | 128 | 3.2 | 8.0 | 0.00 | 0.20 | 0.00 | 59 | 1016.1 |
| 20260906152121 | 32 | 130 | 1.6 | 6.4 | 0.00 | 0.20 | 0.00 | 60 | 1016.1 |
| 20260906152025 | 32 | 112 | 3.2 | 6.4 | 0.00 | 0.20 | 0.00 | 59 | 1016.1 |
| 20260906151928 | 32 | 83 | 3.2 | 6.4 | 0.00 | 0.20 | 0.00 | 60 | 1016.1 |
| 20260906151802 | 32 | 129 | 3.2 | 6.4 | 0.00 | 0.20 | 0.00 | 60 | 1016.1 |
| 20260906151656 | 32 | 274 | 3.2 | 6.4 | 0.00 | 0.20 | 0.00 | 60 | 1016.1 |
| 20260906151601 | 32 | 126 | 3.2 | 6.4 | 0.00 | 0.20 | 0.00 | 60 | 1016.1 |
| 20260906151535 | 32 | 152 | 3.2 | 6.4 | 0.00 | 0.20 | 0.00 | 60 | 1016.1 |
| 20260906151516 | 32 | 134 | 3.2 | 6.4 | 0.00 | 0.20 | 0.00 | 62 | 1016.1 |
| 20260906151403 | 32 | 90 | 1.6 | 8.0 | 0.00 | 0.20 | 0.00 | 61 | 1016.1 |
| 20260906151257 | 32 | 124 | 0.0 | 8.0 | 0.00 | 0.20 | 0.00 | 62 | 1016.1 |
| 20260906151153 | 32 | 135 | 0.0 | 8.0 | 0.00 | 0.20 | 0.00 | 62 | 1016.1 |
| 20260906151056 | 32 | 103 | 1.6 | 8.0 | 0.00 | 0.20 | 0.00 | 62 | 1016.1 |
| 20260906150952 | 32 | 63 | 4.8 | 8.0 | 0.00 | 0.20 | 0.00 | 61 | 1016.1 |
| 20260906150915 | 32 | 96 | 1.6 | 8.0 | 0.00 | 0.20 | 0.00 | 61 | 1016.1 |
| 20260906150750 | 32 | 112 | 1.6 | 8.0 | 0.00 | 0.20 | 0.00 | 61 | 1016.1 |
| 20260906150648 | 32 | 130 | 4.8 | 8.0 | 0.00 | 0.20 | 0.00 | 61 | 1016.1 |
| 20260906150552 | 32 | 108 | 4.8 | 8.0 | 0.00 | 0.20 | 0.00 | 61 | 1016.1 |
| 20260906150507 | 32 | 72 | 4.8 | 8.0 | 0.00 | 0.20 | 0.00 | 61 | 1016.1 |
| 20260906150410 | 32 | 130 | 4.8 | 8.0 | 0.00 | 0.20 | 0.00 | 61 | 1016.1 |
| 20260906150305 | 32 | 100 | 3.2 | 8.0 | 0.00 | 0.20 | 0.00 | 61 | 1016.1 |
| 20260906150200 | 32 | 120 | 3.2 | 8.0 | 0.00 | 0.20 | 0.00 | 61 | 1016.1 |
| 20260906150137 | 32 | 103 | 1.6 | 8.0 | 0.00 | 0.20 | 0.00 | 63 | 1016.1 |
| 20260906150008 | 31 | 120 | 0.0 | 8.0 | 0.00 | 0.20 | 0.00 | 62 | 1016.1 |
| 20260906145955 | 32 | 121 | 1.6 | 8.0 | 0.00 | 0.20 | 0.00 | 62 | 1016.1 |
| 20260906145921 | 32 | 124 | 3.2 | 8.0 | 0.00 | 0.20 | 0.00 | 62 | 1016.1 |
| 20260906145824 | 32 | 91 | 3.2 | 8.0 | 0.00 | 0.20 | 0.00 | 62 | 1016.0 |
| 20260906145659 | 32 | 156 | 4.8 | 8.0 | 0.00 | 0.20 | 0.00 | 61 | 1016.0 |
| 20260906145603 | 32 | 108 | 4.8 | 8.0 | 0.00 | 0.20 | 0.00 | 61 | 1016.1 |
| 20260906145457 | 32 | 72 | 4.8 | 9.7 | 0.00 | 0.20 | 0.00 | 61 | 1016.1 |
| 20260906145352 | 32 | 65 | 1.6 | 9.7 | 0.00 | 0.20 | 0.00 | 62 | 1016.1 |
| 20260906145255 | 32 | 113 | 0.0 | 9.7 | 0.00 | 0.20 | 0.00 | 63 | 1016.1 |
| 20260906145150 | 31 | 127 | 1.6 | 9.7 | 0.00 | 0.20 | 0.00 | 63 | 1016.1 |
| 20260906145059 | 31 | 122 | 3.2 | 9.7 | 0.00 | 0.20 | 0.00 | 62 | 1016.1 |
| 20260906145013 | 31 | 130 | 3.2 | 9.7 | 0.00 | 0.20 | 0.00 | 62 | 1016.2 |
| 20260906144857 | 31 | 123 | 1.6 | 9.7 | 0.00 | 0.20 | 0.00 | 63 | 1016.2 |
| 20260906144751 | 31 | 131 | 3.2 | 9.7 | 0.00 | 0.20 | 0.00 | 63 | 1016.2 |
| 20260906144705 | 31 | 134 | 3.2 | 9.7 | 0.00 | 0.20 | 0.00 | 62 | 1016.2 |
| 20260906144609 | 31 | 63 | 0.0 | 6.4 | 0.00 | 0.20 | 0.00 | 64 | 1016.2 |
| 20260906144515 | 31 | 94 | 0.0 | 6.4 | 0.00 | 0.20 | 0.00 | 64 | 1016.2 |
| 20260906144503 | 31 | 94 | 0.0 | 6.4 | 0.00 | 0.20 | 0.00 | 64 | 1016.2 |
| 20260906144352 | 31 | 89 | 3.2 | 6.4 | 0.00 | 0.20 | 0.00 | 63 | 1016.2 |
| 20260906144306 | 31 | 96 | 1.6 | 6.4 | 0.00 | 0.20 | 0.00 | 64 | 1016.2 |
| 20260906144211 | 31 | 68 | 0.0 | 6.4 | 0.00 | 0.20 | 0.00 | 64 | 1016.2 |
| 20260906144104 | 31 | 122 | 1.6 | 6.4 | 0.00 | 0.20 | 0.00 | 65 | 1016.2 |
| 20260906144009 | 31 | 122 | 3.2 | 6.4 | 0.00 | 0.20 | 0.00 | 65 | 1016.2 |
| 20260906143903 | 31 | 136 | 3.2 | 6.4 | 0.00 | 0.20 | 0.00 | 63 | 1016.1 |
| 20260906143758 | 31 | 113 | 3.2 | 6.4 | 0.00 | 0.20 | 0.00 | 64 | 1016.1 |
| 20260906143653 | 31 | 100 | 1.6 | 6.4 | 0.00 | 0.20 | 0.00 | 64 | 1016.1 |
| 20260906143601 | 31 | 110 | 1.6 | 6.4 | 0.00 | 0.20 | 0.00 | 64 | 1016.1 |
| 20260906143456 | 31 | 64 | 3.2 | 6.4 | 0.00 | 0.20 | 0.00 | 64 | 1016.2 |
| 20260906143351 | 31 | 68 | 3.2 | 8.0 | 0.00 | 0.20 | 0.00 | 63 | 1016.2 |
| 20260906143255 | 31 | 127 | 3.2 | 8.0 | 0.00 | 0.20 | 0.00 | 63 | 1016.2 |
| 20260906143150 | 31 | 111 | 1.6 | 8.0 | 0.00 | 0.20 | 0.00 | 65 | 1016.2 |
| 20260906143114 | 31 | 86 | 1.6 | 8.0 | 0.00 | 0.20 | 0.00 | 64 | 1016.1 |
| 20260906143023 | 31 | 42 | 0.0 | 8.0 | 0.00 | 0.20 | 0.00 | 64 | 1016.1 |
| 20260906142950 | 31 | 42 | 0.0 | 8.0 | 0.00 | 0.20 | 0.00 | 64 | 1016.1 |
| 20260906142917 | 31 | 105 | 0.0 | 8.0 | 0.00 | 0.20 | 0.00 | 65 | 1016.1 |
| 20260906142751 | 31 | 108 | 1.6 | 8.0 | 0.00 | 0.20 | 0.00 | 65 | 1016.1 |
| 20260906142706 | 31 | 108 | 1.6 | 8.0 | 0.00 | 0.20 | 0.00 | 65 | 1016.1 |
| 20260906142610 | 31 | 108 | 1.6 | 8.0 | 0.00 | 0.20 | 0.00 | 65 | 1016.0 |
| 20260906142505 | 31 | 63 | 1.6 | 9.7 | 0.00 | 0.20 | 0.00 | 65 | 1016.0 |
| 20260906142400 | 30 | 112 | 1.6 | 9.7 | 0.00 | 0.20 | 0.00 | 66 | 1016.0 |
| 20260906142306 | 30 | 27 | 1.6 | 9.7 | 0.00 | 0.20 | 0.00 | 66 | 1016.0 |
| 20260906142203 | 30 | 57 | 1.6 | 9.7 | 0.00 | 0.20 | 0.00 | 66 | 1016.0 |
| 20260906142058 | 30 | 67 | 3.2 | 9.7 | 0.00 | 0.20 | 0.00 | 66 | 1016.0 |
| 20260906142022 | 30 | 107 | 3.2 | 9.7 | 0.00 | 0.20 | 0.00 | 66 | 1016.0 |
| 20260906141856 | 30 | 103 | 3.2 | 9.7 | 0.00 | 0.20 | 0.00 | 66 | 1016.0 |
| 20260906141800 | 30 | 98 | 3.2 | 9.7 | 0.00 | 0.20 | 0.00 | 66 | 1016.0 |
| 20260906141655 | 30 | 143 | 1.6 | 11.3 | 0.00 | 0.20 | 0.00 | 67 | 1016.0 |
| 20260906141612 | 30 | 105 | 0.0 | 12.9 | 0.00 | 0.20 | 0.00 | 67 | 1016.0 |
| 20260906141550 | 30 | 108 | 0.0 | 12.9 | 0.00 | 0.20 | 0.00 | 67 | 1016.0 |
| 20260906141458 | 30 | 113 | 0.0 | 12.9 | 0.00 | 0.20 | 0.00 | 68 | 1016.0 |
| 20260906141413 | 30 | 145 | 0.0 | 12.9 | 0.00 | 0.20 | 0.00 | 68 | 1016.0 |
| 20260906141256 | 30 | 114 | 0.0 | 12.9 | 0.00 | 0.20 | 0.00 | 68 | 1016.0 |
| 20260906141151 | 30 | 114 | 1.6 | 12.9 | 0.00 | 0.20 | 0.00 | 68 | 1016.0 |
| 20260906141115 | 30 | 114 | 1.6 | 12.9 | 0.00 | 0.20 | 0.00 | 68 | 1016.0 |
| 20260906140950 | 30 | 94 | 4.8 | 12.9 | 0.00 | 0.20 | 0.00 | 68 | 1016.0 |
| 20260906140905 | 30 | 108 | 4.8 | 12.9 | 0.00 | 0.20 | 0.00 | 67 | 1015.9 |
| 20260906140813 | 30 | 64 | 4.8 | 11.3 | 0.00 | 0.20 | 0.00 | 68 | 1016.0 |
| 20260906140648 | 30 | 108 | 4.8 | 11.3 | 0.00 | 0.20 | 0.00 | 67 | 1016.0 |
| 20260906140602 | 30 | 71 | 6.4 | 11.3 | 0.00 | 0.20 | 0.00 | 67 | 1016.0 |
| 20260906140506 | 30 | 91 | 6.4 | 11.3 | 0.00 | 0.20 | 0.00 | 67 | 1016.0 |
| 20260906140420 | 30 | 56 | 4.8 | 11.3 | 0.00 | 0.20 | 0.00 | 67 | 1016.0 |
| 20260906140303 | 30 | 73 | 6.4 | 11.3 | 0.00 | 0.20 | 0.00 | 67 | 1016.0 |
| 20260906140158 | 30 | 56 | 4.8 | 11.3 | 0.00 | 0.20 | 0.00 | 67 | 1016.0 |
| 20260906140122 | 29 | 115 | 3.2 | 11.3 | 0.00 | 0.20 | 0.00 | 68 | 1016.0 |
| 20260906140108 | 30 | 89 | 3.2 | 11.3 | 0.00 | 0.20 | 0.00 | 68 | 1016.0 |
| 20260906135956 | 30 | 100 | 3.2 | 8.0 | 0.00 | 0.20 | 0.00 | 68 | 1016.0 |
| 20260906135910 | 30 | 64 | 1.6 | 8.0 | 0.00 | 0.20 | 0.00 | 68 | 1016.0 |
| 20260906135813 | 29 | 96 | 0.0 | 8.0 | 0.00 | 0.20 | 0.00 | 68 | 1016.0 |
| 20260906135716 | 29 | 94 | 0.0 | 8.0 | 0.00 | 0.20 | 0.00 | 69 | 1016.0 |
| 20260906135551 | 29 | 143 | 3.2 | 8.0 | 0.00 | 0.20 | 0.00 | 68 | 1016.0 |
| 20260906135506 | 29 | 121 | 3.2 | 8.0 | 0.00 | 0.20 | 0.00 | 68 | 1016.0 |
| 20260906135410 | 29 | 61 | 4.8 | 8.0 | 0.00 | 0.20 | 0.00 | 68 | 1016.0 |
| 20260906135249 | 29 | 137 | 3.2 | 8.0 | 0.00 | 0.20 | 0.00 | 68 | 1016.0 |
| 20260906135204 | 29 | 62 | 3.2 | 8.0 | 0.00 | 0.20 | 0.00 | 68 | 1015.9 |
| 20260906135128 | 29 | 100 | 1.6 | 4.8 | 0.00 | 0.20 | 0.00 | 68 | 1016.0 |
| 20260906135002 | 29 | 107 | 1.6 | 4.8 | 0.00 | 0.20 | 0.00 | 68 | 1015.9 |
| 20260906134906 | 29 | 133 | 3.2 | 4.8 | 0.00 | 0.20 | 0.00 | 68 | 1016.0 |
| 20260906134821 | 29 | 116 | 1.6 | 4.8 | 0.00 | 0.20 | 0.00 | 68 | 1015.9 |
| 20260906134704 | 29 | 103 | 0.0 | 4.8 | 0.00 | 0.20 | 0.00 | 69 | 1015.9 |
| 20260906134559 | 29 | 68 | 0.0 | 4.8 | 0.00 | 0.20 | 0.00 | 69 | 1015.9 |
| 20260906134512 | 28 | 68 | 0.0 | 4.8 | 0.00 | 0.20 | 0.00 | 69 | 1015.9 |
| 20260906134458 | 29 | 68 | 1.6 | 4.8 | 0.00 | 0.20 | 0.00 | 69 | 1015.9 |
| 20260906134402 | 29 | 108 | 1.6 | 4.8 | 0.00 | 0.20 | 0.00 | 69 | 1015.9 |
| 20260906134257 | 28 | 130 | 1.6 | 4.8 | 0.00 | 0.20 | 0.00 | 69 | 1015.9 |
| 20260906134152 | 28 | 96 | 1.6 | 4.8 | 0.00 | 0.20 | 0.00 | 69 | 1015.9 |
| 20260906134056 | 28 | 97 | 1.6 | 4.8 | 0.00 | 0.20 | 0.00 | 70 | 1015.9 |
| 20260906133951 | 28 | 99 | 1.6 | 4.8 | 0.00 | 0.20 | 0.00 | 70 | 1015.9 |
| 20260906133850 | 28 | 99 | 1.6 | 4.8 | 0.00 | 0.20 | 0.00 | 70 | 1015.9 |
| 20260906133754 | 28 | 120 | 0.0 | 4.8 | 0.00 | 0.20 | 0.00 | 70 | 1015.9 |
| 20260906133709 | 28 | 99 | 1.6 | 4.8 | 0.00 | 0.20 | 0.00 | 70 | 1015.8 |
| 20260906133551 | 28 | 90 | 1.6 | 4.8 | 0.00 | 0.20 | 0.00 | 70 | 1015.8 |
| 20260906133506 | 28 | 88 | 1.6 | 4.8 | 0.00 | 0.20 | 0.00 | 70 | 1015.8 |
| 20260906133411 | 28 | 101 | 1.6 | 4.8 | 0.00 | 0.20 | 0.00 | 70 | 1015.8 |
| 20260906133305 | 28 | 98 | 1.6 | 4.8 | 0.00 | 0.20 | 0.00 | 70 | 1015.8 |
| 20260906133200 | 28 | 119 | 1.6 | 4.8 | 0.00 | 0.20 | 0.00 | 70 | 1015.8 |
| 20260906133109 | 28 | 106 | 1.6 | 4.8 | 0.00 | 0.20 | 0.00 | 70 | 1015.8 |
| 20260906133027 | 28 | 106 | 1.6 | 4.8 | 0.00 | 0.20 | 0.00 | 70 | 1015.8 |
| 20260906133004 | 28 | 106 | 1.6 | 4.8 | 0.00 | 0.20 | 0.00 | 70 | 1015.8 |
| 20260906132907 | 28 | 69 | 1.6 | 4.8 | 0.00 | 0.20 | 0.00 | 70 | 1015.8 |
| 20260906132802 | 28 | 119 | 3.2 | 6.4 | 0.00 | 0.20 | 0.00 | 70 | 1015.8 |
| 20260906132726 | 28 | 108 | 3.2 | 8.0 | 0.00 | 0.20 | 0.00 | 70 | 1015.8 |
| 20260906132619 | 28 | 108 | 3.2 | 8.0 | 0.00 | 0.20 | 0.00 | 70 | 1015.8 |
| 20260906132503 | 28 | 65 | 1.6 | 8.0 | 0.00 | 0.20 | 0.00 | 71 | 1015.8 |
| 20260906132417 | 28 | 113 | 1.6 | 8.0 | 0.00 | 0.20 | 0.00 | 71 | 1015.8 |
| 20260906132306 | 28 | 82 | 1.6 | 8.0 | 0.00 | 0.20 | 0.00 | 71 | 1015.8 |
| 20260906132159 | 27 | 86 | 1.6 | 8.0 | 0.00 | 0.20 | 0.00 | 71 | 1015.8 |
| 20260906132054 | 27 | 145 | 1.6 | 8.0 | 0.00 | 0.20 | 0.00 | 71 | 1015.7 |
| 20260906131958 | 27 | 79 | 3.2 | 8.0 | 0.00 | 0.20 | 0.00 | 71 | 1015.8 |
| 20260906131853 | 27 | 116 | 3.2 | 9.7 | 0.00 | 0.20 | 0.00 | 71 | 1015.7 |
| 20260906131817 | 27 | 112 | 3.2 | 9.7 | 0.00 | 0.20 | 0.00 | 71 | 1015.7 |
| 20260906131712 | 27 | 77 | 3.2 | 9.7 | 0.00 | 0.20 | 0.00 | 71 | 1015.7 |
| 20260906131615 | 27 | 127 | 3.2 | 9.7 | 0.00 | 0.20 | 0.00 | 71 | 1015.6 |
| 20260906131513 | 27 | 112 | 1.6 | 9.7 | 0.00 | 0.20 | 0.00 | 71 | 1015.6 |
| 20260906131453 | 27 | 98 | 1.6 | 9.7 | 0.00 | 0.20 | 0.00 | 71 | 1015.6 |
| 20260906131356 | 27 | 64 | 3.2 | 9.7 | 0.00 | 0.20 | 0.00 | 71 | 1015.7 |
| 20260906131251 | 27 | 106 | 4.8 | 9.7 | 0.00 | 0.20 | 0.00 | 71 | 1015.6 |
| 20260906131155 | 27 | 120 | 4.8 | 9.7 | 0.00 | 0.20 | 0.00 | 71 | 1015.6 |
| 20260906131049 | 27 | 72 | 3.2 | 8.0 | 0.00 | 0.20 | 0.00 | 71 | 1015.6 |
| 20260906131014 | 27 | 78 | 1.6 | 6.4 | 0.00 | 0.20 | 0.00 | 71 | 1015.6 |
| 20260906130907 | 27 | 111 | 1.6 | 6.4 | 0.00 | 0.20 | 0.00 | 71 | 1015.6 |
| 20260906130810 | 27 | 110 | 3.2 | 6.4 | 0.00 | 0.20 | 0.00 | 71 | 1015.6 |
| 20260906130648 | 27 | 68 | 1.6 | 6.4 | 0.00 | 0.20 | 0.00 | 72 | 1015.6 |
| 20260906130612 | 27 | 68 | 0.0 | 6.4 | 0.00 | 0.20 | 0.00 | 72 | 1015.6 |
| 20260906130506 | 27 | 68 | 0.0 | 6.4 | 0.00 | 0.20 | 0.00 | 72 | 1015.6 |
| 20260906130410 | 27 | 68 | 1.6 | 6.4 | 0.00 | 0.20 | 0.00 | 72 | 1015.5 |
| 20260906130305 | 27 | 67 | 3.2 | 6.4 | 0.00 | 0.20 | 0.00 | 72 | 1015.5 |
| 20260906130201 | 27 | 72 | 3.2 | 6.4 | 0.00 | 0.20 | 0.00 | 72 | 1015.5 |
| 20260906130115 | 27 | 98 | 3.2 | 6.4 | 0.00 | 0.20 | 0.00 | 72 | 1015.5 |
| 20260906130027 | 27 | 69 | 1.6 | 6.4 | 0.00 | 0.20 | 0.00 | 72 | 1015.5 |
| 20260906125955 | 27 | 60 | 1.6 | 6.4 | 0.00 | 0.20 | 0.00 | 72 | 1015.5 |
| 20260906125852 | 27 | 139 | 1.6 | 9.7 | 0.00 | 0.20 | 0.00 | 72 | 1015.5 |
| 20260906125816 | 27 | 69 | 0.0 | 12.9 | 0.00 | 0.20 | 0.00 | 73 | 1015.5 |
| 20260906125650 | 27 | 69 | 0.0 | 12.9 | 0.00 | 0.20 | 0.00 | 73 | 1015.5 |
| 20260906125554 | 27 | 69 | 1.6 | 12.9 | 0.00 | 0.20 | 0.00 | 73 | 1015.4 |
| 20260906125449 | 27 | 69 | 1.6 | 12.9 | 0.00 | 0.20 | 0.00 | 73 | 1015.4 |
| 20260906125413 | 27 | 68 | 1.6 | 12.9 | 0.00 | 0.20 | 0.00 | 73 | 1015.4 |
| 20260906125248 | 27 | 93 | 3.2 | 12.9 | 0.00 | 0.20 | 0.00 | 73 | 1015.4 |
| 20260906125147 | 27 | 98 | 4.8 | 12.9 | 0.00 | 0.20 | 0.00 | 73 | 1015.4 |
| 20260906125111 | 27 | 49 | 6.4 | 12.9 | 0.00 | 0.20 | 0.00 | 73 | 1015.4 |
| 20260906125006 | 27 | 65 | 4.8 | 12.9 | 0.00 | 0.20 | 0.00 | 73 | 1015.4 |
| 20260906124930 | 27 | 79 | 3.2 | 8.0 | 0.00 | 0.20 | 0.00 | 73 | 1015.3 |
| 20260906124804 | 26 | 117 | 3.2 | 6.4 | 0.00 | 0.20 | 0.00 | 73 | 1015.4 |
| 20260906124659 | 26 | 98 | 3.2 | 9.7 | 0.00 | 0.20 | 0.00 | 73 | 1015.4 |
| 20260906124603 | 26 | 102 | 1.6 | 9.7 | 0.00 | 0.20 | 0.00 | 73 | 1015.4 |
| 20260906124539 | 26 | 58 | 1.6 | 9.7 | 0.00 | 0.20 | 0.00 | 73 | 1015.4 |
| 20260906124502 | 26 | 125 | 1.6 | 9.7 | 0.00 | 0.20 | 0.00 | 73 | 1015.3 |
| 20260906124357 | 26 | 141 | 3.2 | 9.7 | 0.00 | 0.20 | 0.00 | 73 | 1015.3 |
| 20260906124301 | 26 | 70 | 3.2 | 9.7 | 0.00 | 0.20 | 0.00 | 73 | 1015.2 |
| 20260906124156 | 26 | 74 | 3.2 | 9.7 | 0.00 | 0.20 | 0.00 | 73 | 1015.2 |
| 20260906124051 | 26 | 89 | 4.8 | 9.7 | 0.00 | 0.20 | 0.00 | 73 | 1015.2 |
| 20260906123955 | 26 | 80 | 3.2 | 9.7 | 0.00 | 0.20 | 0.00 | 73 | 1015.1 |
| 20260906123850 | 26 | 63 | 1.6 | 4.8 | 0.00 | 0.20 | 0.00 | 74 | 1015.2 |
| 20260906123749 | 26 | 98 | 1.6 | 4.8 | 0.00 | 0.20 | 0.00 | 74 | 1015.1 |
| 20260906123653 | 26 | 101 | 1.6 | 6.4 | 0.00 | 0.20 | 0.00 | 74 | 1015.2 |
| 20260906123548 | 26 | 111 | 1.6 | 6.4 | 0.00 | 0.20 | 0.00 | 74 | 1015.1 |
| 20260906123512 | 26 | 111 | 0.0 | 6.4 | 0.00 | 0.20 | 0.00 | 74 | 1015.1 |
| 20260906123427 | 26 | 80 | 1.6 | 6.4 | 0.00 | 0.20 | 0.00 | 74 | 1015.1 |
| 20260906123310 | 26 | 80 | 3.2 | 6.4 | 0.00 | 0.20 | 0.00 | 74 | 1015.1 |
| 20260906123205 | 26 | 72 | 3.2 | 6.4 | 0.00 | 0.20 | 0.00 | 74 | 1015.1 |
| 20260906123129 | 26 | 91 | 3.2 | 6.4 | 0.00 | 0.20 | 0.00 | 74 | 1015.1 |
| 20260906123049 | 26 | 58 | 1.6 | 6.4 | 0.00 | 0.20 | 0.00 | 74 | 1015.1 |
| 20260906123029 | 26 | 105 | 3.2 | 6.4 | 0.00 | 0.20 | 0.00 | 74 | 1015.1 |
| 20260906122911 | 26 | 106 | 1.6 | 6.4 | 0.00 | 0.20 | 0.00 | 74 | 1015.1 |
| 20260906122806 | 26 | 113 | 1.6 | 6.4 | 0.00 | 0.20 | 0.00 | 75 | 1015.0 |
| 20260906122701 | 26 | 113 | 1.6 | 6.4 | 0.00 | 0.20 | 0.00 | 75 | 1015.1 |
| 20260906122605 | 26 | 102 | 1.6 | 6.4 | 0.00 | 0.20 | 0.00 | 75 | 1015.0 |
| 20260906122500 | 26 | 134 | 1.6 | 6.4 | 0.00 | 0.20 | 0.00 | 75 | 1015.0 |
| 20260906122356 | 26 | 114 | 1.6 | 6.4 | 0.00 | 0.20 | 0.00 | 75 | 1015.0 |
| 20260906122306 | 26 | 115 | 1.6 | 6.4 | 0.00 | 0.20 | 0.00 | 75 | 1015.0 |
| 20260906122159 | 26 | 118 | 3.2 | 6.4 | 0.00 | 0.20 | 0.00 | 75 | 1015.0 |
| 20260906122054 | 26 | 125 | 3.2 | 6.4 | 0.00 | 0.20 | 0.00 | 75 | 1015.0 |
| 20260906121949 | 26 | 91 | 3.2 | 6.4 | 0.00 | 0.20 | 0.00 | 75 | 1015.0 |
| 20260906121853 | 26 | 95 | 1.6 | 6.4 | 0.00 | 0.20 | 0.00 | 75 | 1015.0 |
| 20260906121748 | 26 | 107 | 1.6 | 6.4 | 0.00 | 0.20 | 0.00 | 75 | 1015.0 |
| 20260906121712 | 26 | 135 | 1.6 | 6.4 | 0.00 | 0.20 | 0.00 | 75 | 1015.0 |
| 20260906121639 | 25 | 110 | 0.0 | 6.4 | 0.00 | 0.20 | 0.00 | 75 | 1015.0 |
| 20260906121551 | 26 | 110 | 1.6 | 6.4 | 0.00 | 0.20 | 0.00 | 75 | 1015.0 |
| 20260906121516 | 26 | 94 | 1.6 | 6.4 | 0.00 | 0.20 | 0.00 | 75 | 1015.0 |
| 20260906121410 | 26 | 123 | 1.6 | 6.4 | 0.00 | 0.20 | 0.00 | 75 | 1015.0 |
| 20260906121335 | 26 | 125 | 1.6 | 6.4 | 0.00 | 0.20 | 0.00 | 75 | 1014.9 |
| 20260906121207 | 26 | 74 | 1.6 | 6.4 | 0.00 | 0.20 | 0.00 | 75 | 1014.9 |
| 20260906121102 | 26 | 110 | 3.2 | 6.4 | 0.00 | 0.20 | 0.00 | 75 | 1015.0 |
| 20260906120957 | 26 | 117 | 1.6 | 6.4 | 0.00 | 0.20 | 0.00 | 75 | 1015.0 |
| 20260906120905 | 26 | 93 | 3.2 | 6.4 | 0.00 | 0.20 | 0.00 | 75 | 1014.9 |
| 20260906120800 | 26 | 68 | 3.2 | 6.4 | 0.00 | 0.20 | 0.00 | 75 | 1014.9 |
| 20260906120655 | 26 | 86 | 3.2 | 6.4 | 0.00 | 0.20 | 0.00 | 75 | 1014.9 |
| 20260906120619 | 26 | 103 | 1.6 | 6.4 | 0.00 | 0.20 | 0.00 | 75 | 1014.9 |
| 20260906120453 | 26 | 122 | 1.6 | 6.4 | 0.00 | 0.20 | 0.00 | 75 | 1014.9 |
| 20260906120356 | 25 | 96 | 1.6 | 6.4 | 0.00 | 0.20 | 0.00 | 75 | 1014.8 |
| 20260906120251 | 25 | 102 | 1.6 | 4.8 | 0.00 | 0.20 | 0.00 | 75 | 1014.9 |
| 20260906120215 | 25 | 109 | 1.6 | 4.8 | 0.00 | 0.20 | 0.00 | 75 | 1014.9 |
| 20260906120113 | 25 | 119 | 1.6 | 4.8 | 0.00 | 0.20 | 0.00 | 75 | 1014.9 |
| 20260906120030 | 25 | 115 | 0.0 | 4.8 | 0.00 | 0.20 | 0.00 | 76 | 1014.9 |
| 20260906120012 | 25 | 115 | 1.6 | 4.8 | 0.00 | 0.20 | 0.00 | 76 | 1014.8 |
| 20260906115854 | 25 | 111 | 1.6 | 4.8 | 0.00 | 0.20 | 0.00 | 76 | 1014.8 |
| 20260906115749 | 25 | 60 | 1.6 | 4.8 | 0.00 | 0.20 | 0.00 | 76 | 1014.8 |
| 20260906115712 | 25 | 99 | 1.6 | 4.8 | 0.00 | 0.20 | 0.00 | 76 | 1014.8 |
| 20260906115606 | 25 | 76 | 1.6 | 4.8 | 0.00 | 0.20 | 0.00 | 76 | 1014.8 |
| 20260906115510 | 25 | 126 | 0.0 | 6.4 | 0.00 | 0.20 | 0.00 | 76 | 1014.8 |
| 20260906115404 | 25 | 101 | 0.0 | 6.4 | 0.00 | 0.20 | 0.00 | 76 | 1014.8 |
| 20260906115312 | 25 | 101 | 1.6 | 6.4 | 0.00 | 0.20 | 0.00 | 76 | 1014.8 |
| 20260906115207 | 25 | 101 | 1.6 | 6.4 | 0.00 | 0.20 | 0.00 | 76 | 1014.8 |
| 20260906115102 | 25 | 117 | 1.6 | 6.4 | 0.00 | 0.20 | 0.00 | 76 | 1014.9 |
| 20260906115006 | 25 | 154 | 1.6 | 8.0 | 0.00 | 0.20 | 0.00 | 76 | 1014.9 |
| 20260906114901 | 25 | 98 | 3.2 | 8.0 | 0.00 | 0.20 | 0.00 | 77 | 1014.8 |
| 20260906114756 | 25 | 81 | 3.2 | 8.0 | 0.00 | 0.20 | 0.00 | 77 | 1014.8 |
| 20260906114720 | 25 | 131 | 3.2 | 8.0 | 0.00 | 0.20 | 0.00 | 77 | 1014.8 |
| 20260906114623 | 25 | 96 | 3.2 | 8.0 | 0.00 | 0.20 | 0.00 | 77 | 1014.8 |
| 20260906114545 | 25 | 138 | 1.6 | 8.0 | 0.00 | 0.20 | 0.00 | 77 | 1014.8 |
| 20260906114521 | 25 | 134 | 3.2 | 8.0 | 0.00 | 0.20 | 0.00 | 77 | 1014.8 |
| 20260906114404 | 25 | 131 | 3.2 | 8.0 | 0.00 | 0.20 | 0.00 | 77 | 1014.8 |
| 20260906114259 | 25 | 115 | 3.2 | 8.0 | 0.00 | 0.20 | 0.00 | 77 | 1014.8 |
| 20260906114154 | 25 | 96 | 1.6 | 8.0 | 0.00 | 0.20 | 0.00 | 77 | 1014.8 |
| 20260906114058 | 25 | 113 | 1.6 | 6.4 | 0.00 | 0.20 | 0.00 | 77 | 1014.8 |
| 20260906113953 | 25 | 113 | 3.2 | 6.4 | 0.00 | 0.20 | 0.00 | 77 | 1014.8 |
| 20260906113848 | 25 | 131 | 1.6 | 6.4 | 0.00 | 0.20 | 0.00 | 77 | 1014.8 |
| 20260906113755 | 25 | 131 | 3.2 | 6.4 | 0.00 | 0.20 | 0.00 | 77 | 1014.9 |
| 20260906113651 | 25 | 111 | 3.2 | 6.4 | 0.00 | 0.20 | 0.00 | 77 | 1014.8 |
| 20260906113614 | 25 | 101 | 3.2 | 6.4 | 0.00 | 0.20 | 0.00 | 77 | 1014.8 |
| 20260906113510 | 25 | 136 | 3.2 | 6.4 | 0.00 | 0.20 | 0.00 | 77 | 1014.8 |
| 20260906113404 | 25 | 90 | 1.6 | 4.8 | 0.00 | 0.20 | 0.00 | 77 | 1014.8 |
| 20260906113329 | 25 | 125 | 0.0 | 4.8 | 0.00 | 0.20 | 0.00 | 77 | 1014.8 |
| 20260906113203 | 25 | 105 | 1.6 | 4.8 | 0.00 | 0.20 | 0.00 | 76 | 1014.8 |
| 20260906113110 | 25 | 112 | 1.6 | 4.8 | 0.00 | 0.20 | 0.00 | 76 | 1014.8 |
| 20260906113103 | 25 | 112 | 1.6 | 4.8 | 0.00 | 0.20 | 0.00 | 76 | 1014.8 |
| 20260906113007 | 25 | 83 | 1.6 | 4.8 | 0.00 | 0.20 | 0.00 | 76 | 1014.8 |
| 20260906112930 | 25 | 131 | 1.6 | 4.8 | 0.00 | 0.20 | 0.00 | 76 | 1014.8 |
| 20260906112804 | 25 | 113 | 1.6 | 4.8 | 0.00 | 0.20 | 0.00 | 76 | 1014.8 |
| 20260906112658 | 25 | 124 | 0.0 | 3.2 | 0.00 | 0.20 | 0.00 | 76 | 1014.8 |
| 20260906112604 | 25 | 124 | 0.0 | 3.2 | 0.00 | 0.20 | 0.00 | 76 | 1014.7 |
| 20260906112458 | 25 | 107 | 0.0 | 4.8 | 0.00 | 0.20 | 0.00 | 76 | 1014.8 |
| 20260906112412 | 26 | 117 | 1.6 | 4.8 | 0.00 | 0.20 | 0.00 | 76 | 1014.7 |
| 20260906112259 | 26 | 107 | 1.6 | 4.8 | 0.00 | 0.20 | 0.00 | 75 | 1014.7 |
| 20260906112155 | 26 | 110 | 1.6 | 4.8 | 0.00 | 0.20 | 0.00 | 76 | 1014.7 |
| 20260906112100 | 26 | 110 | 0.0 | 4.8 | 0.00 | 0.20 | 0.00 | 75 | 1014.7 |
| 20260906112013 | 26 | 89 | 0.0 | 4.8 | 0.00 | 0.20 | 0.00 | 75 | 1014.7 |
| 20260906111857 | 26 | 89 | 0.0 | 4.8 | 0.00 | 0.20 | 0.00 | 75 | 1014.7 |
| 20260906111812 | 26 | 108 | 1.6 | 4.8 | 0.00 | 0.20 | 0.00 | 75 | 1014.7 |
| 20260906111735 | 26 | 123 | 1.6 | 4.8 | 0.00 | 0.20 | 0.00 | 75 | 1014.7 |
| 20260906111552 | 26 | 97 | 1.6 | 4.8 | 0.00 | 0.20 | 0.00 | 75 | 1014.7 |
| 20260906111523 | 25 | 105 | 1.6 | 4.8 | 0.00 | 0.20 | 0.00 | 75 | 1014.7 |
| 20260906111448 | 26 | 105 | 1.6 | 4.8 | 0.00 | 0.20 | 0.00 | 75 | 1014.7 |
| 20260906111411 | 26 | 104 | 1.6 | 3.2 | 0.00 | 0.20 | 0.00 | 75 | 1014.7 |
| 20260906111306 | 26 | 117 | 1.6 | 3.2 | 0.00 | 0.20 | 0.00 | 75 | 1014.7 |
| 20260906111202 | 26 | 100 | 1.6 | 3.2 | 0.00 | 0.20 | 0.00 | 76 | 1014.7 |
| 20260906111106 | 26 | 122 | 1.6 | 3.2 | 0.00 | 0.20 | 0.00 | 75 | 1014.7 |
| 20260906111001 | 26 | 107 | 1.6 | 3.2 | 0.00 | 0.20 | 0.00 | 75 | 1014.7 |
| 20260906110859 | 26 | 101 | 0.0 | 1.6 | 0.00 | 0.20 | 0.00 | 75 | 1014.7 |
| 20260906110803 | 26 | 101 | 0.0 | 1.6 | 0.00 | 0.20 | 0.00 | 75 | 1014.7 |
| 20260906110658 | 26 | 105 | 0.0 | 1.6 | 0.00 | 0.20 | 0.00 | 75 | 1014.7 |
| 20260906110554 | 26 | 105 | 0.0 | 1.6 | 0.00 | 0.20 | 0.00 | 75 | 1014.7 |
| 20260906110457 | 26 | 115 | 0.0 | 1.6 | 0.00 | 0.20 | 0.00 | 75 | 1014.7 |
| 20260906110353 | 26 | 115 | 0.0 | 1.6 | 0.00 | 0.20 | 0.00 | 75 | 1014.7 |
| 20260906110247 | 26 | 100 | 0.0 | 1.6 | 0.00 | 0.20 | 0.00 | 75 | 1014.7 |
| 20260906110131 | 26 | 100 | 1.6 | 1.6 | 0.00 | 0.20 | 0.00 | 75 | 1014.7 |
| 20260906110051 | 25 | 100 | 0.0 | 1.6 | 0.00 | 0.20 | 0.00 | 75 | 1014.6 |
| 20260906105950 | 26 | 133 | 0.0 | 1.6 | 0.00 | 0.20 | 0.00 | 75 | 1014.7 |
| 20260906105903 | 26 | 107 | 0.0 | 1.6 | 0.00 | 0.20 | 0.00 | 75 | 1014.7 |
| 20260906105807 | 26 | 114 | 0.0 | 1.6 | 0.00 | 0.20 | 0.00 | 75 | 1014.6 |
| 20260906105702 | 26 | 114 | 0.0 | 1.6 | 0.00 | 0.20 | 0.00 | 75 | 1014.7 |
| 20260906105557 | 26 | 115 | 0.0 | 4.8 | 0.00 | 0.20 | 0.00 | 75 | 1014.7 |
| 20260906105505 | 26 | 117 | 0.0 | 4.8 | 0.00 | 0.20 | 0.00 | 75 | 1014.7 |
| 20260906105400 | 26 | 89 | 0.0 | 4.8 | 0.00 | 0.20 | 0.00 | 75 | 1014.7 |
| 20260906105255 | 26 | 103 | 0.0 | 4.8 | 0.00 | 0.20 | 0.00 | 75 | 1014.7 |
| 20260906105201 | 26 | 103 | 0.0 | 4.8 | 0.00 | 0.20 | 0.00 | 75 | 1014.7 |
| 20260906105114 | 26 | 103 | 0.0 | 4.8 | 0.00 | 0.20 | 0.00 | 75 | 1014.7 |
| 20260906104948 | 26 | 103 | 1.6 | 4.8 | 0.00 | 0.20 | 0.00 | 75 | 1014.7 |
| 20260906104852 | 26 | 103 | 1.6 | 4.8 | 0.00 | 0.20 | 0.00 | 75 | 1014.7 |
| 20260906104820 | 26 | 105 | 1.6 | 4.8 | 0.00 | 0.20 | 0.00 | 75 | 1014.7 |
| 20260906104654 | 26 | 68 | 0.0 | 4.8 | 0.00 | 0.20 | 0.00 | 76 | 1014.7 |
| 20260906104617 | 25 | 103 | 0.0 | 3.2 | 0.00 | 0.20 | 0.00 | 76 | 1014.8 |
| 20260906104550 | 25 | 103 | 0.0 | 3.2 | 0.00 | 0.20 | 0.00 | 76 | 1014.8 |
| 20260906104454 | 25 | 103 | 0.0 | 3.2 | 0.00 | 0.20 | 0.00 | 76 | 1014.8 |
| 20260906104348 | 25 | 103 | 0.0 | 3.2 | 0.00 | 0.20 | 0.00 | 76 | 1014.8 |
| 20260906104303 | 25 | 118 | 1.6 | 3.2 | 0.00 | 0.20 | 0.00 | 76 | 1014.8 |
| 20260906104208 | 25 | 96 | 1.6 | 3.2 | 0.00 | 0.20 | 0.00 | 76 | 1014.8 |
| 20260906104106 | 25 | 63 | 0.0 | 3.2 | 0.00 | 0.20 | 0.00 | 76 | 1014.8 |
| 20260906104001 | 25 | 65 | 0.0 | 3.2 | 0.00 | 0.20 | 0.00 | 77 | 1014.8 |
| 20260906103905 | 25 | 65 | 0.0 | 3.2 | 0.00 | 0.20 | 0.00 | 77 | 1014.8 |
| 20260906103820 | 25 | 65 | 0.0 | 3.2 | 0.00 | 0.20 | 0.00 | 77 | 1014.8 |
| 20260906103703 | 25 | 129 | 0.0 | 0.0 | 0.00 | 0.20 | 0.00 | 77 | 1014.7 |
| 20260906103558 | 25 | 129 | 0.0 | 0.0 | 0.00 | 0.20 | 0.00 | 77 | 1014.8 |
| 20260906103453 | 25 | 129 | 0.0 | 0.0 | 0.00 | 0.20 | 0.00 | 77 | 1014.7 |
| 20260906103401 | 25 | 129 | 0.0 | 0.0 | 0.00 | 0.20 | 0.00 | 77 | 1014.7 |
| 20260906103256 | 25 | 129 | 0.0 | 1.6 | 0.00 | 0.20 | 0.00 | 77 | 1014.7 |
| 20260906103220 | 25 | 129 | 0.0 | 1.6 | 0.00 | 0.20 | 0.00 | 77 | 1014.7 |
| 20260906103128 | 25 | 129 | 0.0 | 1.6 | 0.00 | 0.20 | 0.00 | 77 | 1014.7 |
| 20260906103054 | 25 | 129 | 0.0 | 1.6 | 0.00 | 0.20 | 0.00 | 77 | 1014.7 |
| 20260906103020 | 25 | 129 | 0.0 | 1.6 | 0.00 | 0.20 | 0.00 | 77 | 1014.7 |
| 20260906102852 | 25 | 129 | 0.0 | 1.6 | 0.00 | 0.20 | 0.00 | 76 | 1014.7 |
| 20260906102747 | 25 | 129 | 0.0 | 1.6 | 0.00 | 0.20 | 0.00 | 76 | 1014.7 |
| 20260906102651 | 26 | 129 | 0.0 | 1.6 | 0.00 | 0.20 | 0.00 | 76 | 1014.7 |
| 20260906102550 | 26 | 129 | 0.0 | 1.6 | 0.00 | 0.20 | 0.00 | 77 | 1014.6 |
| 20260906102514 | 26 | 129 | 0.0 | 1.6 | 0.00 | 0.20 | 0.00 | 77 | 1014.6 |
| 20260906102349 | 26 | 129 | 0.0 | 0.0 | 0.00 | 0.20 | 0.00 | 76 | 1014.7 |
| 20260906102306 | 26 | 129 | 0.0 | 0.0 | 0.00 | 0.20 | 0.00 | 76 | 1014.6 |
| 20260906102208 | 26 | 129 | 0.0 | 0.0 | 0.00 | 0.20 | 0.00 | 76 | 1014.6 |
| 20260906102123 | 26 | 129 | 0.0 | 0.0 | 0.00 | 0.20 | 0.00 | 76 | 1014.5 |
| 20260906102006 | 26 | 129 | 0.0 | 0.0 | 0.00 | 0.20 | 0.00 | 76 | 1014.5 |
| 20260906101905 | 26 | 129 | 0.0 | 0.0 | 0.00 | 0.20 | 0.00 | 76 | 1014.5 |
| 20260906101800 | 26 | 129 | 0.0 | 0.0 | 0.00 | 0.20 | 0.00 | 76 | 1014.5 |
| 20260906101704 | 26 | 129 | 0.0 | 0.0 | 0.00 | 0.20 | 0.00 | 75 | 1014.5 |
| 20260906101639 | 26 | 129 | 0.0 | 0.0 | 0.00 | 0.20 | 0.00 | 75 | 1014.5 |
| 20260906101619 | 26 | 129 | 0.0 | 0.0 | 0.00 | 0.20 | 0.00 | 75 | 1014.5 |
| 20260906101502 | 26 | 129 | 0.0 | 0.0 | 0.00 | 0.20 | 0.00 | 75 | 1014.5 |
| 20260906101357 | 26 | 129 | 0.0 | 0.0 | 0.00 | 0.20 | 0.00 | 75 | 1014.5 |
| 20260906101252 | 26 | 129 | 0.0 | 0.0 | 0.00 | 0.20 | 0.00 | 74 | 1014.5 |
| 20260906101216 | 26 | 129 | 0.0 | 0.0 | 0.00 | 0.20 | 0.00 | 74 | 1014.5 |
| 20260906101123 | 26 | 129 | 0.0 | 0.0 | 0.00 | 0.20 | 0.00 | 74 | 1014.5 |
| 20260906100957 | 26 | 129 | 0.0 | 0.0 | 0.00 | 0.20 | 0.00 | 74 | 1014.5 |
| 20260906100852 | 26 | 129 | 0.0 | 0.0 | 0.00 | 0.20 | 0.00 | 73 | 1014.4 |
| 20260906100756 | 26 | 129 | 0.0 | 1.6 | 0.00 | 0.20 | 0.00 | 73 | 1014.5 |
| 20260906100651 | 26 | 129 | 0.0 | 1.6 | 0.00 | 0.20 | 0.00 | 72 | 1014.5 |
| 20260906100615 | 26 | 129 | 0.0 | 1.6 | 0.00 | 0.20 | 0.00 | 72 | 1014.4 |
| 20260906100509 | 26 | 129 | 0.0 | 1.6 | 0.00 | 0.20 | 0.00 | 72 | 1014.4 |
| 20260906100352 | 26 | 129 | 0.0 | 1.6 | 0.00 | 0.20 | 0.00 | 71 | 1014.4 |
| 20260906100251 | 26 | 129 | 0.0 | 1.6 | 0.00 | 0.20 | 0.00 | 71 | 1014.4 |
| 20260906100215 | 26 | 129 | 0.0 | 1.6 | 0.00 | 0.20 | 0.00 | 71 | 1014.4 |
| 20260906100150 | 26 | 129 | 0.0 | 1.6 | 0.00 | 0.20 | 0.00 | 71 | 1014.4 |
| 20260906100120 | 26 | 129 | 0.0 | 1.6 | 0.00 | 0.20 | 0.00 | 71 | 1014.4 |
| 20260906100010 | 26 | 129 | 0.0 | 1.6 | 0.00 | 0.20 | 0.00 | 71 | 1014.4 |
| 20260906095903 | 26 | 129 | 0.0 | 1.6 | 0.00 | 0.20 | 0.00 | 71 | 1014.4 |
| 20260906095758 | 26 | 129 | 0.0 | 1.6 | 0.00 | 0.20 | 0.00 | 71 | 1014.4 |
| 20260906095653 | 26 | 129 | 0.0 | 1.6 | 0.00 | 0.20 | 0.00 | 71 | 1014.3 |
| 20260906095621 | 26 | 129 | 0.0 | 1.6 | 0.00 | 0.20 | 0.00 | 71 | 1014.3 |
| 20260906095524 | 26 | 129 | 0.0 | 1.6 | 0.00 | 0.20 | 0.00 | 71 | 1014.3 |
| 20260906095358 | 26 | 129 | 0.0 | 1.6 | 0.00 | 0.20 | 0.00 | 71 | 1014.3 |
| 20260906095253 | 26 | 129 | 0.0 | 1.6 | 0.00 | 0.20 | 0.00 | 71 | 1014.3 |
| 20260906095157 | 26 | 129 | 0.0 | 1.6 | 0.00 | 0.20 | 0.00 | 71 | 1014.4 |
| 20260906095051 | 26 | 129 | 0.0 | 1.6 | 0.00 | 0.20 | 0.00 | 71 | 1014.4 |
| 20260906095015 | 26 | 129 | 0.0 | 1.6 | 0.00 | 0.20 | 0.00 | 71 | 1014.4 |
| 20260906094854 | 26 | 129 | 0.0 | 1.6 | 0.00 | 0.20 | 0.00 | 71 | 1014.4 |
| 20260906094809 | 26 | 129 | 0.0 | 1.6 | 0.00 | 0.20 | 0.00 | 71 | 1014.3 |
| 20260906094652 | 26 | 129 | 0.0 | 1.6 | 0.00 | 0.20 | 0.00 | 71 | 1014.4 |
| 20260906094620 | 26 | 129 | 0.0 | 1.6 | 0.00 | 0.20 | 0.00 | 71 | 1014.4 |
| 20260906094547 | 26 | 129 | 0.0 | 1.6 | 0.00 | 0.20 | 0.00 | 71 | 1014.4 |
| 20260906094511 | 26 | 129 | 0.0 | 1.6 | 0.00 | 0.20 | 0.00 | 71 | 1014.4 |
| 20260906094406 | 26 | 133 | 0.0 | 0.0 | 0.00 | 0.20 | 0.00 | 71 | 1014.4 |
| 20260906094301 | 26 | 133 | 0.0 | 0.0 | 0.00 | 0.20 | 0.00 | 71 | 1014.4 |
| 20260906094205 | 26 | 133 | 0.0 | 0.0 | 0.00 | 0.20 | 0.00 | 71 | 1014.3 |
| 20260906094104 | 26 | 133 | 0.0 | 1.6 | 0.00 | 0.20 | 0.00 | 70 | 1014.4 |
| 20260906093959 | 26 | 133 | 0.0 | 3.2 | 0.00 | 0.20 | 0.00 | 71 | 1014.3 |
| 20260906093923 | 26 | 133 | 0.0 | 3.2 | 0.00 | 0.20 | 0.00 | 71 | 1014.3 |
| 20260906093757 | 26 | 133 | 0.0 | 3.2 | 0.00 | 0.20 | 0.00 | 71 | 1014.3 |
| 20260906093701 | 26 | 133 | 0.0 | 3.2 | 0.00 | 0.20 | 0.00 | 70 | 1014.3 |
| 20260906093556 | 26 | 133 | 0.0 | 3.2 | 0.00 | 0.20 | 0.00 | 70 | 1014.3 |
| 20260906093451 | 26 | 133 | 0.0 | 3.2 | 0.00 | 0.20 | 0.00 | 70 | 1014.3 |
| 20260906093359 | 26 | 133 | 0.0 | 3.2 | 0.00 | 0.20 | 0.00 | 71 | 1014.3 |
| 20260906093254 | 26 | 83 | 0.0 | 3.2 | 0.00 | 0.20 | 0.00 | 71 | 1014.3 |
| 20260906093157 | 26 | 92 | 0.0 | 3.2 | 0.00 | 0.20 | 0.00 | 71 | 1014.3 |
| 20260906093052 | 26 | 98 | 0.0 | 1.6 | 0.00 | 0.20 | 0.00 | 71 | 1014.3 |
| 20260906093011 | 26 | 115 | 0.0 | 1.6 | 0.00 | 0.20 | 0.00 | 71 | 1014.3 |
| 20260906092948 | 26 | 115 | 0.0 | 3.2 | 0.00 | 0.20 | 0.00 | 71 | 1014.3 |
| 20260906092851 | 26 | 97 | 0.0 | 3.2 | 0.00 | 0.20 | 0.00 | 71 | 1014.3 |
| 20260906092806 | 26 | 96 | 0.0 | 3.2 | 0.00 | 0.20 | 0.00 | 71 | 1014.3 |
| 20260906092714 | 26 | 96 | 0.0 | 3.2 | 0.00 | 0.20 | 0.00 | 72 | 1014.3 |
| 20260906092549 | 26 | 96 | 0.0 | 3.2 | 0.00 | 0.20 | 0.00 | 72 | 1014.3 |
| 20260906092504 | 26 | 96 | 0.0 | 3.2 | 0.00 | 0.20 | 0.00 | 72 | 1014.2 |
| 20260906092408 | 26 | 96 | 0.0 | 3.2 | 0.00 | 0.20 | 0.00 | 72 | 1014.2 |
| 20260906092300 | 26 | 96 | 0.0 | 3.2 | 0.00 | 0.20 | 0.00 | 72 | 1014.2 |
| 20260906092155 | 26 | 105 | 0.0 | 3.2 | 0.00 | 0.20 | 0.00 | 72 | 1014.2 |
| 20260906092119 | 26 | 105 | 0.0 | 3.2 | 0.00 | 0.20 | 0.00 | 72 | 1014.3 |
| 20260906091957 | 26 | 105 | 0.0 | 3.2 | 0.00 | 0.20 | 0.00 | 72 | 1014.3 |
| 20260906091901 | 26 | 105 | 0.0 | 3.2 | 0.00 | 0.20 | 0.00 | 72 | 1014.2 |
| 20260906091756 | 26 | 105 | 0.0 | 3.2 | 0.00 | 0.20 | 0.00 | 72 | 1014.2 |
| 20260906091651 | 26 | 105 | 0.0 | 3.2 | 0.00 | 0.20 | 0.00 | 72 | 1014.3 |
| 20260906091615 | 26 | 117 | 0.0 | 3.2 | 0.00 | 0.20 | 0.00 | 72 | 1014.2 |
| 20260906091543 | 26 | 117 | 0.0 | 3.2 | 0.00 | 0.20 | 0.00 | 72 | 1014.2 |
| 20260906091510 | 26 | 117 | 0.0 | 3.2 | 0.00 | 0.20 | 0.00 | 72 | 1014.3 |
| 20260906091413 | 26 | 118 | 0.0 | 3.2 | 0.00 | 0.20 | 0.00 | 72 | 1014.2 |
| 20260906091252 | 26 | 118 | 0.0 | 3.2 | 0.00 | 0.20 | 0.00 | 72 | 1014.3 |
| 20260906091216 | 26 | 118 | 0.0 | 3.2 | 0.00 | 0.20 | 0.00 | 72 | 1014.2 |
| 20260906091052 | 26 | 118 | 0.0 | 3.2 | 0.00 | 0.20 | 0.00 | 72 | 1014.2 |
| 20260906091006 | 26 | 118 | 0.0 | 3.2 | 0.00 | 0.20 | 0.00 | 72 | 1014.2 |
| 20260906090911 | 26 | 118 | 0.0 | 1.6 | 0.00 | 0.20 | 0.00 | 72 | 1014.1 |
| 20260906090803 | 26 | 153 | 0.0 | 1.6 | 0.00 | 0.20 | 0.00 | 72 | 1014.1 |
| 20260906090709 | 26 | 157 | 0.0 | 1.6 | 0.00 | 0.20 | 0.00 | 72 | 1014.1 |
| 20260906090623 | 26 | 157 | 0.0 | 1.6 | 0.00 | 0.20 | 0.00 | 72 | 1014.1 |
| 20260906090510 | 26 | 103 | 0.0 | 1.6 | 0.00 | 0.20 | 0.00 | 72 | 1014.1 |
| 20260906090404 | 26 | 134 | 0.0 | 1.6 | 0.00 | 0.20 | 0.00 | 72 | 1014.1 |
| 20260906090300 | 26 | 134 | 0.0 | 1.6 | 0.00 | 0.20 | 0.00 | 72 | 1014.1 |
| 20260906090151 | 26 | 134 | 0.0 | 1.6 | 0.00 | 0.20 | 0.00 | 72 | 1014.1 |
| 20260906090105 | 26 | 94 | 0.0 | 1.6 | 0.00 | 0.20 | 0.00 | 72 | 1014.0 |
| 20260906090014 | 26 | 94 | 0.0 | 1.6 | 0.00 | 0.20 | 0.00 | 73 | 1014.1 |
| 20260906085847 | 26 | 94 | 0.0 | 1.6 | 0.00 | 0.20 | 0.00 | 72 | 1014.1 |
| 20260906085806 | 26 | 94 | 0.0 | 3.2 | 0.00 | 0.20 | 0.00 | 73 | 1014.1 |
| 20260906085711 | 26 | 128 | 0.0 | 3.2 | 0.00 | 0.20 | 0.00 | 72 | 1014.1 |
| 20260906085605 | 26 | 129 | 0.0 | 3.2 | 0.00 | 0.20 | 0.00 | 73 | 1014.1 |
| 20260906085501 | 26 | 131 | 0.0 | 3.2 | 0.00 | 0.20 | 0.00 | 73 | 1014.1 |
| 20260906085404 | 26 | 66 | 0.0 | 3.2 | 0.00 | 0.20 | 0.00 | 73 | 1014.1 |
| 20260906085300 | 26 | 63 | 0.0 | 3.2 | 0.00 | 0.20 | 0.00 | 73 | 1014.1 |
| 20260906085155 | 26 | 63 | 0.0 | 3.2 | 0.00 | 0.20 | 0.00 | 73 | 1014.0 |
| 20260906085102 | 26 | 63 | 1.6 | 3.2 | 0.00 | 0.20 | 0.00 | 73 | 1014.0 |
| 20260906084957 | 26 | 63 | 1.6 | 3.2 | 0.00 | 0.20 | 0.00 | 73 | 1014.0 |
| 20260906084852 | 26 | 94 | 0.0 | 1.6 | 0.00 | 0.20 | 0.00 | 73 | 1014.0 |
| 20260906084756 | 26 | 86 | 0.0 | 1.6 | 0.00 | 0.20 | 0.00 | 73 | 1014.0 |
| 20260906084652 | 26 | 86 | 0.0 | 1.6 | 0.00 | 0.20 | 0.00 | 73 | 1014.0 |
| 20260906084616 | 26 | 86 | 0.0 | 1.6 | 0.00 | 0.20 | 0.00 | 73 | 1014.0 |
| 20260906084556 | 26 | 86 | 0.0 | 1.6 | 0.00 | 0.20 | 0.00 | 73 | 1014.0 |
| 20260906084455 | 26 | 86 | 0.0 | 1.6 | 0.00 | 0.20 | 0.00 | 73 | 1014.0 |
| 20260906084349 | 26 | 86 | 0.0 | 1.6 | 0.00 | 0.20 | 0.00 | 73 | 1014.0 |
| 20260906084314 | 26 | 86 | 0.0 | 1.6 | 0.00 | 0.20 | 0.00 | 72 | 1014.0 |
| 20260906084147 | 26 | 84 | 0.0 | 1.6 | 0.00 | 0.20 | 0.00 | 72 | 1014.0 |
| 20260906084112 | 26 | 84 | 0.0 | 1.6 | 0.00 | 0.20 | 0.00 | 72 | 1014.0 |
| 20260906084007 | 26 | 84 | 0.0 | 1.6 | 0.00 | 0.20 | 0.00 | 72 | 1014.0 |
| 20260906083901 | 26 | 84 | 0.0 | 3.2 | 0.00 | 0.20 | 0.00 | 72 | 1013.9 |
| 20260906083756 | 26 | 84 | 0.0 | 3.2 | 0.00 | 0.20 | 0.00 | 72 | 1014.0 |
| 20260906083704 | 26 | 84 | 0.0 | 3.2 | 0.00 | 0.20 | 0.00 | 72 | 1014.0 |
| 20260906083559 | 26 | 84 | 0.0 | 3.2 | 0.00 | 0.20 | 0.00 | 72 | 1014.0 |
| 20260906083454 | 26 | 84 | 0.0 | 3.2 | 0.00 | 0.20 | 0.00 | 72 | 1014.0 |
| 20260906083359 | 26 | 84 | 0.0 | 3.2 | 0.00 | 0.20 | 0.00 | 72 | 1014.0 |
| 20260906083253 | 26 | 84 | 0.0 | 3.2 | 0.00 | 0.20 | 0.00 | 72 | 1014.0 |
| 20260906083148 | 26 | 84 | 1.6 | 3.2 | 0.00 | 0.20 | 0.00 | 72 | 1014.1 |
| 20260906083056 | 26 | 84 | 0.0 | 3.2 | 0.00 | 0.20 | 0.00 | 72 | 1014.0 |
| 20260906083025 | 26 | 84 | 0.0 | 3.2 | 0.00 | 0.20 | 0.00 | 72 | 1014.0 |
| 20260906082953 | 26 | 51 | 0.0 | 1.6 | 0.00 | 0.20 | 0.00 | 72 | 1014.0 |
| 20260906082916 | 26 | 51 | 0.0 | 1.6 | 0.00 | 0.20 | 0.00 | 72 | 1014.0 |
| 20260906082810 | 26 | 51 | 0.0 | 1.6 | 0.00 | 0.20 | 0.00 | 72 | 1014.0 |
| 20260906082714 | 26 | 51 | 0.0 | 1.6 | 0.00 | 0.20 | 0.00 | 72 | 1014.1 |
| 20260906082548 | 26 | 51 | 0.0 | 1.6 | 0.00 | 0.20 | 0.00 | 72 | 1014.0 |
| 20260906082503 | 26 | 51 | 0.0 | 1.6 | 0.00 | 0.20 | 0.00 | 72 | 1014.0 |
| 20260906082408 | 26 | 50 | 0.0 | 3.2 | 0.00 | 0.20 | 0.00 | 72 | 1014.1 |
| 20260906082306 | 26 | 50 | 0.0 | 3.2 | 0.00 | 0.20 | 0.00 | 72 | 1014.0 |
| 20260906082201 | 26 | 49 | 0.0 | 3.2 | 0.00 | 0.20 | 0.00 | 72 | 1014.0 |
| 20260906082105 | 26 | 50 | 0.0 | 3.2 | 0.00 | 0.20 | 0.00 | 72 | 1014.0 |
| 20260906081959 | 26 | 66 | 0.0 | 3.2 | 0.00 | 0.20 | 0.00 | 72 | 1014.0 |
| 20260906081923 | 26 | 66 | 0.0 | 3.2 | 0.00 | 0.20 | 0.00 | 72 | 1014.0 |
| 20260906081757 | 26 | 66 | 1.6 | 3.2 | 0.00 | 0.20 | 0.00 | 72 | 1014.0 |
| 20260906081701 | 26 | 66 | 1.6 | 3.2 | 0.00 | 0.20 | 0.00 | 72 | 1014.1 |
| 20260906081600 | 26 | 66 | 1.6 | 3.2 | 0.00 | 0.20 | 0.00 | 72 | 1014.1 |
| 20260906081510 | 26 | 66 | 0.0 | 3.2 | 0.00 | 0.20 | 0.00 | 72 | 1014.0 |
| 20260906081455 | 26 | 66 | 0.0 | 3.2 | 0.00 | 0.20 | 0.00 | 72 | 1014.0 |
| 20260906081359 | 26 | 88 | 0.0 | 1.6 | 0.00 | 0.20 | 0.00 | 72 | 1014.0 |
| 20260906081254 | 26 | 88 | 0.0 | 1.6 | 0.00 | 0.20 | 0.00 | 71 | 1014.0 |
| 20260906081149 | 26 | 88 | 0.0 | 1.6 | 0.00 | 0.20 | 0.00 | 71 | 1014.0 |
| 20260906081112 | 26 | 88 | 0.0 | 1.6 | 0.00 | 0.20 | 0.00 | 71 | 1014.0 |
| 20260906081015 | 26 | 88 | 0.0 | 1.6 | 0.00 | 0.20 | 0.00 | 71 | 1014.0 |
| 20260906080849 | 26 | 88 | 0.0 | 1.6 | 0.00 | 0.20 | 0.00 | 71 | 1014.0 |
| 20260906080817 | 26 | 88 | 0.0 | 1.6 | 0.00 | 0.20 | 0.00 | 71 | 1014.0 |
| 20260906080651 | 27 | 88 | 0.0 | 1.6 | 0.00 | 0.20 | 0.00 | 71 | 1014.0 |
| 20260906080616 | 27 | 88 | 0.0 | 1.6 | 0.00 | 0.20 | 0.00 | 71 | 1014.0 |
| 20260906080450 | 27 | 88 | 0.0 | 1.6 | 0.00 | 0.20 | 0.00 | 71 | 1013.9 |
| 20260906080249 | 27 | 88 | 0.0 | 1.6 | 0.00 | 0.20 | 0.00 | 70 | 1013.9 |
| 20260906080153 | 27 | 88 | 0.0 | 1.6 | 0.00 | 0.20 | 0.00 | 70 | 1013.9 |
| 20260906080132 | 27 | 88 | 0.0 | 1.6 | 0.00 | 0.20 | 0.00 | 70 | 1013.9 |
| 20260906080036 | 26 | 88 | 0.0 | 1.6 | 0.00 | 0.20 | 0.00 | 70 | 1013.9 |
| 20260906075951 | 27 | 88 | 0.0 | 1.6 | 0.00 | 0.20 | 0.00 | 70 | 1014.0 |
| 20260906075913 | 27 | 88 | 0.0 | 1.6 | 0.00 | 0.20 | 0.00 | 70 | 1013.9 |
| 20260906075749 | 27 | 88 | 0.0 | 1.6 | 0.00 | 0.20 | 0.00 | 70 | 1013.9 |
| 20260906075703 | 27 | 88 | 0.0 | 1.6 | 0.00 | 0.20 | 0.00 | 70 | 1013.9 |
| 20260906075558 | 27 | 96 | 0.0 | 1.6 | 0.00 | 0.20 | 0.00 | 70 | 1013.9 |
| 20260906075502 | 27 | 96 | 0.0 | 1.6 | 0.00 | 0.20 | 0.00 | 70 | 1014.0 |
| 20260906075401 | 27 | 100 | 0.0 | 1.6 | 0.00 | 0.20 | 0.00 | 70 | 1013.9 |
| 20260906075256 | 27 | 75 | 0.0 | 1.6 | 0.00 | 0.20 | 0.00 | 70 | 1013.9 |
| 20260906075200 | 27 | 75 | 0.0 | 1.6 | 0.00 | 0.20 | 0.00 | 70 | 1013.9 |
| 20260906075055 | 27 | 75 | 0.0 | 1.6 | 0.00 | 0.20 | 0.00 | 70 | 1013.9 |
| 20260906074950 | 27 | 75 | 0.0 | 1.6 | 0.00 | 0.20 | 0.00 | 70 | 1013.9 |
| 20260906074914 | 27 | 75 | 0.0 | 1.6 | 0.00 | 0.20 | 0.00 | 70 | 1013.9 |
| 20260906074748 | 27 | 75 | 0.0 | 1.6 | 0.00 | 0.20 | 0.00 | 70 | 1013.9 |
| 20260906074656 | 27 | 75 | 0.0 | 1.6 | 0.00 | 0.20 | 0.00 | 70 | 1013.9 |
| 20260906074624 | 26 | 75 | 0.0 | 1.6 | 0.00 | 0.20 | 0.00 | 70 | 1013.9 |
| 20260906074551 | 27 | 83 | 0.0 | 1.6 | 0.00 | 0.20 | 0.00 | 70 | 1013.9 |
| 20260906074455 | 27 | 84 | 0.0 | 1.6 | 0.00 | 0.20 | 0.00 | 71 | 1013.9 |
| 20260906074359 | 27 | 84 | 0.0 | 1.6 | 0.00 | 0.20 | 0.00 | 70 | 1013.9 |
| 20260906074314 | 27 | 84 | 0.0 | 1.6 | 0.00 | 0.20 | 0.00 | 70 | 1013.9 |
| 20260906074157 | 27 | 84 | 0.0 | 1.6 | 0.00 | 0.20 | 0.00 | 70 | 1013.9 |
| 20260906074052 | 27 | 72 | 0.0 | 1.6 | 0.00 | 0.20 | 0.00 | 70 | 1013.9 |
| 20260906073951 | 27 | 72 | 0.0 | 1.6 | 0.00 | 0.20 | 0.00 | 70 | 1013.9 |
| 20260906073855 | 27 | 72 | 0.0 | 1.6 | 0.00 | 0.20 | 0.00 | 70 | 1014.0 |
| 20260906073750 | 27 | 72 | 0.0 | 1.6 | 0.00 | 0.20 | 0.00 | 70 | 1014.0 |
| 20260906073714 | 27 | 72 | 0.0 | 1.6 | 0.00 | 0.20 | 0.00 | 70 | 1014.0 |
| 20260906073549 | 27 | 72 | 0.0 | 1.6 | 0.00 | 0.20 | 0.00 | 70 | 1014.0 |
| 20260906073504 | 27 | 72 | 0.0 | 1.6 | 0.00 | 0.20 | 0.00 | 70 | 1014.0 |
| 20260906073407 | 27 | 72 | 0.0 | 1.6 | 0.00 | 0.20 | 0.00 | 70 | 1014.0 |
| 20260906073306 | 27 | 72 | 0.0 | 1.6 | 0.00 | 0.20 | 0.00 | 70 | 1014.0 |
| 20260906073201 | 27 | 72 | 0.0 | 1.6 | 0.00 | 0.20 | 0.00 | 70 | 1014.0 |
| 20260906073105 | 27 | 72 | 0.0 | 1.6 | 0.00 | 0.20 | 0.00 | 70 | 1014.0 |
| 20260906073045 | 26 | 72 | 0.0 | 1.6 | 0.00 | 0.20 | 0.00 | 70 | 1014.0 |
| 20260906073001 | 27 | 72 | 0.0 | 0.0 | 0.00 | 0.20 | 0.00 | 70 | 1014.0 |
| 20260906072855 | 27 | 110 | 0.0 | 0.0 | 0.00 | 0.20 | 0.00 | 70 | 1013.9 |
| 20260906072759 | 27 | 110 | 0.0 | 0.0 | 0.00 | 0.20 | 0.00 | 70 | 1014.0 |
| 20260906072654 | 27 | 110 | 0.0 | 0.0 | 0.00 | 0.20 | 0.00 | 70 | 1013.9 |
| 20260906072553 | 27 | 110 | 0.0 | 0.0 | 0.00 | 0.20 | 0.00 | 70 | 1013.9 |
| 20260906072457 | 27 | 110 | 0.0 | 0.0 | 0.00 | 0.20 | 0.00 | 70 | 1013.9 |
| 20260906072352 | 27 | 110 | 0.0 | 0.0 | 0.00 | 0.20 | 0.00 | 70 | 1013.9 |
| 20260906072247 | 27 | 110 | 0.0 | 0.0 | 0.00 | 0.20 | 0.00 | 69 | 1013.9 |
| 20260906072151 | 27 | 110 | 0.0 | 0.0 | 0.00 | 0.20 | 0.00 | 69 | 1013.9 |
| 20260906072105 | 27 | 110 | 0.0 | 0.0 | 0.00 | 0.20 | 0.00 | 69 | 1013.9 |
| 20260906072009 | 27 | 110 | 0.0 | 0.0 | 0.00 | 0.20 | 0.00 | 69 | 1013.9 |
| 20260906071927 | 27 | 110 | 0.0 | 0.0 | 0.00 | 0.20 | 0.00 | 69 | 1013.9 |
| 20260906071810 | 27 | 110 | 0.0 | 0.0 | 0.00 | 0.20 | 0.00 | 69 | 1013.9 |
| 20260906071705 | 27 | 110 | 0.0 | 0.0 | 0.00 | 0.20 | 0.00 | 69 | 1013.9 |
| 20260906071600 | 27 | 111 | 0.0 | 0.0 | 0.00 | 0.20 | 0.00 | 68 | 1013.9 |
| 20260906071505 | 27 | 110 | 0.0 | 0.0 | 0.00 | 0.20 | 0.00 | 68 | 1013.9 |
| 20260906071454 | 27 | 110 | 0.0 | 0.0 | 0.00 | 0.20 | 0.00 | 68 | 1013.9 |
| 20260906071358 | 27 | 110 | 0.0 | 0.0 | 0.00 | 0.20 | 0.00 | 68 | 1013.9 |
| 20260906071253 | 27 | 110 | 0.0 | 0.0 | 0.00 | 0.20 | 0.00 | 68 | 1013.8 |
| 20260906071152 | 27 | 110 | 0.0 | 0.0 | 0.00 | 0.20 | 0.00 | 68 | 1013.9 |
| 20260906071056 | 27 | 111 | 0.0 | 0.0 | 0.00 | 0.20 | 0.00 | 68 | 1013.9 |
| 20260906070951 | 27 | 110 | 0.0 | 0.0 | 0.00 | 0.20 | 0.00 | 68 | 1013.8 |
| 20260906070915 | 27 | 110 | 0.0 | 0.0 | 0.00 | 0.20 | 0.00 | 68 | 1013.9 |
| 20260906070750 | 27 | 110 | 0.0 | 0.0 | 0.00 | 0.20 | 0.00 | 68 | 1013.9 |
| 20260906070705 | 27 | 110 | 0.0 | 0.0 | 0.00 | 0.20 | 0.00 | 68 | 1013.9 |
| 20260906070609 | 27 | 111 | 0.0 | 0.0 | 0.00 | 0.20 | 0.00 | 67 | 1013.9 |
| 20260906070447 | 27 | 110 | 0.0 | 0.0 | 0.00 | 0.20 | 0.00 | 67 | 1013.9 |
| 20260906070411 | 27 | 110 | 0.0 | 0.0 | 0.00 | 0.20 | 0.00 | 67 | 1013.9 |
| 20260906070306 | 27 | 111 | 0.0 | 0.0 | 0.00 | 0.20 | 0.00 | 67 | 1014.0 |
| 20260906070230 | 27 | 111 | 0.0 | 0.0 | 0.00 | 0.20 | 0.00 | 67 | 1013.9 |
| 20260906070139 | 27 | 111 | 0.0 | 1.6 | 0.00 | 0.20 | 0.00 | 67 | 1013.9 |
| 20260906070115 | 27 | 111 | 0.0 | 1.6 | 0.00 | 0.20 | 0.00 | 68 | 1014.0 |
| 20260906070023 | 27 | 110 | 0.0 | 1.6 | 0.00 | 0.20 | 0.00 | 68 | 1014.0 |
| 20260906065925 | 27 | 110 | 0.0 | 1.6 | 0.00 | 0.20 | 0.00 | 68 | 1014.0 |
| 20260906065759 | 27 | 110 | 0.0 | 1.6 | 0.00 | 0.20 | 0.00 | 68 | 1014.0 |
| 20260906065657 | 27 | 111 | 0.0 | 1.6 | 0.00 | 0.20 | 0.00 | 68 | 1013.9 |
| 20260906065602 | 27 | 111 | 0.0 | 1.6 | 0.00 | 0.20 | 0.00 | 68 | 1014.0 |
| 20260906065456 | 27 | 114 | 0.0 | 1.6 | 0.00 | 0.20 | 0.00 | 68 | 1014.0 |
| 20260906065351 | 27 | 114 | 0.0 | 1.6 | 0.00 | 0.20 | 0.00 | 68 | 1013.9 |
| 20260906065255 | 27 | 114 | 0.0 | 1.6 | 0.00 | 0.20 | 0.00 | 68 | 1014.0 |
| 20260906065150 | 27 | 114 | 0.0 | 1.6 | 0.00 | 0.20 | 0.00 | 68 | 1014.0 |
| 20260906065114 | 27 | 114 | 0.0 | 1.6 | 0.00 | 0.20 | 0.00 | 68 | 1014.0 |
| 20260906064953 | 27 | 114 | 0.0 | 1.6 | 0.00 | 0.20 | 0.00 | 68 | 1014.0 |
| 20260906064849 | 27 | 114 | 0.0 | 1.6 | 0.00 | 0.20 | 0.00 | 68 | 1014.0 |
| 20260906064813 | 27 | 114 | 0.0 | 1.6 | 0.00 | 0.20 | 0.00 | 68 | 1014.1 |
| 20260906064708 | 27 | 114 | 0.0 | 1.6 | 0.00 | 0.20 | 0.00 | 68 | 1014.1 |
| 20260906064611 | 27 | 114 | 0.0 | 1.6 | 0.00 | 0.20 | 0.00 | 68 | 1014.1 |
| 20260906064552 | 27 | 114 | 0.0 | 1.6 | 0.00 | 0.20 | 0.00 | 68 | 1014.1 |
| 20260906064505 | 27 | 114 | 0.0 | 1.6 | 0.00 | 0.20 | 0.00 | 68 | 1014.1 |
| 20260906064400 | 27 | 114 | 0.0 | 1.6 | 0.00 | 0.20 | 0.00 | 68 | 1014.1 |
| 20260906064309 | 27 | 114 | 0.0 | 1.6 | 0.00 | 0.20 | 0.00 | 67 | 1014.1 |
| 20260906064203 | 27 | 114 | 0.0 | 1.6 | 0.00 | 0.20 | 0.00 | 67 | 1014.1 |
| 20260906064058 | 27 | 114 | 0.0 | 1.6 | 0.00 | 0.20 | 0.00 | 68 | 1014.1 |
| 20260906063954 | 27 | 114 | 0.0 | 1.6 | 0.00 | 0.20 | 0.00 | 67 | 1014.1 |
| 20260906063858 | 27 | 114 | 0.0 | 1.6 | 0.00 | 0.20 | 0.00 | 67 | 1014.1 |
| 20260906063813 | 27 | 114 | 0.0 | 1.6 | 0.00 | 0.20 | 0.00 | 67 | 1014.1 |
| 20260906063655 | 27 | 114 | 0.0 | 1.6 | 0.00 | 0.20 | 0.00 | 67 | 1014.2 |
| 20260906063554 | 27 | 114 | 0.0 | 1.6 | 0.00 | 0.20 | 0.00 | 67 | 1014.1 |
| 20260906063449 | 27 | 115 | 0.0 | 1.6 | 0.00 | 0.20 | 0.00 | 67 | 1014.2 |
| 20260906063354 | 27 | 115 | 0.0 | 1.6 | 0.00 | 0.20 | 0.00 | 67 | 1014.2 |
| 20260906063248 | 27 | 115 | 0.0 | 1.6 | 0.00 | 0.20 | 0.00 | 67 | 1014.2 |
| 20260906063213 | 27 | 115 | 0.0 | 1.6 | 0.00 | 0.20 | 0.00 | 67 | 1014.2 |
| 20260906063047 | 27 | 117 | 0.0 | 1.6 | 0.00 | 0.20 | 0.00 | 67 | 1014.2 |
| 20260906063021 | 27 | 117 | 0.0 | 1.6 | 0.00 | 0.20 | 0.00 | 67 | 1014.2 |
| 20260906063004 | 27 | 117 | 0.0 | 1.6 | 0.00 | 0.20 | 0.00 | 67 | 1014.2 |
| 20260906062910 | 27 | 117 | 0.0 | 1.6 | 0.00 | 0.20 | 0.00 | 67 | 1014.2 |
| 20260906062825 | 27 | 117 | 0.0 | 1.6 | 0.00 | 0.20 | 0.00 | 67 | 1014.2 |
| 20260906062708 | 27 | 117 | 0.0 | 1.6 | 0.00 | 0.20 | 0.00 | 67 | 1014.2 |
| 20260906062603 | 27 | 117 | 0.0 | 1.6 | 0.00 | 0.20 | 0.00 | 67 | 1014.2 |
| 20260906062527 | 27 | 117 | 0.0 | 1.6 | 0.00 | 0.20 | 0.00 | 67 | 1014.2 |
| 20260906062401 | 27 | 117 | 0.0 | 1.6 | 0.00 | 0.20 | 0.00 | 67 | 1014.2 |
| 20260906062256 | 27 | 117 | 0.0 | 1.6 | 0.00 | 0.20 | 0.00 | 67 | 1014.2 |
| 20260906062201 | 27 | 118 | 0.0 | 3.2 | 0.00 | 0.20 | 0.00 | 67 | 1014.1 |
| 20260906062059 | 28 | 117 | 0.0 | 3.2 | 0.00 | 0.20 | 0.00 | 67 | 1014.2 |
| 20260906061954 | 27 | 117 | 0.0 | 3.2 | 0.00 | 0.20 | 0.00 | 67 | 1014.2 |
| 20260906061919 | 27 | 117 | 0.0 | 3.2 | 0.00 | 0.20 | 0.00 | 67 | 1014.2 |
| 20260906061752 | 27 | 117 | 0.0 | 3.2 | 0.00 | 0.20 | 0.00 | 67 | 1014.2 |
| 20260906061656 | 27 | 117 | 0.0 | 3.2 | 0.00 | 0.20 | 0.00 | 67 | 1014.2 |
| 20260906061551 | 27 | 117 | 0.0 | 3.2 | 0.00 | 0.20 | 0.00 | 67 | 1014.2 |
| 20260906061510 | 27 | 103 | 0.0 | 3.2 | 0.00 | 0.20 | 0.00 | 67 | 1014.2 |
| 20260906061446 | 27 | 103 | 1.6 | 3.2 | 0.00 | 0.20 | 0.00 | 67 | 1014.2 |
| 20260906061414 | 27 | 96 | 0.0 | 3.2 | 0.00 | 0.20 | 0.00 | 68 | 1014.2 |
| 20260906061248 | 27 | 101 | 0.0 | 3.2 | 0.00 | 0.20 | 0.00 | 67 | 1014.2 |
| 20260906061152 | 27 | 101 | 0.0 | 3.2 | 0.00 | 0.20 | 0.00 | 68 | 1014.2 |
| 20260906061047 | 27 | 108 | 0.0 | 1.6 | 0.00 | 0.20 | 0.00 | 67 | 1014.2 |
| 20260906061011 | 27 | 108 | 0.0 | 1.6 | 0.00 | 0.20 | 0.00 | 67 | 1014.3 |
| 20260906060906 | 27 | 108 | 0.0 | 1.6 | 0.00 | 0.20 | 0.00 | 67 | 1014.3 |
| 20260906060801 | 27 | 108 | 0.0 | 1.6 | 0.00 | 0.20 | 0.00 | 67 | 1014.3 |
| 20260906060709 | 27 | 108 | 0.0 | 1.6 | 0.00 | 0.20 | 0.00 | 67 | 1014.3 |
| 20260906060603 | 27 | 108 | 0.0 | 1.6 | 0.00 | 0.20 | 0.00 | 67 | 1014.3 |
| 20260906060508 | 27 | 108 | 0.0 | 1.6 | 0.00 | 0.20 | 0.00 | 67 | 1014.3 |
| 20260906060402 | 27 | 108 | 0.0 | 1.6 | 0.00 | 0.20 | 0.00 | 67 | 1014.3 |
| 20260906060326 | 28 | 108 | 0.0 | 1.6 | 0.00 | 0.20 | 0.00 | 67 | 1014.3 |
| 20260906060200 | 28 | 108 | 0.0 | 1.6 | 0.00 | 0.20 | 0.00 | 67 | 1014.4 |
| 20260906060156 | 27 | 108 | 0.0 | 1.6 | 0.00 | 0.20 | 0.00 | 67 | 1014.4 |
| 20260906060106 | 28 | 108 | 0.0 | 1.6 | 0.00 | 0.20 | 0.00 | 67 | 1014.4 |
| 20260906055954 | 28 | 108 | 0.0 | 1.6 | 0.00 | 0.20 | 0.00 | 67 | 1014.4 |
| 20260906055852 | 28 | 108 | 0.0 | 1.6 | 0.00 | 0.20 | 0.00 | 67 | 1014.3 |
| 20260906055747 | 28 | 108 | 0.0 | 1.6 | 0.00 | 0.20 | 0.00 | 66 | 1014.4 |
| 20260906055651 | 28 | 108 | 0.0 | 1.6 | 0.00 | 0.20 | 0.00 | 66 | 1014.3 |
| 20260906055606 | 28 | 108 | 0.0 | 1.6 | 0.00 | 0.20 | 0.00 | 66 | 1014.3 |
| 20260906055510 | 28 | 108 | 0.0 | 1.6 | 0.00 | 0.20 | 0.00 | 66 | 1014.3 |
| 20260906055405 | 28 | 108 | 0.0 | 1.6 | 0.00 | 0.20 | 0.00 | 66 | 1014.3 |
| 20260906055329 | 28 | 108 | 0.0 | 1.6 | 0.00 | 0.20 | 0.00 | 66 | 1014.3 |
| 20260906055147 | 28 | 108 | 0.0 | 1.6 | 0.00 | 0.20 | 0.00 | 66 | 1014.3 |
| 20260906055101 | 28 | 108 | 0.0 | 1.6 | 0.00 | 0.20 | 0.00 | 66 | 1014.3 |
| 20260906055005 | 28 | 108 | 0.0 | 1.6 | 0.00 | 0.20 | 0.00 | 66 | 1014.4 |
| 20260906054900 | 28 | 108 | 0.0 | 1.6 | 0.00 | 0.20 | 0.00 | 66 | 1014.4 |
| 20260906054755 | 28 | 108 | 0.0 | 1.6 | 0.00 | 0.20 | 0.00 | 65 | 1014.4 |
| 20260906054659 | 28 | 108 | 0.0 | 1.6 | 0.00 | 0.20 | 0.00 | 65 | 1014.4 |
| 20260906054554 | 28 | 108 | 0.0 | 1.6 | 0.00 | 0.20 | 0.00 | 65 | 1014.4 |
| 20260906054513 | 28 | 108 | 0.0 | 1.6 | 0.00 | 0.20 | 0.00 | 65 | 1014.4 |
| 20260906054453 | 28 | 108 | 0.0 | 1.6 | 0.00 | 0.20 | 0.00 | 65 | 1014.4 |
| 20260906054357 | 28 | 108 | 0.0 | 1.6 | 0.00 | 0.20 | 0.00 | 65 | 1014.4 |
| 20260906054252 | 28 | 108 | 0.0 | 1.6 | 0.00 | 0.20 | 0.00 | 65 | 1014.4 |
| 20260906054147 | 28 | 108 | 0.0 | 1.6 | 0.00 | 0.20 | 0.00 | 65 | 1014.5 |
| 20260906054051 | 28 | 108 | 0.0 | 1.6 | 0.00 | 0.20 | 0.00 | 65 | 1014.5 |
| 20260906054006 | 28 | 108 | 0.0 | 1.6 | 0.00 | 0.20 | 0.00 | 65 | 1014.5 |
| 20260906053910 | 28 | 108 | 0.0 | 1.6 | 0.00 | 0.20 | 0.00 | 65 | 1014.4 |
| 20260906053809 | 28 | 108 | 0.0 | 1.6 | 0.00 | 0.20 | 0.00 | 65 | 1014.5 |
| 20260906053733 | 28 | 113 | 0.0 | 1.6 | 0.00 | 0.20 | 0.00 | 65 | 1014.5 |
| 20260906053547 | 28 | 113 | 0.0 | 1.6 | 0.00 | 0.20 | 0.00 | 65 | 1014.5 |
| 20260906053502 | 28 | 118 | 0.0 | 1.6 | 0.00 | 0.20 | 0.00 | 65 | 1014.5 |
| 20260906053406 | 28 | 117 | 0.0 | 1.6 | 0.00 | 0.20 | 0.00 | 65 | 1014.5 |
| 20260906053301 | 28 | 118 | 0.0 | 1.6 | 0.00 | 0.20 | 0.00 | 65 | 1014.5 |
| 20260906053156 | 28 | 119 | 0.0 | 1.6 | 0.00 | 0.20 | 0.00 | 64 | 1014.5 |
| 20260906053103 | 28 | 119 | 0.0 | 1.6 | 0.00 | 0.20 | 0.00 | 64 | 1014.5 |
| 20260906053029 | 28 | 119 | 0.0 | 1.6 | 0.00 | 0.20 | 0.00 | 64 | 1014.5 |
| 20260906052921 | 28 | 119 | 0.0 | 1.6 | 0.00 | 0.20 | 0.00 | 64 | 1014.5 |
| 20260906052804 | 28 | 119 | 0.0 | 3.2 | 0.00 | 0.20 | 0.00 | 64 | 1014.5 |
| 20260906052659 | 28 | 119 | 0.0 | 3.2 | 0.00 | 0.20 | 0.00 | 64 | 1014.5 |
| 20260906052554 | 28 | 119 | 0.0 | 3.2 | 0.00 | 0.20 | 0.00 | 64 | 1014.5 |
| 20260906052518 | 28 | 119 | 0.0 | 3.2 | 0.00 | 0.20 | 0.00 | 64 | 1014.5 |
| 20260906052352 | 28 | 119 | 0.0 | 3.2 | 0.00 | 0.20 | 0.00 | 64 | 1014.5 |
| 20260906052300 | 28 | 119 | 0.0 | 3.2 | 0.00 | 0.20 | 0.00 | 64 | 1014.4 |
| 20260906052155 | 28 | 122 | 0.0 | 3.2 | 0.00 | 0.20 | 0.00 | 64 | 1014.5 |
| 20260906052050 | 28 | 122 | 0.0 | 3.2 | 0.00 | 0.20 | 0.00 | 64 | 1014.5 |
| 20260906051955 | 28 | 122 | 1.6 | 3.2 | 0.00 | 0.20 | 0.00 | 64 | 1014.4 |
| 20260906051849 | 28 | 98 | 1.6 | 3.2 | 0.00 | 0.20 | 0.00 | 64 | 1014.4 |
| 20260906051804 | 28 | 103 | 1.6 | 1.6 | 0.00 | 0.20 | 0.00 | 64 | 1014.4 |
| 20260906051707 | 28 | 104 | 0.0 | 1.6 | 0.00 | 0.20 | 0.00 | 65 | 1014.4 |
| 20260906051606 | 28 | 127 | 0.0 | 1.6 | 0.00 | 0.20 | 0.00 | 64 | 1014.4 |
| 20260906051516 | 28 | 127 | 0.0 | 0.0 | 0.00 | 0.20 | 0.00 | 64 | 1014.4 |
| 20260906051501 | 28 | 127 | 0.0 | 0.0 | 0.00 | 0.20 | 0.00 | 64 | 1014.4 |
| 20260906051405 | 28 | 127 | 0.0 | 0.0 | 0.00 | 0.20 | 0.00 | 65 | 1014.5 |
| 20260906051300 | 28 | 127 | 0.0 | 0.0 | 0.00 | 0.20 | 0.00 | 65 | 1014.4 |
| 20260906051155 | 28 | 127 | 0.0 | 0.0 | 0.00 | 0.20 | 0.00 | 65 | 1014.4 |
| 20260906051059 | 28 | 127 | 0.0 | 0.0 | 0.00 | 0.20 | 0.00 | 65 | 1014.5 |
| 20260906051014 | 28 | 127 | 0.0 | 1.6 | 0.00 | 0.20 | 0.00 | 65 | 1014.5 |
| 20260906050901 | 28 | 140 | 0.0 | 1.6 | 0.00 | 0.20 | 0.00 | 65 | 1014.5 |
| 20260906050756 | 28 | 140 | 0.0 | 1.6 | 0.00 | 0.20 | 0.00 | 65 | 1014.5 |
| 20260906050603 | 28 | 140 | 0.0 | 1.6 | 0.00 | 0.20 | 0.00 | 65 | 1014.4 |
| 20260906050458 | 28 | 140 | 0.0 | 1.6 | 0.00 | 0.20 | 0.00 | 64 | 1014.4 |
| 20260906050422 | 28 | 140 | 0.0 | 1.6 | 0.00 | 0.20 | 0.00 | 64 | 1014.4 |
| 20260906050256 | 28 | 140 | 0.0 | 1.6 | 0.00 | 0.20 | 0.00 | 64 | 1014.4 |
| 20260906050220 | 28 | 140 | 0.0 | 1.6 | 0.00 | 0.20 | 0.00 | 64 | 1014.4 |
| 20260906050134 | 28 | 140 | 0.0 | 1.6 | 0.00 | 0.20 | 0.00 | 64 | 1014.4 |
| 20260906050109 | 28 | 140 | 0.0 | 1.6 | 0.00 | 0.20 | 0.00 | 64 | 1014.4 |
| 20260906045957 | 28 | 141 | 0.0 | 1.6 | 0.00 | 0.20 | 0.00 | 64 | 1014.3 |
| 20260906045851 | 28 | 141 | 0.0 | 3.2 | 0.00 | 0.20 | 0.20 | 64 | 1014.4 |
| 20260906045815 | 28 | 141 | 0.0 | 3.2 | 0.00 | 0.20 | 0.20 | 64 | 1014.4 |
| 20260906045651 | 28 | 110 | 0.0 | 4.8 | 0.00 | 0.20 | 0.20 | 64 | 1014.3 |
| 20260906045605 | 28 | 120 | 0.0 | 4.8 | 0.00 | 0.20 | 0.20 | 64 | 1014.4 |
| 20260906045500 | 28 | 120 | 0.0 | 4.8 | 0.00 | 0.20 | 0.20 | 64 | 1014.4 |
| 20260906045408 | 28 | 109 | 0.0 | 4.8 | 0.00 | 0.20 | 0.20 | 64 | 1014.4 |
| 20260906045311 | 28 | 110 | 0.0 | 4.8 | 0.00 | 0.20 | 0.20 | 64 | 1014.3 |
| 20260906045206 | 28 | 109 | 0.0 | 4.8 | 0.00 | 0.20 | 0.20 | 64 | 1014.4 |
| 20260906045130 | 28 | 110 | 1.6 | 4.8 | 0.00 | 0.20 | 0.20 | 64 | 1014.4 |
| 20260906045004 | 28 | 110 | 1.6 | 4.8 | 0.00 | 0.20 | 0.20 | 64 | 1014.4 |
| 20260906044859 | 28 | 127 | 0.0 | 3.2 | 0.00 | 0.20 | 0.20 | 64 | 1014.4 |
| 20260906044754 | 28 | 127 | 0.0 | 3.2 | 0.00 | 0.20 | 0.20 | 64 | 1014.4 |
| 20260906044702 | 28 | 108 | 0.0 | 1.6 | 0.00 | 0.20 | 0.20 | 64 | 1014.4 |
| 20260906044626 | 28 | 108 | 0.0 | 1.6 | 0.00 | 0.20 | 0.20 | 64 | 1014.4 |
| 20260906044546 | 28 | 108 | 0.0 | 1.6 | 0.00 | 0.20 | 0.20 | 64 | 1014.4 |
| 20260906044500 | 28 | 108 | 0.0 | 1.6 | 0.00 | 0.20 | 0.20 | 64 | 1014.4 |
| 20260906044355 | 28 | 108 | 0.0 | 1.6 | 0.00 | 0.20 | 0.20 | 64 | 1014.5 |
| 20260906044319 | 28 | 108 | 0.0 | 1.6 | 0.00 | 0.20 | 0.20 | 65 | 1014.5 |
| 20260906044152 | 28 | 108 | 0.0 | 1.6 | 0.00 | 0.20 | 0.20 | 64 | 1014.4 |
| 20260906044048 | 28 | 108 | 0.0 | 1.6 | 0.00 | 0.20 | 0.20 | 65 | 1014.5 |
| 20260906044012 | 28 | 92 | 0.0 | 3.2 | 0.00 | 0.20 | 0.20 | 64 | 1014.5 |
| 20260906043850 | 28 | 95 | 0.0 | 3.2 | 0.00 | 0.20 | 0.20 | 65 | 1014.5 |
| 20260906043813 | 28 | 95 | 0.0 | 3.2 | 0.00 | 0.20 | 0.20 | 65 | 1014.5 |
| 20260906043647 | 28 | 95 | 0.0 | 3.2 | 0.00 | 0.20 | 0.20 | 65 | 1014.5 |
| 20260906043551 | 28 | 95 | 0.0 | 3.2 | 0.00 | 0.20 | 0.20 | 65 | 1014.5 |
| 20260906043505 | 28 | 95 | 0.0 | 3.2 | 0.00 | 0.20 | 0.20 | 65 | 1014.5 |
| 20260906043410 | 28 | 95 | 0.0 | 3.2 | 0.00 | 0.20 | 0.20 | 65 | 1014.4 |
| 20260906043305 | 28 | 95 | 0.0 | 3.2 | 0.00 | 0.20 | 0.20 | 65 | 1014.4 |
| 20260906043159 | 29 | 95 | 0.0 | 3.2 | 0.00 | 0.20 | 0.20 | 65 | 1014.4 |
| 20260906043106 | 29 | 86 | 0.0 | 1.6 | 0.00 | 0.20 | 0.20 | 65 | 1014.4 |
| 20260906043013 | 29 | 91 | 0.0 | 1.6 | 0.00 | 0.20 | 0.20 | 65 | 1014.4 |
| 20260906042905 | 29 | 90 | 0.0 | 1.6 | 0.00 | 0.20 | 0.20 | 65 | 1014.4 |
| 20260906042831 | 29 | 86 | 0.0 | 1.6 | 0.00 | 0.20 | 0.20 | 65 | 1014.4 |
| 20260906042723 | 29 | 110 | 0.0 | 1.6 | 0.00 | 0.20 | 0.20 | 65 | 1014.4 |
| 20260906042608 | 29 | 125 | 0.0 | 1.6 | 0.00 | 0.20 | 0.20 | 65 | 1014.4 |
| 20260906042522 | 29 | 125 | 0.0 | 1.6 | 0.00 | 0.20 | 0.20 | 65 | 1014.4 |
| 20260906042355 | 29 | 127 | 0.0 | 3.2 | 0.00 | 0.20 | 0.20 | 65 | 1014.4 |
| 20260906042306 | 29 | 118 | 0.0 | 3.2 | 0.00 | 0.20 | 0.20 | 65 | 1014.4 |
| 20260906042158 | 29 | 129 | 0.0 | 3.2 | 0.00 | 0.20 | 0.20 | 65 | 1014.3 |
| 20260906042102 | 29 | 129 | 0.0 | 3.2 | 0.00 | 0.20 | 0.20 | 65 | 1014.3 |
| 20260906041956 | 29 | 118 | 0.0 | 3.2 | 0.00 | 0.20 | 0.20 | 65 | 1014.3 |
| 20260906041851 | 29 | 121 | 0.0 | 3.2 | 0.00 | 0.20 | 0.20 | 65 | 1014.3 |
| 20260906041755 | 29 | 121 | 0.0 | 3.2 | 0.00 | 0.20 | 0.20 | 65 | 1014.3 |
| 20260906041710 | 29 | 121 | 0.0 | 3.2 | 0.00 | 0.20 | 0.20 | 64 | 1014.3 |
| 20260906041552 | 29 | 115 | 1.6 | 3.2 | 0.00 | 0.20 | 0.20 | 65 | 1014.3 |
| 20260906041527 | 28 | 115 | 0.0 | 3.2 | 0.00 | 0.20 | 0.20 | 64 | 1014.3 |
| 20260906041451 | 29 | 115 | 0.0 | 3.2 | 0.00 | 0.20 | 0.20 | 64 | 1014.3 |
| 20260906041346 | 29 | 109 | 0.0 | 3.2 | 0.00 | 0.20 | 0.20 | 64 | 1014.3 |
| 20260906041310 | 29 | 109 | 0.0 | 3.2 | 0.00 | 0.20 | 0.20 | 64 | 1014.3 |
| 20260906041213 | 29 | 139 | 1.6 | 3.2 | 0.00 | 0.20 | 0.20 | 64 | 1014.3 |
| 20260906041048 | 29 | 130 | 0.0 | 3.2 | 0.00 | 0.20 | 0.20 | 64 | 1014.3 |
| 20260906041011 | 29 | 134 | 0.0 | 3.2 | 0.00 | 0.20 | 0.20 | 64 | 1014.3 |
| 20260906040906 | 29 | 113 | 0.0 | 3.2 | 0.00 | 0.20 | 0.20 | 64 | 1014.3 |
| 20260906040830 | 29 | 112 | 0.0 | 3.2 | 0.00 | 0.20 | 0.20 | 64 | 1014.3 |
| 20260906040707 | 29 | 112 | 0.0 | 3.2 | 0.00 | 0.20 | 0.20 | 64 | 1014.3 |
| 20260906040631 | 29 | 115 | 0.0 | 3.2 | 0.00 | 0.20 | 0.20 | 64 | 1014.3 |
| 20260906040505 | 29 | 100 | 0.0 | 3.2 | 0.00 | 0.20 | 0.20 | 64 | 1014.3 |
| 20260906040400 | 29 | 100 | 1.6 | 3.2 | 0.00 | 0.20 | 0.20 | 64 | 1014.3 |
| 20260906040304 | 29 | 88 | 1.6 | 3.2 | 0.00 | 0.20 | 0.20 | 64 | 1014.2 |
| 20260906040159 | 29 | 105 | 0.0 | 3.2 | 0.00 | 0.20 | 0.20 | 64 | 1014.3 |
| 20260906040116 | 29 | 105 | 0.0 | 3.2 | 0.00 | 0.20 | 0.20 | 64 | 1014.2 |
| 20260906040039 | 29 | 119 | 0.0 | 3.2 | 0.00 | 0.20 | 0.20 | 64 | 1014.2 |
| 20260906040000 | 29 | 146 | 0.0 | 3.2 | 0.00 | 0.20 | 0.20 | 64 | 1014.2 |
| 20260906035922 | 29 | 115 | 0.0 | 3.2 | 0.00 | 0.20 | 0.20 | 64 | 1014.2 |
| 20260906035756 | 29 | 130 | 0.0 | 3.2 | 0.00 | 0.20 | 0.20 | 64 | 1014.2 |
| 20260906035720 | 29 | 145 | 1.6 | 3.2 | 0.00 | 0.20 | 0.20 | 64 | 1014.2 |
| 20260906035614 | 29 | 113 | 0.0 | 3.2 | 0.00 | 0.20 | 0.20 | 64 | 1014.2 |
| 20260906035457 | 29 | 113 | 0.0 | 3.2 | 0.00 | 0.20 | 0.20 | 64 | 1014.2 |
| 20260906035352 | 29 | 124 | 0.0 | 3.2 | 0.00 | 0.20 | 0.20 | 63 | 1014.2 |
| 20260906035247 | 29 | 124 | 1.6 | 3.2 | 0.00 | 0.20 | 0.20 | 63 | 1014.2 |
| 20260906035155 | 29 | 78 | 1.6 | 3.2 | 0.00 | 0.20 | 0.20 | 63 | 1014.2 |
| 20260906035050 | 29 | 115 | 0.0 | 1.6 | 0.00 | 0.20 | 0.20 | 63 | 1014.1 |
| 20260906035014 | 29 | 122 | 0.0 | 1.6 | 0.00 | 0.20 | 0.20 | 63 | 1014.1 |
| 20260906034909 | 29 | 94 | 0.0 | 3.2 | 0.00 | 0.20 | 0.20 | 63 | 1014.1 |
| 20260906034832 | 30 | 108 | 0.0 | 3.2 | 0.00 | 0.20 | 0.20 | 63 | 1014.1 |
| 20260906034646 | 30 | 112 | 0.0 | 3.2 | 0.00 | 0.20 | 0.20 | 63 | 1014.1 |
| 20260906034626 | 29 | 112 | 0.0 | 3.2 | 0.00 | 0.20 | 0.20 | 63 | 1014.1 |
| 20260906034601 | 30 | 112 | 0.0 | 3.2 | 0.00 | 0.20 | 0.20 | 63 | 1014.1 |
| 20260906034505 | 30 | 112 | 0.0 | 3.2 | 0.00 | 0.20 | 0.20 | 63 | 1014.0 |
| 20260906034404 | 30 | 112 | 0.0 | 3.2 | 0.00 | 0.20 | 0.20 | 63 | 1014.0 |
| 20260906034328 | 30 | 112 | 0.0 | 6.4 | 0.00 | 0.20 | 0.20 | 63 | 1014.0 |
| 20260906034201 | 30 | 94 | 1.6 | 6.4 | 0.00 | 0.20 | 0.20 | 63 | 1014.0 |
| 20260906034057 | 30 | 94 | 1.6 | 6.4 | 0.00 | 0.20 | 0.20 | 63 | 1014.0 |
| 20260906033957 | 30 | 143 | 0.0 | 6.4 | 0.00 | 0.20 | 0.20 | 63 | 1014.0 |
| 20260906033912 | 30 | 129 | 1.6 | 6.4 | 0.00 | 0.20 | 0.20 | 63 | 1014.0 |
| 20260906033755 | 30 | 133 | 1.6 | 6.4 | 0.00 | 0.20 | 0.20 | 63 | 1014.0 |
| 20260906033710 | 30 | 134 | 1.6 | 6.4 | 0.00 | 0.20 | 0.20 | 63 | 1014.0 |
| 20260906033617 | 30 | 134 | 1.6 | 6.4 | 0.00 | 0.20 | 0.20 | 63 | 1014.0 |
| 20260906033520 | 30 | 105 | 1.6 | 4.8 | 0.00 | 0.20 | 0.20 | 63 | 1013.9 |
| 20260906033354 | 30 | 125 | 1.6 | 4.8 | 0.00 | 0.20 | 0.20 | 63 | 1014.0 |
| 20260906033249 | 30 | 116 | 1.6 | 4.8 | 0.00 | 0.20 | 0.20 | 63 | 1013.9 |
| 20260906033213 | 30 | 119 | 1.6 | 4.8 | 0.00 | 0.20 | 0.20 | 63 | 1013.9 |
| 20260906033116 | 29 | 122 | 1.6 | 4.8 | 0.00 | 0.20 | 0.20 | 63 | 1013.9 |
| 20260906033047 | 30 | 98 | 1.6 | 4.8 | 0.00 | 0.20 | 0.20 | 63 | 1013.9 |
| 20260906033012 | 30 | 108 | 1.6 | 4.8 | 0.00 | 0.20 | 0.20 | 63 | 1013.9 |
| 20260906032914 | 30 | 114 | 1.6 | 3.2 | 0.00 | 0.20 | 0.20 | 63 | 1013.9 |
| 20260906032748 | 30 | 110 | 1.6 | 3.2 | 0.00 | 0.20 | 0.20 | 63 | 1013.9 |
| 20260906032647 | 30 | 110 | 1.6 | 3.2 | 0.00 | 0.20 | 0.20 | 63 | 1013.9 |
| 20260906032610 | 30 | 123 | 1.6 | 3.2 | 0.00 | 0.20 | 0.20 | 63 | 1013.9 |
| 20260906032513 | 30 | 113 | 1.6 | 3.2 | 0.00 | 0.20 | 0.20 | 64 | 1013.9 |
| 20260906032348 | 30 | 101 | 1.6 | 3.2 | 0.00 | 0.20 | 0.20 | 63 | 1013.9 |
| 20260906032306 | 30 | 98 | 0.0 | 3.2 | 0.00 | 0.20 | 0.20 | 63 | 1014.0 |
| 20260906032207 | 30 | 105 | 0.0 | 3.2 | 0.00 | 0.20 | 0.20 | 64 | 1013.9 |
| 20260906032102 | 30 | 105 | 0.0 | 3.2 | 0.00 | 0.20 | 0.20 | 64 | 1013.9 |
| 20260906032001 | 30 | 110 | 0.0 | 3.2 | 0.00 | 0.20 | 0.20 | 64 | 1013.9 |
| 20260906031905 | 30 | 110 | 0.0 | 4.8 | 0.00 | 0.20 | 0.20 | 64 | 1013.9 |
| 20260906031800 | 30 | 110 | 0.0 | 4.8 | 0.00 | 0.20 | 0.20 | 64 | 1013.9 |
| 20260906031655 | 30 | 110 | 0.0 | 4.8 | 0.00 | 0.20 | 0.20 | 63 | 1013.9 |
| 20260906031625 | 30 | 110 | 0.0 | 4.8 | 0.00 | 0.20 | 0.20 | 64 | 1013.9 |
| 20260906031549 | 30 | 110 | 1.6 | 4.8 | 0.00 | 0.20 | 0.20 | 64 | 1013.9 |
| 20260906031453 | 30 | 110 | 1.6 | 4.8 | 0.00 | 0.20 | 0.20 | 63 | 1013.9 |
| 20260906031408 | 30 | 118 | 0.0 | 4.8 | 0.00 | 0.20 | 0.20 | 64 | 1013.9 |
| 20260906031250 | 30 | 101 | 0.0 | 4.8 | 0.00 | 0.20 | 0.20 | 63 | 1013.9 |
| 20260906031158 | 30 | 91 | 0.0 | 4.8 | 0.00 | 0.20 | 0.20 | 64 | 1013.9 |
| 20260906031053 | 30 | 91 | 1.6 | 4.8 | 0.00 | 0.20 | 0.20 | 63 | 1013.9 |
| 20260906030948 | 30 | 98 | 0.0 | 1.6 | 0.00 | 0.20 | 0.20 | 63 | 1013.8 |
| 20260906030912 | 30 | 101 | 0.0 | 1.6 | 0.00 | 0.20 | 0.20 | 63 | 1013.8 |
| 20260906030805 | 30 | 101 | 0.0 | 1.6 | 0.00 | 0.20 | 0.20 | 63 | 1013.8 |
| 20260906030709 | 30 | 108 | 0.0 | 1.6 | 0.00 | 0.20 | 0.20 | 63 | 1013.8 |
| 20260906030624 | 30 | 108 | 0.0 | 1.6 | 0.00 | 0.20 | 0.20 | 63 | 1013.8 |
| 20260906030507 | 30 | 108 | 0.0 | 1.6 | 0.00 | 0.20 | 0.20 | 63 | 1013.8 |
| 20260906030435 | 30 | 108 | 0.0 | 1.6 | 0.00 | 0.20 | 0.20 | 63 | 1013.8 |
| 20260906030250 | 30 | 96 | 0.0 | 1.6 | 0.00 | 0.20 | 0.20 | 63 | 1013.8 |
| 20260906030204 | 30 | 96 | 0.0 | 1.6 | 0.00 | 0.20 | 0.20 | 63 | 1013.8 |
| 20260906030119 | 30 | 91 | 0.0 | 1.6 | 0.00 | 0.20 | 0.20 | 63 | 1013.7 |
| 20260906030037 | 30 | 89 | 0.0 | 1.6 | 0.00 | 0.20 | 0.20 | 63 | 1013.7 |
| 20260906025958 | 30 | 89 | 0.0 | 1.6 | 0.00 | 0.20 | 0.20 | 63 | 1013.7 |
| 20260906025852 | 30 | 92 | 0.0 | 1.6 | 0.00 | 0.20 | 0.20 | 63 | 1013.7 |
| 20260906025756 | 30 | 81 | 0.0 | 1.6 | 0.00 | 0.20 | 0.20 | 62 | 1013.7 |
| 20260906025655 | 30 | 79 | 0.0 | 1.6 | 0.00 | 0.20 | 0.20 | 62 | 1013.6 |
| 20260906025550 | 30 | 79 | 1.6 | 1.6 | 0.00 | 0.20 | 0.20 | 62 | 1013.6 |
| 20260906025454 | 30 | 115 | 0.0 | 1.6 | 0.00 | 0.20 | 0.20 | 62 | 1013.6 |
| 20260906025349 | 30 | 117 | 0.0 | 1.6 | 0.00 | 0.20 | 0.20 | 62 | 1013.6 |
| 20260906025313 | 30 | 117 | 0.0 | 1.6 | 0.00 | 0.20 | 0.20 | 62 | 1013.5 |
| 20260906025148 | 30 | 120 | 0.0 | 1.6 | 0.00 | 0.20 | 0.20 | 62 | 1013.5 |
| 20260906025047 | 30 | 120 | 0.0 | 1.6 | 0.00 | 0.20 | 0.20 | 61 | 1013.5 |
| 20260906025011 | 30 | 120 | 0.0 | 1.6 | 0.00 | 0.20 | 0.20 | 61 | 1013.6 |
| 20260906024846 | 30 | 118 | 0.0 | 1.6 | 0.00 | 0.20 | 0.20 | 61 | 1013.5 |
| 20260906024801 | 30 | 118 | 0.0 | 1.6 | 0.00 | 0.20 | 0.20 | 61 | 1013.5 |
| 20260906024705 | 30 | 118 | 0.0 | 1.6 | 0.00 | 0.20 | 0.20 | 61 | 1013.5 |
| 20260906024600 | 30 | 108 | 0.0 | 3.2 | 0.00 | 0.20 | 0.20 | 61 | 1013.5 |
| 20260906024523 | 30 | 97 | 0.0 | 3.2 | 0.00 | 0.20 | 0.20 | 61 | 1013.5 |
| 20260906024455 | 30 | 96 | 0.0 | 3.2 | 0.00 | 0.20 | 0.20 | 61 | 1013.5 |
| 20260906024403 | 30 | 107 | 0.0 | 3.2 | 0.00 | 0.20 | 0.20 | 61 | 1013.5 |
| 20260906024258 | 30 | 107 | 0.0 | 3.2 | 0.00 | 0.20 | 0.20 | 61 | 1013.4 |
| 20260906024222 | 31 | 107 | 0.0 | 3.2 | 0.00 | 0.20 | 0.20 | 61 | 1013.5 |
| 20260906024056 | 31 | 107 | 0.0 | 3.2 | 0.00 | 0.20 | 0.20 | 61 | 1013.4 |
| 20260906023951 | 31 | 110 | 0.0 | 3.2 | 0.00 | 0.20 | 0.20 | 61 | 1013.4 |
| 20260906023915 | 31 | 110 | 1.6 | 4.8 | 0.00 | 0.20 | 0.20 | 61 | 1013.4 |
| 20260906023750 | 31 | 109 | 1.6 | 4.8 | 0.00 | 0.20 | 0.20 | 61 | 1013.3 |
| 20260906023648 | 31 | 122 | 0.0 | 4.8 | 0.00 | 0.20 | 0.20 | 61 | 1013.4 |
| 20260906023613 | 31 | 122 | 0.0 | 4.8 | 0.00 | 0.20 | 0.20 | 60 | 1013.3 |
| 20260906023448 | 31 | 106 | 0.0 | 4.8 | 0.00 | 0.20 | 0.20 | 60 | 1013.3 |
| 20260906023402 | 31 | 106 | 0.0 | 4.8 | 0.00 | 0.20 | 0.20 | 60 | 1013.3 |
| 20260906023307 | 31 | 101 | 1.6 | 4.8 | 0.00 | 0.20 | 0.20 | 60 | 1013.3 |
| 20260906023222 | 31 | 101 | 1.6 | 4.8 | 0.00 | 0.20 | 0.20 | 60 | 1013.3 |
| 20260906023104 | 31 | 89 | 1.6 | 4.8 | 0.00 | 0.20 | 0.20 | 60 | 1013.3 |
| 20260906023043 | 30 | 89 | 0.0 | 3.2 | 0.00 | 0.20 | 0.20 | 60 | 1013.3 |
| 20260906023001 | 31 | 88 | 0.0 | 3.2 | 0.00 | 0.20 | 0.20 | 60 | 1013.3 |
| 20260906022909 | 31 | 89 | 1.6 | 3.2 | 0.00 | 0.20 | 0.20 | 60 | 1013.2 |
| 20260906022823 | 31 | 89 | 1.6 | 3.2 | 0.00 | 0.20 | 0.20 | 60 | 1013.3 |
| 20260906022726 | 31 | 89 | 1.6 | 3.2 | 0.00 | 0.20 | 0.20 | 60 | 1013.2 |
| 20260906022600 | 31 | 146 | 1.6 | 3.2 | 0.00 | 0.20 | 0.20 | 60 | 1013.3 |
| 20260906022455 | 31 | 146 | 1.6 | 3.2 | 0.00 | 0.20 | 0.20 | 59 | 1013.2 |
| 20260906022359 | 31 | 116 | 0.0 | 1.6 | 0.00 | 0.20 | 0.20 | 59 | 1013.2 |
| 20260906022254 | 31 | 117 | 0.0 | 1.6 | 0.00 | 0.20 | 0.20 | 59 | 1013.2 |
| 20260906022152 | 31 | 103 | 0.0 | 1.6 | 0.00 | 0.20 | 0.20 | 59 | 1013.2 |
| 20260906022056 | 31 | 84 | 0.0 | 1.6 | 0.00 | 0.20 | 0.20 | 59 | 1013.2 |
| 20260906022012 | 31 | 84 | 0.0 | 1.6 | 0.00 | 0.20 | 0.20 | 59 | 1013.2 |
| 20260906021854 | 31 | 91 | 0.0 | 1.6 | 0.00 | 0.20 | 0.20 | 59 | 1013.2 |
| 20260906021749 | 31 | 97 | 0.0 | 1.6 | 0.00 | 0.20 | 0.20 | 59 | 1013.2 |
| 20260906021713 | 31 | 97 | 0.0 | 1.6 | 0.00 | 0.20 | 0.20 | 59 | 1013.2 |
| 20260906021549 | 31 | 97 | 0.0 | 1.6 | 0.00 | 0.20 | 0.20 | 58 | 1013.1 |
| 20260906021523 | 31 | 97 | 0.0 | 1.6 | 0.00 | 0.20 | 0.20 | 58 | 1013.1 |
| 20260906021504 | 31 | 97 | 0.0 | 1.6 | 0.00 | 0.20 | 0.20 | 58 | 1013.1 |
| 20260906021411 | 31 | 97 | 0.0 | 1.6 | 0.00 | 0.20 | 0.20 | 58 | 1013.2 |
| 20260906021334 | 31 | 97 | 0.0 | 1.6 | 0.00 | 0.20 | 0.20 | 58 | 1013.1 |
| 20260906021209 | 31 | 97 | 0.0 | 1.6 | 0.00 | 0.20 | 0.20 | 58 | 1013.2 |
| 20260906021112 | 31 | 97 | 0.0 | 1.6 | 0.00 | 0.20 | 0.20 | 58 | 1013.2 |
| 20260906020946 | 31 | 89 | 0.0 | 3.2 | 0.00 | 0.20 | 0.20 | 58 | 1013.1 |
| 20260906020901 | 31 | 90 | 0.0 | 3.2 | 0.00 | 0.20 | 0.20 | 58 | 1013.1 |
| 20260906020806 | 31 | 90 | 0.0 | 3.2 | 0.00 | 0.20 | 0.20 | 58 | 1013.1 |
| 20260906020701 | 31 | 90 | 0.0 | 3.2 | 0.00 | 0.20 | 0.20 | 57 | 1013.1 |
| 20260906020559 | 31 | 90 | 0.0 | 3.2 | 0.00 | 0.20 | 0.20 | 57 | 1013.0 |
| 20260906020503 | 31 | 90 | 0.0 | 3.2 | 0.00 | 0.20 | 0.20 | 57 | 1013.0 |
| 20260906020358 | 31 | 90 | 0.0 | 3.2 | 0.00 | 0.20 | 0.20 | 57 | 1013.0 |
| 20260906020253 | 31 | 99 | 1.6 | 4.8 | 0.00 | 0.20 | 0.20 | 57 | 1013.0 |
| 20260906020133 | 31 | 99 | 1.6 | 4.8 | 0.00 | 0.20 | 0.20 | 57 | 1013.1 |
| 20260906020100 | 31 | 93 | 0.0 | 4.8 | 0.00 | 0.20 | 0.20 | 57 | 1013.0 |
| 20260906015955 | 31 | 96 | 1.6 | 4.8 | 0.00 | 0.20 | 0.20 | 57 | 1013.0 |
| 20260906015848 | 31 | 79 | 1.6 | 4.8 | 0.00 | 0.20 | 0.20 | 57 | 1012.9 |
| 20260906015812 | 31 | 79 | 1.6 | 4.8 | 0.00 | 0.20 | 0.20 | 57 | 1012.9 |
| 20260906015707 | 31 | 75 | 1.6 | 4.8 | 0.00 | 0.20 | 0.20 | 57 | 1012.9 |
| 20260906015632 | 31 | 96 | 1.6 | 4.8 | 0.00 | 0.20 | 0.20 | 57 | 1012.9 |
| 20260906015506 | 31 | 79 | 1.6 | 4.8 | 0.00 | 0.20 | 0.20 | 57 | 1012.9 |
| 20260906015400 | 31 | 58 | 0.0 | 4.8 | 0.00 | 0.20 | 0.20 | 57 | 1012.8 |
| 20260906015255 | 31 | 104 | 0.0 | 4.8 | 0.05 | 0.20 | 0.20 | 57 | 1012.8 |
| 20260906015203 | 31 | 104 | 1.6 | 4.8 | 0.10 | 0.20 | 0.20 | 57 | 1012.9 |
| 20260906015058 | 31 | 104 | 1.6 | 4.8 | 0.10 | 0.20 | 0.20 | 57 | 1012.8 |
| 20260906014953 | 32 | 110 | 0.0 | 4.8 | 0.10 | 0.20 | 0.20 | 57 | 1012.8 |
| 20260906014857 | 32 | 71 | 0.0 | 4.8 | 0.10 | 0.20 | 0.20 | 57 | 1012.8 |
| 20260906014752 | 32 | 71 | 1.6 | 4.8 | 0.10 | 0.20 | 0.20 | 57 | 1012.8 |
| 20260906014647 | 32 | 94 | 0.0 | 3.2 | 0.10 | 0.20 | 0.20 | 57 | 1012.8 |
| 20260906014555 | 31 | 91 | 0.0 | 4.8 | 0.10 | 0.20 | 0.20 | 57 | 1012.8 |
| 20260906014526 | 31 | 95 | 0.0 | 4.8 | 0.10 | 0.20 | 0.20 | 57 | 1012.8 |
| 20260906014450 | 32 | 88 | 0.0 | 6.4 | 0.10 | 0.20 | 0.20 | 57 | 1012.8 |
| 20260906014415 | 32 | 101 | 1.6 | 6.4 | 0.10 | 0.20 | 0.20 | 57 | 1012.8 |
| 20260906014309 | 32 | 99 | 1.6 | 6.4 | 0.10 | 0.20 | 0.20 | 57 | 1012.8 |
| 20260906014232 | 32 | 98 | 1.6 | 6.4 | 0.10 | 0.20 | 0.20 | 57 | 1012.7 |
| 20260906014046 | 32 | 82 | 1.6 | 6.4 | 0.10 | 0.20 | 0.20 | 57 | 1012.7 |
| 20260906014001 | 32 | 71 | 0.0 | 6.4 | 0.10 | 0.20 | 0.20 | 57 | 1012.7 |
| 20260906013905 | 32 | 120 | 0.0 | 6.4 | 0.10 | 0.20 | 0.20 | 57 | 1012.8 |
| 20260906013802 | 32 | 102 | 1.6 | 6.4 | 0.13 | 0.20 | 0.20 | 57 | 1012.7 |
| 20260906013706 | 32 | 60 | 3.2 | 6.4 | 0.13 | 0.20 | 0.20 | 57 | 1012.7 |
| 20260906013601 | 32 | 118 | 1.6 | 6.4 | 0.15 | 0.20 | 0.20 | 57 | 1012.7 |
| 20260906013456 | 32 | 103 | 0.0 | 1.6 | 0.20 | 0.20 | 0.20 | 57 | 1012.7 |
| 20260906013419 | 32 | 56 | 0.0 | 1.6 | 0.20 | 0.20 | 0.20 | 57 | 1012.7 |
| 20260906013322 | 32 | 92 | 0.0 | 6.4 | 0.20 | 0.20 | 0.20 | 57 | 1012.7 |
| 20260906013216 | 32 | 92 | 0.0 | 6.4 | 0.20 | 0.20 | 0.20 | 57 | 1012.6 |
| 20260906013059 | 32 | 92 | 0.0 | 6.4 | 0.20 | 0.20 | 0.20 | 57 | 1012.7 |
| 20260906013034 | 31 | 92 | 0.0 | 6.4 | 0.20 | 0.20 | 0.20 | 57 | 1012.7 |
| 20260906012959 | 32 | 110 | 0.0 | 6.4 | 0.20 | 0.20 | 0.20 | 57 | 1012.7 |
| 20260906012853 | 32 | 110 | 0.0 | 6.4 | 0.20 | 0.20 | 0.20 | 57 | 1012.7 |
| 20260906012757 | 32 | 110 | 0.0 | 6.4 | 0.20 | 0.20 | 0.20 | 57 | 1012.6 |
| 20260906012652 | 32 | 94 | 0.0 | 6.4 | 0.20 | 0.20 | 0.20 | 57 | 1012.5 |
| 20260906012547 | 32 | 94 | 1.6 | 6.4 | 0.20 | 0.20 | 0.20 | 57 | 1012.6 |
| 20260906012451 | 32 | 120 | 3.2 | 6.4 | 0.20 | 0.20 | 0.20 | 57 | 1012.6 |
| 20260906012346 | 32 | 92 | 3.2 | 6.4 | 0.20 | 0.20 | 0.20 | 56 | 1012.6 |
| 20260906012314 | 32 | 80 | 1.6 | 6.4 | 0.20 | 0.20 | 0.20 | 56 | 1012.6 |
| 20260906012149 | 32 | 103 | 0.0 | 3.2 | 0.20 | 0.20 | 0.20 | 57 | 1012.6 |
| 20260906012104 | 32 | 103 | 1.6 | 3.2 | 0.20 | 0.20 | 0.20 | 56 | 1012.6 |
| 20260906012008 | 32 | 105 | 1.6 | 3.2 | 0.20 | 0.20 | 0.20 | 56 | 1012.6 |
| 20260906011902 | 32 | 75 | 1.6 | 3.2 | 0.20 | 0.20 | 0.20 | 56 | 1012.6 |
| 20260906011806 | 32 | 108 | 1.6 | 3.2 | 0.20 | 0.20 | 0.20 | 56 | 1012.6 |
| 20260906011701 | 32 | 98 | 1.6 | 3.2 | 0.20 | 0.20 | 0.20 | 56 | 1012.6 |
| 20260906011623 | 32 | 49 | 1.6 | 3.2 | 0.20 | 0.20 | 0.20 | 56 | 1012.6 |
| 20260906011600 | 32 | 48 | 1.6 | 3.2 | 0.20 | 0.20 | 0.20 | 56 | 1012.6 |
| 20260906011504 | 32 | 84 | 1.6 | 3.2 | 0.20 | 0.20 | 0.20 | 56 | 1012.6 |
| 20260906011359 | 32 | 84 | 1.6 | 3.2 | 0.20 | 0.20 | 0.20 | 56 | 1012.6 |
| 20260906011254 | 32 | 119 | 1.6 | 3.2 | 0.20 | 0.20 | 0.20 | 56 | 1012.6 |
| 20260906011218 | 32 | 102 | 1.6 | 3.2 | 0.20 | 0.20 | 0.20 | 57 | 1012.6 |
| 20260906011052 | 32 | 94 | 3.2 | 3.2 | 0.20 | 0.20 | 0.20 | 56 | 1012.6 |
| 20260906010946 | 32 | 80 | 3.2 | 3.2 | 0.20 | 0.20 | 0.20 | 56 | 1012.6 |
| 20260906010854 | 32 | 103 | 1.6 | 3.2 | 0.20 | 0.20 | 0.20 | 56 | 1012.6 |
| 20260906010749 | 32 | 111 | 0.0 | 3.2 | 0.20 | 0.20 | 0.20 | 56 | 1012.6 |
| 20260906010654 | 32 | 85 | 0.0 | 3.2 | 0.20 | 0.20 | 0.20 | 56 | 1012.6 |
| 20260906010548 | 32 | 95 | 0.0 | 3.2 | 0.20 | 0.20 | 0.20 | 56 | 1012.6 |
| 20260906010503 | 32 | 95 | 0.0 | 3.2 | 0.20 | 0.20 | 0.20 | 56 | 1012.6 |
| 20260906010346 | 32 | 95 | 0.0 | 3.2 | 0.20 | 0.20 | 0.20 | 56 | 1012.6 |
| 20260906010301 | 32 | 95 | 0.0 | 3.2 | 0.20 | 0.20 | 0.20 | 55 | 1012.6 |
| 20260906010205 | 32 | 95 | 0.0 | 3.2 | 0.20 | 0.20 | 0.20 | 56 | 1012.5 |
| 20260906010135 | 32 | 98 | 0.0 | 3.2 | 0.20 | 0.20 | 0.20 | 55 | 1012.5 |
| 20260906010115 | 32 | 98 | 0.0 | 3.2 | 0.20 | 0.20 | 0.20 | 55 | 1012.5 |
| 20260906010025 | 32 | 86 | 0.0 | 3.2 | 0.20 | 0.20 | 0.20 | 55 | 1012.5 |
| 20260906005927 | 32 | 86 | 0.0 | 3.2 | 0.20 | 0.20 | 0.20 | 55 | 1012.5 |
| 20260906005801 | 32 | 86 | 0.0 | 3.2 | 0.20 | 0.20 | 0.20 | 55 | 1012.5 |
| 20260906005656 | 32 | 86 | 0.0 | 6.4 | 0.20 | 0.20 | 0.20 | 55 | 1012.4 |
| 20260906005600 | 32 | 56 | 0.0 | 6.4 | 0.20 | 0.20 | 0.20 | 55 | 1012.5 |
| 20260906005455 | 32 | 56 | 0.0 | 6.4 | 0.20 | 0.20 | 0.20 | 55 | 1012.5 |
| 20260906005354 | 32 | 56 | 0.0 | 6.4 | 0.18 | 0.18 | 0.18 | 55 | 1012.5 |
| 20260906005258 | 32 | 56 | 0.0 | 6.4 | 0.13 | 0.13 | 0.13 | 55 | 1012.5 |
| 20260906005152 | 32 | 62 | 0.0 | 6.4 | 0.10 | 0.10 | 0.10 | 55 | 1012.5 |
| 20260906005056 | 32 | 90 | 0.0 | 6.4 | 0.10 | 0.10 | 0.10 | 55 | 1012.5 |
| 20260906004951 | 32 | 65 | 1.6 | 6.4 | 0.10 | 0.10 | 0.10 | 54 | 1012.5 |
| 20260906004846 | 32 | 60 | 1.6 | 6.4 | 0.10 | 0.10 | 0.10 | 54 | 1012.5 |
| 20260906004810 | 32 | 63 | 1.6 | 4.8 | 0.10 | 0.10 | 0.10 | 54 | 1012.4 |
| 20260906004713 | 32 | 63 | 1.6 | 4.8 | 0.10 | 0.10 | 0.10 | 54 | 1012.5 |
| 20260906004552 | 32 | 50 | 1.6 | 4.8 | 0.10 | 0.10 | 0.10 | 54 | 1012.5 |
| 20260906004527 | 32 | 30 | 0.0 | 4.8 | 0.10 | 0.10 | 0.10 | 54 | 1012.5 |
| 20260906004447 | 33 | 96 | 1.6 | 4.8 | 0.10 | 0.10 | 0.10 | 54 | 1012.5 |
| 20260906004411 | 33 | 96 | 0.0 | 4.8 | 0.10 | 0.10 | 0.10 | 54 | 1012.4 |
| 20260906004246 | 33 | 73 | 0.0 | 4.8 | 0.10 | 0.10 | 0.10 | 54 | 1012.4 |
| 20260906004201 | 33 | 79 | 0.0 | 4.8 | 0.10 | 0.10 | 0.10 | 54 | 1012.4 |
| 20260906004105 | 33 | 79 | 0.0 | 6.4 | 0.10 | 0.10 | 0.10 | 54 | 1012.4 |
| 20260906004000 | 33 | 92 | 1.6 | 6.4 | 0.10 | 0.10 | 0.10 | 54 | 1012.4 |
| 20260906003859 | 33 | 92 | 3.2 | 6.4 | 0.10 | 0.10 | 0.10 | 54 | 1012.4 |
| 20260906003803 | 33 | 76 | 1.6 | 6.4 | 0.08 | 0.08 | 0.08 | 54 | 1012.4 |
| 20260906003658 | 33 | 76 | 0.0 | 6.4 | 0.05 | 0.05 | 0.05 | 54 | 1012.4 |
| 20260906003553 | 33 | 65 | 0.0 | 6.4 | 0.05 | 0.05 | 0.05 | 54 | 1012.4 |
| 20260906003448 | 33 | 51 | 1.6 | 6.4 | 0.00 | 0.00 | 0.00 | 54 | 1012.4 |
| 20260906003352 | 33 | 94 | 3.2 | 6.4 | 0.00 | 0.00 | 0.00 | 53 | 1012.4 |
| 20260906003251 | 33 | 96 | 1.6 | 6.4 | 0.00 | 0.00 | 0.00 | 53 | 1012.4 |
| 20260906003156 | 33 | 72 | 0.0 | 6.4 | 0.00 | 0.00 | 0.00 | 53 | 1012.4 |
| 20260906003140 | 33 | 83 | 0.0 | 6.4 | 0.00 | 0.00 | 0.00 | 54 | 1012.4 |
| 20260906003050 | 33 | 83 | 1.6 | 6.4 | 0.00 | 0.00 | 0.00 | 53 | 1012.4 |
| 20260906003015 | 33 | 83 | 3.2 | 6.4 | 0.00 | 0.00 | 0.00 | 53 | 1012.5 |
| 20260906002909 | 33 | 79 | 3.2 | 6.4 | 0.00 | 0.00 | 0.00 | 53 | 1012.5 |
| 20260906002804 | 33 | 98 | 1.6 | 6.4 | 0.00 | 0.00 | 0.00 | 53 | 1012.5 |
| 20260906002659 | 33 | 80 | 1.6 | 6.4 | 0.00 | 0.00 | 0.00 | 53 | 1012.5 |
| 20260906002548 | 33 | 58 | 1.6 | 4.8 | 0.00 | 0.00 | 0.00 | 52 | 1012.5 |
| 20260906002501 | 33 | 58 | 1.6 | 4.8 | 0.00 | 0.00 | 0.00 | 52 | 1012.5 |
| 20260906002357 | 33 | 97 | 1.6 | 4.8 | 0.00 | 0.00 | 0.00 | 52 | 1012.5 |
| 20260906002301 | 33 | 98 | 0.0 | 3.2 | 0.00 | 0.00 | 0.00 | 52 | 1012.5 |
| 20260906002156 | 33 | 79 | 0.0 | 1.6 | 0.00 | 0.00 | 0.00 | 52 | 1012.5 |
| 20260906002051 | 33 | 79 | 0.0 | 1.6 | 0.00 | 0.00 | 0.00 | 51 | 1012.5 |
| 20260906001955 | 33 | 79 | 0.0 | 3.2 | 0.00 | 0.00 | 0.00 | 52 | 1012.5 |
| 20260906001854 | 33 | 55 | 0.0 | 3.2 | 0.00 | 0.00 | 0.00 | 51 | 1012.5 |
| 20260906001748 | 34 | 55 | 0.0 | 3.2 | 0.00 | 0.00 | 0.00 | 51 | 1012.4 |
| 20260906001652 | 34 | 55 | 0.0 | 3.2 | 0.00 | 0.00 | 0.00 | 51 | 1012.5 |
| 20260906001625 | 33 | 55 | 0.0 | 3.2 | 0.00 | 0.00 | 0.00 | 51 | 1012.5 |
| 20260906001548 | 34 | 55 | 0.0 | 3.2 | 0.00 | 0.00 | 0.00 | 51 | 1012.5 |
| 20260906001512 | 34 | 55 | 0.0 | 3.2 | 0.00 | 0.00 | 0.00 | 51 | 1012.5 |
| 20260906001345 | 34 | 55 | 0.0 | 3.2 | 0.00 | 0.00 | 0.00 | 50 | 1012.5 |
| 20260906001310 | 34 | 55 | 0.0 | 3.2 | 0.00 | 0.00 | 0.00 | 50 | 1012.4 |
| 20260906001149 | 34 | 55 | 1.6 | 3.2 | 0.00 | 0.00 | 0.00 | 50 | 1012.5 |
| 20260906001103 | 34 | 56 | 1.6 | 3.2 | 0.00 | 0.00 | 0.00 | 50 | 1012.5 |
| 20260906001007 | 34 | 79 | 0.0 | 3.2 | 0.00 | 0.00 | 0.00 | 50 | 1012.5 |
| 20260906000902 | 34 | 75 | 1.6 | 3.2 | 0.00 | 0.00 | 0.00 | 50 | 1012.5 |
| 20260906000826 | 34 | 75 | 1.6 | 3.2 | 0.00 | 0.00 | 0.00 | 49 | 1012.5 |
| 20260906000701 | 34 | 94 | 0.0 | 4.8 | 0.00 | 0.00 | 0.00 | 50 | 1012.5 |
| 20260906000555 | 34 | 94 | 0.0 | 4.8 | 0.00 | 0.00 | 0.00 | 50 | 1012.5 |
| 20260906000504 | 35 | 94 | 0.0 | 6.4 | 0.00 | 0.00 | 0.00 | 49 | 1012.5 |
| 20260906000359 | 35 | 68 | 0.0 | 6.4 | 0.00 | 0.00 | 0.00 | 49 | 1012.4 |
| 20260906000256 | 35 | 101 | 0.0 | 6.4 | 0.00 | 0.00 | 0.00 | 49 | 1012.4 |
| 20260906000158 | 35 | 109 | 0.0 | 6.4 | 0.00 | 0.00 | 0.00 | 49 | 1012.4 |
| 20260906000134 | 35 | 108 | 0.0 | 6.4 | 0.00 | 0.00 | 0.00 | 49 | 1012.4 |
| 20260906000037 | 34 | 108 | 0.0 | 6.4 | 0.00 | 0.00 | 0.00 | 49 | 1012.4 |
| 20260905235951 | 35 | 108 | 1.6 | 6.4 | 0.00 | 0.00 | 0.00 | 48 | 1012.5 |
| 20260905235913 | 35 | 104 | 1.6 | 6.4 | 0.00 | 0.00 | 0.00 | 48 | 1012.5 |
| 20260905235808 | 35 | 97 | 3.2 | 6.4 | 0.00 | 0.00 | 0.00 | 48 | 1012.5 |
| 20260905235654 | 35 | 50 | 3.2 | 6.4 | 0.00 | 0.00 | 0.00 | 48 | 1012.5 |
| 20260905235609 | 35 | 102 | 0.0 | 8.0 | 0.00 | 0.00 | 0.00 | 48 | 1012.5 |
| 20260905235452 | 35 | 120 | 1.6 | 8.0 | 0.00 | 0.00 | 0.00 | 48 | 1012.4 |
| 20260905235347 | 35 | 135 | 3.2 | 8.0 | 0.00 | 0.00 | 0.00 | 47 | 1012.4 |
| 20260905235311 | 35 | 89 | 3.2 | 8.0 | 0.00 | 0.00 | 0.00 | 47 | 1012.4 |
| 20260905235147 | 35 | 155 | 3.2 | 8.0 | 0.00 | 0.00 | 0.00 | 47 | 1012.4 |
| 20260905235100 | 35 | 97 | 3.2 | 8.0 | 0.00 | 0.00 | 0.00 | 47 | 1012.4 |
| 20260905235005 | 35 | 70 | 4.8 | 8.0 | 0.00 | 0.00 | 0.00 | 47 | 1012.4 |
| 20260905234903 | 35 | 62 | 3.2 | 8.0 | 0.00 | 0.00 | 0.00 | 46 | 1012.4 |
| 20260905234827 | 36 | 69 | 1.6 | 8.0 | 0.00 | 0.00 | 0.00 | 47 | 1012.4 |
| 20260905234701 | 36 | 59 | 1.6 | 6.4 | 0.00 | 0.00 | 0.00 | 47 | 1012.4 |
| 20260905234624 | 35 | 101 | 0.0 | 6.4 | 0.00 | 0.00 | 0.00 | 46 | 1012.4 |
| 20260905234556 | 36 | 110 | 1.6 | 6.4 | 0.00 | 0.00 | 0.00 | 46 | 1012.4 |
| 20260905234501 | 36 | 163 | 0.0 | 6.4 | 0.00 | 0.00 | 0.00 | 46 | 1012.4 |
| 20260905234355 | 36 | 120 | 1.6 | 6.4 | 0.00 | 0.00 | 0.00 | 46 | 1012.4 |
| 20260905234250 | 36 | 138 | 1.6 | 6.4 | 0.00 | 0.00 | 0.00 | 45 | 1012.4 |
| 20260905234218 | 36 | 64 | 1.6 | 6.4 | 0.00 | 0.00 | 0.00 | 46 | 1012.4 |
| 20260905234052 | 36 | 94 | 1.6 | 6.4 | 0.00 | 0.00 | 0.00 | 46 | 1012.3 |
| 20260905233957 | 36 | 70 | 1.6 | 6.4 | 0.00 | 0.00 | 0.00 | 45 | 1012.3 |
| 20260905233851 | 36 | 127 | 0.0 | 6.4 | 0.00 | 0.00 | 0.00 | 46 | 1012.3 |
| 20260905233805 | 36 | 91 | 0.0 | 6.4 | 0.00 | 0.00 | 0.00 | 46 | 1012.3 |
| 20260905233709 | 36 | 91 | 0.0 | 6.4 | 0.00 | 0.00 | 0.00 | 45 | 1012.3 |
| 20260905233604 | 36 | 100 | 1.6 | 6.4 | 0.00 | 0.00 | 0.00 | 45 | 1012.3 |
| 20260905233513 | 36 | 99 | 1.6 | 6.4 | 0.00 | 0.00 | 0.00 | 45 | 1012.3 |
| 20260905233407 | 36 | 115 | 0.0 | 3.2 | 0.00 | 0.00 | 0.00 | 45 | 1012.3 |
| 20260905233302 | 36 | 101 | 0.0 | 3.2 | 0.00 | 0.00 | 0.00 | 45 | 1012.3 |
| 20260905233226 | 36 | 91 | 0.0 | 4.8 | 0.00 | 0.00 | 0.00 | 45 | 1012.3 |
| 20260905233132 | 36 | 100 | 0.0 | 4.8 | 0.00 | 0.00 | 0.00 | 45 | 1012.3 |
| 20260905233120 | 36 | 100 | 0.0 | 4.8 | 0.00 | 0.00 | 0.00 | 45 | 1012.3 |
| 20260905233004 | 36 | 100 | 1.6 | 4.8 | 0.00 | 0.00 | 0.00 | 45 | 1012.3 |
| 20260905232858 | 36 | 121 | 1.6 | 4.8 | 0.00 | 0.00 | 0.00 | 45 | 1012.3 |
| 20260905232822 | 36 | 146 | 1.6 | 4.8 | 0.00 | 0.00 | 0.00 | 44 | 1012.3 |
| 20260905232700 | 36 | 117 | 1.6 | 4.8 | 0.00 | 0.00 | 0.00 | 44 | 1012.3 |
| 20260905232554 | 36 | 128 | 1.6 | 4.8 | 0.00 | 0.00 | 0.00 | 45 | 1012.3 |
| 20260905232518 | 36 | 131 | 1.6 | 4.8 | 0.00 | 0.00 | 0.00 | 45 | 1012.3 |
| 20260905232403 | 36 | 93 | 0.0 | 4.8 | 0.00 | 0.00 | 0.00 | 45 | 1012.3 |
| 20260905232256 | 36 | 100 | 0.0 | 4.8 | 0.00 | 0.00 | 0.00 | 45 | 1012.3 |
| 20260905232151 | 36 | 100 | 0.0 | 4.8 | 0.00 | 0.00 | 0.00 | 45 | 1012.3 |
| 20260905232115 | 36 | 100 | 1.6 | 4.8 | 0.00 | 0.00 | 0.00 | 45 | 1012.2 |
| 20260905231949 | 36 | 99 | 1.6 | 6.4 | 0.00 | 0.00 | 0.00 | 45 | 1012.2 |
| 20260905231847 | 36 | 135 | 0.0 | 8.0 | 0.00 | 0.00 | 0.00 | 45 | 1012.2 |
| 20260905231811 | 36 | 135 | 1.6 | 8.0 | 0.00 | 0.00 | 0.00 | 45 | 1012.2 |
| 20260905231714 | 36 | 136 | 3.2 | 8.0 | 0.00 | 0.00 | 0.00 | 45 | 1012.2 |
| 20260905231639 | 36 | 49 | 1.6 | 8.0 | 0.00 | 0.00 | 0.00 | 45 | 1012.2 |
| 20260905231548 | 36 | 58 | 1.6 | 8.0 | 0.00 | 0.00 | 0.00 | 45 | 1012.2 |
| 20260905231512 | 36 | 120 | 0.0 | 8.0 | 0.00 | 0.00 | 0.00 | 45 | 1012.3 |
| 20260905231405 | 36 | 139 | 1.6 | 8.0 | 0.00 | 0.00 | 0.00 | 44 | 1012.2 |
| 20260905231308 | 36 | 68 | 1.6 | 8.0 | 0.00 | 0.00 | 0.00 | 44 | 1012.2 |
| 20260905231203 | 36 | 99 | 3.2 | 8.0 | 0.00 | 0.00 | 0.00 | 44 | 1012.2 |
| 20260905231103 | 36 | 65 | 4.8 | 8.0 | 0.00 | 0.00 | 0.00 | 44 | 1012.3 |
| 20260905231007 | 37 | 117 | 1.6 | 8.0 | 0.00 | 0.00 | 0.00 | 44 | 1012.3 |
| 20260905230922 | 37 | 49 | 0.0 | 4.8 | 0.00 | 0.00 | 0.00 | 45 | 1012.3 |
| 20260905230805 | 37 | 49 | 0.0 | 8.0 | 0.00 | 0.00 | 0.00 | 44 | 1012.3 |
| 20260905230700 | 37 | 84 | 0.0 | 8.0 | 0.00 | 0.00 | 0.00 | 44 | 1012.3 |
| 20260905230624 | 37 | 116 | 0.0 | 8.0 | 0.00 | 0.00 | 0.00 | 44 | 1012.3 |
| 20260905230458 | 37 | 125 | 1.6 | 8.0 | 0.00 | 0.00 | 0.00 | 44 | 1012.3 |
| 20260905230353 | 36 | 127 | 1.6 | 8.0 | 0.00 | 0.00 | 0.00 | 44 | 1012.3 |
| 20260905230301 | 36 | 136 | 0.0 | 8.0 | 0.00 | 0.00 | 0.00 | 44 | 1012.2 |
| 20260905230156 | 36 | 121 | 1.6 | 11.3 | 0.00 | 0.00 | 0.00 | 44 | 1012.2 |
| 20260905230111 | 36 | 63 | 3.2 | 11.3 | 0.00 | 0.00 | 0.00 | 44 | 1012.2 |
| 20260905230032 | 36 | 91 | 3.2 | 11.3 | 0.00 | 0.00 | 0.00 | 44 | 1012.2 |
| 20260905225950 | 37 | 75 | 3.2 | 11.3 | 0.00 | 0.00 | 0.00 | 44 | 1012.2 |
| 20260905225913 | 37 | 49 | 3.2 | 11.3 | 0.00 | 0.00 | 0.00 | 44 | 1012.2 |
| 20260905225747 | 36 | 73 | 1.6 | 11.3 | 0.00 | 0.00 | 0.00 | 44 | 1012.2 |
| 20260905225710 | 36 | 96 | 1.6 | 12.9 | 0.00 | 0.00 | 0.00 | 44 | 1012.2 |
| 20260905225548 | 36 | 96 | 3.2 | 12.9 | 0.00 | 0.00 | 0.00 | 44 | 1012.2 |
| 20260905225512 | 36 | 155 | 4.8 | 12.9 | 0.00 | 0.00 | 0.00 | 44 | 1012.2 |
| 20260905225347 | 37 | 108 | 4.8 | 12.9 | 0.00 | 0.00 | 0.00 | 43 | 1012.2 |
| 20260905225305 | 37 | 57 | 3.2 | 12.9 | 0.00 | 0.00 | 0.00 | 44 | 1012.2 |
| 20260905225206 | 37 | 36 | 1.6 | 12.9 | 0.00 | 0.00 | 0.00 | 43 | 1012.3 |
| 20260905225100 | 37 | 110 | 3.2 | 12.9 | 0.00 | 0.00 | 0.00 | 43 | 1012.2 |
| 20260905225004 | 37 | 88 | 4.8 | 12.9 | 0.00 | 0.00 | 0.00 | 43 | 1012.2 |
| 20260905224859 | 37 | 90 | 6.4 | 12.9 | 0.00 | 0.00 | 0.00 | 43 | 1012.3 |
| 20260905224758 | 37 | 131 | 4.8 | 12.9 | 0.00 | 0.00 | 0.00 | 43 | 1012.2 |
| 20260905224702 | 37 | 82 | 4.8 | 9.7 | 0.00 | 0.00 | 0.00 | 43 | 1012.2 |
| 20260905224557 | 37 | 147 | 3.2 | 8.0 | 0.00 | 0.00 | 0.00 | 43 | 1012.2 |
| 20260905224523 | 37 | 98 | 1.6 | 8.0 | 0.00 | 0.00 | 0.00 | 43 | 1012.2 |
| 20260905224452 | 37 | 61 | 1.6 | 8.0 | 0.00 | 0.00 | 0.00 | 44 | 1012.2 |
| 20260905224357 | 37 | 120 | 3.2 | 8.0 | 0.00 | 0.00 | 0.00 | 43 | 1012.2 |
| 20260905224311 | 37 | 84 | 4.8 | 8.0 | 0.00 | 0.00 | 0.00 | 43 | 1012.2 |
| 20260905224235 | 37 | 108 | 3.2 | 8.0 | 0.00 | 0.00 | 0.00 | 43 | 1012.2 |
| 20260905224053 | 37 | 45 | 1.6 | 12.9 | 0.00 | 0.00 | 0.00 | 43 | 1012.2 |
| 20260905223948 | 37 | 39 | 0.0 | 12.9 | 0.00 | 0.00 | 0.00 | 44 | 1012.2 |
| 20260905223853 | 37 | 103 | 0.0 | 12.9 | 0.00 | 0.00 | 0.00 | 44 | 1012.2 |
| 20260905223747 | 37 | 77 | 1.6 | 12.9 | 0.00 | 0.00 | 0.00 | 44 | 1012.2 |
| 20260905223701 | 37 | 77 | 1.6 | 12.9 | 0.00 | 0.00 | 0.00 | 43 | 1012.2 |
| 20260905223605 | 37 | 58 | 3.2 | 12.9 | 0.00 | 0.00 | 0.00 | 43 | 1012.2 |
| 20260905223500 | 37 | 88 | 1.6 | 12.9 | 0.00 | 0.00 | 0.00 | 43 | 1012.2 |
| 20260905223408 | 37 | 95 | 4.8 | 12.9 | 0.00 | 0.00 | 0.00 | 43 | 1012.2 |
| 20260905223322 | 37 | 66 | 6.4 | 12.9 | 0.00 | 0.00 | 0.00 | 42 | 1012.2 |
| 20260905223156 | 37 | 70 | 6.4 | 11.3 | 0.00 | 0.00 | 0.00 | 43 | 1012.3 |
| 20260905223059 | 37 | 76 | 6.4 | 11.3 | 0.00 | 0.00 | 0.00 | 42 | 1012.3 |
| 20260905223026 | 37 | 53 | 4.8 | 11.3 | 0.00 | 0.00 | 0.00 | 42 | 1012.3 |
| 20260905222957 | 37 | 58 | 6.4 | 11.3 | 0.00 | 0.00 | 0.00 | 42 | 1012.3 |
| 20260905222901 | 37 | 75 | 4.8 | 9.7 | 0.00 | 0.00 | 0.00 | 42 | 1012.3 |
| 20260905222754 | 37 | 67 | 3.2 | 9.7 | 0.00 | 0.00 | 0.00 | 42 | 1012.3 |
| 20260905222653 | 37 | 127 | 4.8 | 9.7 | 0.00 | 0.00 | 0.00 | 41 | 1012.3 |
| 20260905222557 | 38 | 101 | 4.8 | 9.7 | 0.00 | 0.00 | 0.00 | 41 | 1012.3 |
| 20260905222452 | 38 | 80 | 3.2 | 9.7 | 0.00 | 0.00 | 0.00 | 41 | 1012.3 |
| 20260905222347 | 38 | 64 | 4.8 | 9.7 | 0.00 | 0.00 | 0.00 | 40 | 1012.3 |
| 20260905222311 | 38 | 77 | 4.8 | 9.7 | 0.00 | 0.00 | 0.00 | 40 | 1012.3 |
| 20260905222226 | 38 | 82 | 1.6 | 9.7 | 0.00 | 0.00 | 0.00 | 38 | 1012.4 |
| 20260905222108 | 38 | 61 | 1.6 | 8.0 | 0.00 | 0.00 | 0.00 | 35 | 1012.3 |
| 20260905221947 | 38 | 66 | 3.2 | 8.0 | 0.00 | 0.00 | 0.00 | 35 | 1012.3 |
| 20260905221901 | 38 | 34 | 1.6 | 8.0 | 0.00 | 0.00 | 0.00 | 35 | 1012.4 |
| 20260905221806 | 38 | 65 | 1.6 | 8.0 | 0.00 | 0.00 | 0.00 | 35 | 1012.3 |
| 20260905221732 | 38 | 79 | 3.2 | 8.0 | 0.00 | 0.00 | 0.00 | 35 | 1012.3 |
| 20260905221625 | 38 | 72 | 3.2 | 8.0 | 0.00 | 0.00 | 0.00 | 35 | 1012.3 |
| 20260905221510 | 38 | 87 | 1.6 | 8.0 | 0.00 | 0.00 | 0.00 | 34 | 1012.4 |
| 20260905221459 | 38 | 60 | 3.2 | 8.0 | 0.00 | 0.00 | 0.00 | 34 | 1012.4 |
| 20260905221403 | 38 | 79 | 1.6 | 8.0 | 0.00 | 0.00 | 0.00 | 35 | 1012.4 |
| 20260905221257 | 38 | 130 | 1.6 | 9.7 | 0.00 | 0.00 | 0.00 | 35 | 1012.3 |
| 20260905221156 | 38 | 120 | 0.0 | 9.7 | 0.00 | 0.00 | 0.00 | 35 | 1012.4 |
| 20260905221120 | 38 | 59 | 1.6 | 9.7 | 0.00 | 0.00 | 0.00 | 35 | 1012.3 |
| 20260905221024 | 38 | 122 | 0.0 | 9.7 | 0.00 | 0.00 | 0.00 | 36 | 1012.4 |
| 20260905220927 | 38 | 62 | 0.0 | 9.7 | 0.00 | 0.00 | 0.00 | 36 | 1012.4 |
| 20260905220801 | 38 | 139 | 1.6 | 9.7 | 0.00 | 0.00 | 0.00 | 36 | 1012.3 |
| 20260905220655 | 38 | 122 | 1.6 | 9.7 | 0.00 | 0.00 | 0.00 | 35 | 1012.4 |
| 20260905220601 | 38 | 124 | 3.2 | 9.7 | 0.00 | 0.00 | 0.00 | 36 | 1012.4 |
| 20260905220455 | 38 | 65 | 3.2 | 9.7 | 0.00 | 0.00 | 0.00 | 35 | 1012.4 |
| 20260905220422 | 38 | 74 | 0.0 | 4.8 | 0.00 | 0.00 | 0.00 | 35 | 1012.4 |
| 20260905220256 | 38 | 72 | 1.6 | 4.8 | 0.00 | 0.00 | 0.00 | 35 | 1012.4 |
| 20260905220221 | 38 | 113 | 1.6 | 4.8 | 0.00 | 0.00 | 0.00 | 35 | 1012.5 |
| 20260905220140 | 38 | 244 | 0.0 | 4.8 | 0.00 | 0.00 | 0.00 | 35 | 1012.5 |
| 20260905220105 | 38 | 231 | 1.6 | 4.8 | 0.00 | 0.00 | 0.00 | 36 | 1012.5 |
| 20260905220014 | 38 | 253 | 1.6 | 4.8 | 0.00 | 0.00 | 0.00 | 35 | 1012.5 |
| 20260905215907 | 38 | 231 | 1.6 | 4.8 | 0.00 | 0.00 | 0.00 | 35 | 1012.5 |
| 20260905215831 | 38 | 301 | 0.0 | 4.8 | 0.00 | 0.00 | 0.00 | 35 | 1012.5 |
| 20260905215725 | 38 | 96 | 0.0 | 4.8 | 0.00 | 0.00 | 0.00 | 35 | 1012.6 |
| 20260905215608 | 38 | 103 | 1.6 | 6.4 | 0.00 | 0.00 | 0.00 | 35 | 1012.6 |
| 20260905215446 | 38 | 103 | 1.6 | 6.4 | 0.00 | 0.00 | 0.00 | 35 | 1012.6 |
| 20260905215410 | 38 | 119 | 1.6 | 6.4 | 0.00 | 0.00 | 0.00 | 35 | 1012.6 |
| 20260905215306 | 38 | 128 | 1.6 | 8.0 | 0.00 | 0.00 | 0.00 | 35 | 1012.7 |
| 20260905215209 | 38 | 122 | 1.6 | 11.3 | 0.00 | 0.00 | 0.00 | 35 | 1012.7 |
| 20260905215123 | 38 | 120 | 1.6 | 11.3 | 0.00 | 0.00 | 0.00 | 35 | 1012.7 |
| 20260905215006 | 38 | 73 | 0.0 | 11.3 | 0.00 | 0.00 | 0.00 | 35 | 1012.7 |
| 20260905214900 | 38 | 64 | 1.6 | 11.3 | 0.00 | 0.00 | 0.00 | 35 | 1012.7 |
| 20260905214804 | 38 | 27 | 3.2 | 11.3 | 0.00 | 0.00 | 0.00 | 34 | 1012.7 |
| 20260905214704 | 38 | 44 | 4.8 | 11.3 | 0.00 | 0.00 | 0.00 | 34 | 1012.7 |
| 20260905214611 | 38 | 57 | 4.8 | 11.3 | 0.00 | 0.00 | 0.00 | 34 | 1012.7 |
| 20260905214558 | 39 | 56 | 6.4 | 11.3 | 0.00 | 0.00 | 0.00 | 34 | 1012.7 |
| 20260905214502 | 39 | 62 | 6.4 | 11.3 | 0.00 | 0.00 | 0.00 | 33 | 1012.7 |
| 20260905214356 | 39 | 61 | 1.6 | 11.3 | 0.00 | 0.00 | 0.00 | 34 | 1012.7 |
| 20260905214251 | 39 | 328 | 0.0 | 9.7 | 0.00 | 0.00 | 0.00 | 34 | 1012.7 |
| 20260905214155 | 39 | 299 | 0.0 | 9.7 | 0.00 | 0.00 | 0.00 | 35 | 1012.7 |
| 20260905214051 | 38 | 299 | 0.0 | 9.7 | 0.00 | 0.00 | 0.00 | 35 | 1012.7 |
| 20260905213949 | 38 | 299 | 0.0 | 9.7 | 0.00 | 0.00 | 0.00 | 35 | 1012.7 |
| 20260905213853 | 38 | 299 | 0.0 | 9.7 | 0.00 | 0.00 | 0.00 | 34 | 1012.7 |
| 20260905213748 | 38 | 23 | 1.6 | 9.7 | 0.00 | 0.00 | 0.00 | 35 | 1012.7 |
| 20260905213712 | 38 | 56 | 3.2 | 9.7 | 0.00 | 0.00 | 0.00 | 34 | 1012.8 |
| 20260905213608 | 38 | 30 | 3.2 | 9.7 | 0.00 | 0.00 | 0.00 | 36 | 1012.7 |
| 20260905213510 | 38 | 35 | 0.0 | 8.0 | 0.00 | 0.00 | 0.00 | 36 | 1012.8 |
| 20260905213404 | 38 | 116 | 0.0 | 8.0 | 0.00 | 0.00 | 0.00 | 35 | 1012.7 |
| 20260905213309 | 38 | 117 | 1.6 | 8.0 | 0.00 | 0.00 | 0.00 | 36 | 1012.7 |
| 20260905213207 | 38 | 71 | 1.6 | 8.0 | 0.00 | 0.00 | 0.00 | 35 | 1012.8 |
| 20260905213110 | 38 | 80 | 1.6 | 8.0 | 0.00 | 0.00 | 0.00 | 36 | 1012.8 |
| 20260905213042 | 38 | 60 | 1.6 | 8.0 | 0.00 | 0.00 | 0.00 | 36 | 1012.8 |
| 20260905212948 | 38 | 29 | 3.2 | 8.0 | 0.00 | 0.00 | 0.00 | 36 | 1012.8 |
| 20260905212901 | 38 | 68 | 4.8 | 8.0 | 0.00 | 0.00 | 0.00 | 35 | 1012.8 |
| 20260905212805 | 38 | 27 | 3.2 | 8.0 | 0.00 | 0.00 | 0.00 | 35 | 1012.8 |
| 20260905212700 | 38 | 73 | 4.8 | 8.0 | 0.00 | 0.00 | 0.00 | 35 | 1012.8 |
| 20260905212624 | 39 | 105 | 4.8 | 8.0 | 0.00 | 0.00 | 0.00 | 35 | 1012.8 |
| 20260905212502 | 39 | 148 | 1.6 | 8.0 | 0.00 | 0.00 | 0.00 | 35 | 1012.9 |
| 20260905212357 | 39 | 75 | 1.6 | 8.0 | 0.00 | 0.00 | 0.00 | 36 | 1012.9 |
| 20260905212301 | 38 | 147 | 0.0 | 8.0 | 0.00 | 0.00 | 0.00 | 35 | 1012.9 |
| 20260905212156 | 38 | 117 | 1.6 | 8.0 | 0.00 | 0.00 | 0.00 | 35 | 1012.9 |
| 20260905212051 | 38 | 48 | 1.6 | 8.0 | 0.00 | 0.00 | 0.00 | 35 | 1012.9 |
| 20260905211955 | 39 | 351 | 3.2 | 8.0 | 0.00 | 0.00 | 0.00 | 35 | 1012.9 |
| 20260905211850 | 39 | 70 | 1.6 | 8.0 | 0.00 | 0.00 | 0.00 | 34 | 1012.9 |
| 20260905211749 | 39 | 115 | 0.0 | 4.8 | 0.00 | 0.00 | 0.00 | 35 | 1012.9 |
| 20260905211653 | 39 | 53 | 0.0 | 4.8 | 0.00 | 0.00 | 0.00 | 35 | 1012.9 |
| 20260905211632 | 38 | 51 | 0.0 | 4.8 | 0.00 | 0.00 | 0.00 | 35 | 1012.9 |
| 20260905211548 | 39 | 20 | 0.0 | 6.4 | 0.00 | 0.00 | 0.00 | 35 | 1012.9 |
| 20260905211512 | 39 | 354 | 0.0 | 6.4 | 0.00 | 0.00 | 0.00 | 35 | 1012.9 |
| 20260905211347 | 39 | 24 | 0.0 | 9.7 | 0.00 | 0.00 | 0.00 | 35 | 1012.9 |
| 20260905211302 | 39 | 62 | 0.0 | 9.7 | 0.00 | 0.00 | 0.00 | 35 | 1013.0 |
| 20260905211206 | 39 | 67 | 0.0 | 9.7 | 0.00 | 0.00 | 0.00 | 35 | 1012.9 |
| 20260905211045 | 39 | 64 | 0.0 | 9.7 | 0.00 | 0.00 | 0.00 | 35 | 1013.1 |
| 20260905211000 | 39 | 9 | 0.0 | 9.7 | 0.00 | 0.00 | 0.00 | 34 | 1013.1 |
| 20260905210904 | 39 | 50 | 1.6 | 9.7 | 0.00 | 0.00 | 0.00 | 34 | 1013.1 |
| 20260905210759 | 39 | 62 | 3.2 | 9.7 | 0.00 | 0.00 | 0.00 | 34 | 1013.0 |
| 20260905210654 | 40 | 29 | 3.2 | 9.7 | 0.00 | 0.00 | 0.00 | 34 | 1013.0 |
| 20260905210549 | 40 | 343 | 3.2 | 9.7 | 0.00 | 0.00 | 0.00 | 34 | 1013.1 |
| 20260905210457 | 40 | 88 | 1.6 | 4.8 | 0.00 | 0.00 | 0.00 | 34 | 1013.1 |
| 20260905210352 | 39 | 118 | 0.0 | 8.0 | 0.00 | 0.00 | 0.00 | 35 | 1013.0 |
| 20260905210247 | 39 | 141 | 0.0 | 8.0 | 0.00 | 0.00 | 0.00 | 35 | 1013.1 |
| 20260905210151 | 39 | 102 | 0.0 | 8.0 | 0.00 | 0.00 | 0.00 | 35 | 1013.0 |
| 20260905210126 | 38 | 110 | 0.0 | 8.0 | 0.00 | 0.00 | 0.00 | 35 | 1013.0 |
| 20260905210048 | 38 | 110 | 0.0 | 8.0 | 0.00 | 0.00 | 0.00 | 35 | 1013.1 |
| 20260905210005 | 38 | 110 | 0.0 | 8.0 | 0.00 | 0.00 | 0.00 | 35 | 1013.1 |
| 20260905205858 | 38 | 111 | 0.0 | 8.0 | 0.00 | 0.00 | 0.00 | 35 | 1013.0 |
| 20260905205801 | 38 | 68 | 0.0 | 8.0 | 0.00 | 0.00 | 0.00 | 34 | 1013.1 |
| 20260905205700 | 38 | 349 | 3.2 | 8.0 | 0.00 | 0.00 | 0.00 | 35 | 1013.1 |
| 20260905205604 | 38 | 314 | 3.2 | 8.0 | 0.00 | 0.00 | 0.00 | 34 | 1013.1 |
| 20260905205459 | 39 | 292 | 3.2 | 8.0 | 0.00 | 0.00 | 0.00 | 34 | 1013.2 |
| 20260905205354 | 39 | 332 | 1.6 | 4.8 | 0.00 | 0.00 | 0.00 | 34 | 1013.2 |
| 20260905205317 | 38 | 255 | 0.0 | 8.0 | 0.00 | 0.00 | 0.00 | 37 | 1013.1 |
| 20260905205151 | 38 | 91 | 0.0 | 8.0 | 0.00 | 0.00 | 0.00 | 36 | 1013.1 |
| 20260905205055 | 38 | 96 | 0.0 | 8.0 | 0.00 | 0.00 | 0.00 | 36 | 1013.1 |
| 20260905205014 | 38 | 67 | 0.0 | 8.0 | 0.00 | 0.00 | 0.00 | 36 | 1013.1 |
| 20260905204857 | 38 | 81 | 0.0 | 8.0 | 0.00 | 0.00 | 0.00 | 35 | 1013.1 |
| 20260905204812 | 38 | 54 | 0.0 | 8.0 | 0.00 | 0.00 | 0.00 | 35 | 1013.1 |
| 20260905204655 | 38 | 330 | 0.0 | 8.0 | 0.00 | 0.00 | 0.00 | 35 | 1013.1 |
| 20260905204631 | 38 | 330 | 0.0 | 8.0 | 0.00 | 0.00 | 0.00 | 35 | 1013.1 |
| 20260905204550 | 38 | 354 | 1.6 | 8.0 | 0.00 | 0.00 | 0.00 | 35 | 1013.1 |
| 20260905204513 | 38 | 58 | 1.6 | 8.0 | 0.00 | 0.00 | 0.00 | 35 | 1013.2 |
| 20260905204349 | 38 | 56 | 1.6 | 6.4 | 0.00 | 0.00 | 0.00 | 35 | 1013.2 |
| 20260905204247 | 38 | 63 | 0.0 | 4.8 | 0.00 | 0.00 | 0.00 | 35 | 1013.2 |
| 20260905204212 | 38 | 76 | 0.0 | 4.8 | 0.00 | 0.00 | 0.00 | 35 | 1013.2 |
| 20260905204046 | 38 | 45 | 0.0 | 4.8 | 0.00 | 0.00 | 0.00 | 36 | 1013.3 |
| 20260905204010 | 38 | 46 | 1.6 | 4.8 | 0.00 | 0.00 | 0.00 | 36 | 1013.3 |
| 20260905203904 | 38 | 46 | 1.6 | 6.4 | 0.00 | 0.00 | 0.00 | 35 | 1013.3 |
| 20260905203829 | 38 | 340 | 1.6 | 6.4 | 0.00 | 0.00 | 0.00 | 36 | 1013.3 |
| 20260905203702 | 38 | 70 | 1.6 | 6.4 | 0.00 | 0.00 | 0.00 | 37 | 1013.3 |
| 20260905203558 | 38 | 126 | 1.6 | 6.4 | 0.00 | 0.00 | 0.00 | 37 | 1013.3 |
| 20260905203505 | 38 | 93 | 1.6 | 11.3 | 0.00 | 0.00 | 0.00 | 36 | 1013.4 |
| 20260905203401 | 38 | 106 | 0.0 | 11.3 | 0.00 | 0.00 | 0.00 | 36 | 1013.4 |
| 20260905203256 | 38 | 87 | 0.0 | 11.3 | 0.00 | 0.00 | 0.00 | 36 | 1013.4 |
| 20260905203200 | 38 | 92 | 1.6 | 11.3 | 0.00 | 0.00 | 0.00 | 36 | 1013.4 |
| 20260905203055 | 38 | 68 | 4.8 | 11.3 | 0.00 | 0.00 | 0.00 | 36 | 1013.4 |
| 20260905203018 | 38 | 79 | 3.2 | 11.3 | 0.00 | 0.00 | 0.00 | 36 | 1013.5 |
| 20260905202951 | 38 | 76 | 4.8 | 11.3 | 0.00 | 0.00 | 0.00 | 35 | 1013.5 |
| 20260905202913 | 38 | 62 | 4.8 | 11.3 | 0.00 | 0.00 | 0.00 | 35 | 1013.5 |
| 20260905202752 | 38 | 100 | 6.4 | 11.3 | 0.00 | 0.00 | 0.00 | 35 | 1013.5 |
| 20260905202647 | 38 | 115 | 4.8 | 11.3 | 0.00 | 0.00 | 0.00 | 35 | 1013.5 |
| 20260905202611 | 38 | 108 | 1.6 | 8.0 | 0.00 | 0.00 | 0.00 | 35 | 1013.5 |
| 20260905202446 | 38 | 107 | 0.0 | 3.2 | 0.00 | 0.00 | 0.00 | 36 | 1013.5 |
| 20260905202401 | 38 | 110 | 0.0 | 3.2 | 0.00 | 0.00 | 0.00 | 36 | 1013.5 |
| 20260905202306 | 38 | 111 | 0.0 | 4.8 | 0.00 | 0.00 | 0.00 | 36 | 1013.5 |
| 20260905202200 | 38 | 39 | 0.0 | 4.8 | 0.00 | 0.00 | 0.00 | 36 | 1013.5 |
| 20260905202110 | 38 | 53 | 0.0 | 4.8 | 0.00 | 0.00 | 0.00 | 37 | 1013.6 |
| 20260905202004 | 38 | 42 | 0.0 | 4.8 | 0.00 | 0.00 | 0.00 | 36 | 1013.7 |
| 20260905201859 | 38 | 42 | 0.0 | 4.8 | 0.00 | 0.00 | 0.00 | 36 | 1013.6 |
| 20260905201753 | 38 | 130 | 0.0 | 4.8 | 0.00 | 0.00 | 0.00 | 36 | 1013.7 |
| 20260905201718 | 38 | 111 | 0.0 | 4.8 | 0.00 | 0.00 | 0.00 | 37 | 1013.7 |
| 20260905201610 | 38 | 52 | 0.0 | 4.8 | 0.00 | 0.00 | 0.00 | 37 | 1013.7 |
| 20260905201551 | 38 | 7 | 1.6 | 4.8 | 0.00 | 0.00 | 0.00 | 37 | 1013.7 |
| 20260905201454 | 38 | 35 | 1.6 | 4.8 | 0.00 | 0.00 | 0.00 | 36 | 1013.7 |
| 20260905201354 | 38 | 55 | 1.6 | 4.8 | 0.00 | 0.00 | 0.00 | 36 | 1013.7 |
| 20260905201248 | 38 | 96 | 1.6 | 4.8 | 0.00 | 0.00 | 0.00 | 36 | 1013.7 |
| 20260905201152 | 38 | 70 | 1.6 | 4.8 | 0.00 | 0.00 | 0.00 | 37 | 1013.7 |
| 20260905201047 | 38 | 110 | 3.2 | 4.8 | 0.00 | 0.00 | 0.00 | 36 | 1013.7 |
| 20260905201011 | 38 | 90 | 1.6 | 4.8 | 0.00 | 0.00 | 0.00 | 36 | 1013.7 |
| 20260905200846 | 38 | 96 | 0.0 | 3.2 | 0.00 | 0.00 | 0.00 | 38 | 1013.7 |
| 20260905200745 | 38 | 96 | 0.0 | 3.2 | 0.00 | 0.00 | 0.00 | 37 | 1013.7 |
| 20260905200709 | 37 | 87 | 0.0 | 6.4 | 0.00 | 0.00 | 0.00 | 38 | 1013.8 |
| 20260905200603 | 37 | 124 | 0.0 | 6.4 | 0.00 | 0.00 | 0.00 | 40 | 1013.8 |
| 20260905200507 | 37 | 124 | 0.0 | 6.4 | 0.00 | 0.00 | 0.00 | 39 | 1013.8 |
| 20260905200401 | 37 | 124 | 0.0 | 6.4 | 0.00 | 0.00 | 0.00 | 39 | 1013.8 |
| 20260905200305 | 37 | 124 | 0.0 | 6.4 | 0.00 | 0.00 | 0.00 | 38 | 1013.8 |
| 20260905200200 | 37 | 124 | 0.0 | 6.4 | 0.00 | 0.00 | 0.00 | 38 | 1013.9 |
| 20260905200115 | 37 | 275 | 0.0 | 6.4 | 0.00 | 0.00 | 0.00 | 38 | 1013.9 |
| 20260905200044 | 37 | 275 | 0.0 | 6.4 | 0.00 | 0.00 | 0.00 | 38 | 1013.9 |
| 20260905200016 | 37 | 275 | 1.6 | 6.4 | 0.00 | 0.00 | 0.00 | 37 | 1013.9 |
| 20260905195901 | 37 | 283 | 3.2 | 6.4 | 0.00 | 0.00 | 0.00 | 38 | 1013.9 |
| 20260905195756 | 37 | 237 | 3.2 | 6.4 | 0.00 | 0.00 | 0.00 | 38 | 1014.0 |
| 20260905195651 | 37 | 231 | 1.6 | 4.8 | 0.00 | 0.00 | 0.00 | 38 | 1014.0 |
| 20260905195555 | 37 | 249 | 0.0 | 8.0 | 0.00 | 0.00 | 0.00 | 39 | 1014.0 |
| 20260905195510 | 37 | 252 | 0.0 | 8.0 | 0.00 | 0.00 | 0.00 | 39 | 1014.0 |
| 20260905195352 | 37 | 252 | 1.6 | 8.0 | 0.00 | 0.00 | 0.00 | 39 | 1014.0 |
| 20260905195247 | 37 | 252 | 3.2 | 8.0 | 0.00 | 0.00 | 0.00 | 38 | 1014.0 |
| 20260905195146 | 37 | 249 | 3.2 | 8.0 | 0.00 | 0.00 | 0.00 | 39 | 1014.0 |
| 20260905195050 | 37 | 290 | 3.2 | 8.0 | 0.00 | 0.00 | 0.00 | 39 | 1014.0 |
| 20260905195005 | 38 | 289 | 3.2 | 8.0 | 0.00 | 0.00 | 0.00 | 38 | 1013.9 |
| 20260905194928 | 38 | 248 | 3.2 | 8.0 | 0.00 | 0.00 | 0.00 | 37 | 1014.0 |
| 20260905194830 | 38 | 276 | 1.6 | 8.0 | 0.00 | 0.00 | 0.00 | 36 | 1014.0 |
| 20260905194704 | 38 | 197 | 0.0 | 6.4 | 0.00 | 0.00 | 0.00 | 36 | 1014.0 |
| 20260905194628 | 38 | 197 | 0.0 | 6.4 | 0.00 | 0.00 | 0.00 | 36 | 1014.0 |
| 20260905194549 | 38 | 204 | 0.0 | 6.4 | 0.00 | 0.00 | 0.00 | 36 | 1014.0 |
| 20260905194502 | 38 | 203 | 0.0 | 6.4 | 0.00 | 0.00 | 0.00 | 36 | 1014.0 |
| 20260905194401 | 38 | 204 | 0.0 | 6.4 | 0.00 | 0.00 | 0.00 | 36 | 1014.0 |
| 20260905194305 | 38 | 203 | 0.0 | 6.4 | 0.00 | 0.00 | 0.00 | 38 | 1014.1 |
| 20260905194200 | 38 | 210 | 0.0 | 6.4 | 0.00 | 0.00 | 0.00 | 36 | 1014.1 |
| 20260905194055 | 38 | 140 | 1.6 | 6.4 | 0.00 | 0.00 | 0.00 | 37 | 1014.0 |
| 20260905193950 | 38 | 139 | 3.2 | 6.4 | 0.00 | 0.00 | 0.00 | 36 | 1014.1 |
| 20260905193854 | 38 | 86 | 1.6 | 4.8 | 0.00 | 0.00 | 0.00 | 37 | 1014.1 |
| 20260905193749 | 38 | 96 | 0.0 | 6.4 | 0.00 | 0.00 | 0.00 | 38 | 1014.1 |
| 20260905193648 | 38 | 337 | 0.0 | 6.4 | 0.00 | 0.00 | 0.00 | 37 | 1014.1 |
| 20260905193552 | 38 | 336 | 0.0 | 6.4 | 0.00 | 0.00 | 0.00 | 37 | 1014.1 |
| 20260905193447 | 38 | 281 | 0.0 | 6.4 | 0.00 | 0.00 | 0.00 | 37 | 1014.1 |
| 20260905193411 | 38 | 283 | 0.0 | 6.4 | 0.00 | 0.00 | 0.00 | 37 | 1014.1 |
| 20260905193306 | 38 | 162 | 1.6 | 6.4 | 0.00 | 0.00 | 0.00 | 37 | 1014.1 |
| 20260905193229 | 38 | 162 | 3.2 | 6.4 | 0.00 | 0.00 | 0.00 | 36 | 1014.2 |
| 20260905193138 | 38 | 226 | 3.2 | 6.4 | 0.00 | 0.00 | 0.00 | 36 | 1014.2 |
| 20260905193123 | 39 | 286 | 3.2 | 6.4 | 0.00 | 0.00 | 0.00 | 37 | 1014.1 |
| 20260905193008 | 39 | 181 | 1.6 | 6.4 | 0.00 | 0.00 | 0.00 | 36 | 1014.2 |
| 20260905192845 | 38 | 63 | 0.0 | 4.8 | 0.00 | 0.00 | 0.00 | 37 | 1014.2 |
| 20260905192800 | 38 | 88 | 0.0 | 4.8 | 0.00 | 0.00 | 0.00 | 37 | 1014.2 |
| 20260905192704 | 38 | 89 | 1.6 | 4.8 | 0.00 | 0.00 | 0.00 | 36 | 1014.2 |
| 20260905192559 | 38 | 30 | 1.6 | 4.8 | 0.00 | 0.00 | 0.00 | 38 | 1014.1 |
| 20260905192454 | 38 | 15 | 0.0 | 4.8 | 0.00 | 0.00 | 0.00 | 38 | 1014.1 |
| 20260905192358 | 38 | 23 | 0.0 | 4.8 | 0.00 | 0.00 | 0.00 | 37 | 1014.2 |
| 20260905192257 | 38 | 89 | 1.6 | 4.8 | 0.00 | 0.00 | 0.00 | 37 | 1014.1 |
| 20260905192152 | 38 | 311 | 1.6 | 6.4 | 0.00 | 0.00 | 0.00 | 37 | 1014.1 |
| 20260905192057 | 37 | 330 | 0.0 | 6.4 | 0.00 | 0.00 | 0.00 | 37 | 1014.2 |
| 20260905191952 | 37 | 122 | 0.0 | 6.4 | 0.00 | 0.00 | 0.00 | 37 | 1014.2 |
| 20260905191847 | 37 | 127 | 0.0 | 6.4 | 0.00 | 0.00 | 0.00 | 37 | 1014.2 |
| 20260905191751 | 37 | 70 | 1.6 | 6.4 | 0.00 | 0.00 | 0.00 | 37 | 1014.2 |
| 20260905191646 | 37 | 75 | 1.6 | 6.4 | 0.00 | 0.00 | 0.00 | 37 | 1014.2 |
| 20260905191614 | 37 | 64 | 3.2 | 6.4 | 0.00 | 0.00 | 0.00 | 37 | 1014.2 |
| 20260905191528 | 37 | 60 | 3.2 | 6.4 | 0.00 | 0.00 | 0.00 | 38 | 1014.2 |
| 20260905191447 | 37 | 3 | 3.2 | 6.4 | 0.00 | 0.00 | 0.00 | 37 | 1014.2 |
| 20260905191351 | 37 | 50 | 4.8 | 6.4 | 0.00 | 0.00 | 0.00 | 38 | 1014.2 |
| 20260905191246 | 37 | 63 | 4.8 | 6.4 | 0.00 | 0.00 | 0.00 | 38 | 1014.2 |
| 20260905191210 | 37 | 58 | 3.2 | 6.4 | 0.00 | 0.00 | 0.00 | 37 | 1014.2 |
| 20260905191105 | 37 | 92 | 3.2 | 9.7 | 0.00 | 0.00 | 0.00 | 38 | 1014.3 |
| 20260905191000 | 37 | 111 | 3.2 | 9.7 | 0.00 | 0.00 | 0.00 | 37 | 1014.3 |
| 20260905190904 | 37 | 108 | 1.6 | 9.7 | 0.00 | 0.00 | 0.00 | 37 | 1014.3 |
| 20260905190803 | 37 | 115 | 3.2 | 9.7 | 0.00 | 0.00 | 0.00 | 37 | 1014.3 |
| 20260905190658 | 37 | 77 | 3.2 | 9.7 | 0.00 | 0.00 | 0.00 | 37 | 1014.3 |
| 20260905190602 | 38 | 101 | 3.2 | 11.3 | 0.00 | 0.00 | 0.00 | 36 | 1014.3 |
| 20260905190456 | 38 | 105 | 4.8 | 11.3 | 0.00 | 0.00 | 0.00 | 36 | 1014.4 |
| 20260905190352 | 38 | 122 | 4.8 | 11.3 | 0.00 | 0.00 | 0.00 | 36 | 1014.4 |
| 20260905190257 | 38 | 69 | 3.2 | 11.3 | 0.00 | 0.00 | 0.00 | 35 | 1014.4 |
| 20260905190211 | 38 | 153 | 1.6 | 11.3 | 0.00 | 0.00 | 0.00 | 35 | 1014.4 |
| 20260905190109 | 38 | 84 | 1.6 | 11.3 | 0.00 | 0.00 | 0.00 | 35 | 1014.4 |
| 20260905190028 | 38 | 148 | 1.6 | 11.3 | 0.00 | 0.00 | 0.00 | 35 | 1014.4 |
| 20260905190009 | 39 | 233 | 3.2 | 11.3 | 0.00 | 0.00 | 0.00 | 35 | 1014.4 |
| 20260905185850 | 39 | 221 | 3.2 | 11.3 | 0.00 | 0.00 | 0.00 | 36 | 1014.4 |
| 20260905185804 | 39 | 217 | 3.2 | 11.3 | 0.00 | 0.00 | 0.00 | 35 | 1014.5 |
| 20260905185727 | 39 | 187 | 1.6 | 6.4 | 0.00 | 0.00 | 0.00 | 35 | 1014.4 |
| 20260905185631 | 39 | 224 | 3.2 | 6.4 | 0.00 | 0.00 | 0.00 | 35 | 1014.5 |
| 20260905185505 | 38 | 245 | 1.6 | 6.4 | 0.00 | 0.00 | 0.00 | 36 | 1014.5 |
| 20260905185359 | 38 | 193 | 1.6 | 6.4 | 0.00 | 0.00 | 0.00 | 37 | 1014.5 |
| 20260905185308 | 38 | 176 | 1.6 | 6.4 | 0.00 | 0.00 | 0.00 | 36 | 1014.5 |
| 20260905185202 | 38 | 185 | 1.6 | 6.4 | 0.00 | 0.00 | 0.00 | 37 | 1014.5 |
| 20260905185057 | 38 | 310 | 1.6 | 6.4 | 0.00 | 0.00 | 0.00 | 37 | 1014.5 |
| 20260905185002 | 38 | 75 | 1.6 | 6.4 | 0.00 | 0.00 | 0.00 | 36 | 1014.5 |
| 20260905184856 | 38 | 212 | 1.6 | 6.4 | 0.00 | 0.00 | 0.00 | 38 | 1014.5 |
| 20260905184752 | 38 | 290 | 3.2 | 6.4 | 0.00 | 0.00 | 0.00 | 37 | 1014.6 |
| 20260905184656 | 38 | 199 | 3.2 | 8.0 | 0.00 | 0.00 | 0.00 | 38 | 1014.6 |
| 20260905184554 | 38 | 232 | 0.0 | 8.0 | 0.00 | 0.00 | 0.00 | 37 | 1014.6 |
| 20260905184510 | 37 | 126 | 0.0 | 8.0 | 0.00 | 0.00 | 0.00 | 39 | 1014.6 |
| 20260905184449 | 37 | 97 | 0.0 | 8.0 | 0.00 | 0.00 | 0.00 | 38 | 1014.6 |
| 20260905184414 | 37 | 181 | 1.6 | 8.0 | 0.00 | 0.00 | 0.00 | 39 | 1014.6 |
| 20260905184247 | 37 | 328 | 3.2 | 8.0 | 0.00 | 0.00 | 0.00 | 38 | 1014.6 |
| 20260905184151 | 37 | 286 | 1.6 | 8.0 | 0.00 | 0.00 | 0.00 | 39 | 1014.6 |
| 20260905184046 | 37 | 293 | 1.6 | 8.0 | 0.00 | 0.00 | 0.00 | 38 | 1014.6 |
| 20260905184010 | 37 | 293 | 3.2 | 8.0 | 0.00 | 0.00 | 0.00 | 38 | 1014.7 |
| 20260905183849 | 37 | 322 | 3.2 | 8.0 | 0.00 | 0.00 | 0.00 | 38 | 1014.6 |
| 20260905183804 | 37 | 257 | 0.0 | 6.4 | 0.00 | 0.00 | 0.00 | 38 | 1014.6 |
| 20260905183708 | 37 | 299 | 1.6 | 6.4 | 0.00 | 0.00 | 0.00 | 38 | 1014.7 |
| 20260905183603 | 37 | 344 | 3.2 | 6.4 | 0.00 | 0.00 | 0.00 | 38 | 1014.7 |
| 20260905183458 | 37 | 350 | 1.6 | 6.4 | 0.00 | 0.00 | 0.00 | 38 | 1014.7 |
| 20260905183402 | 37 | 274 | 0.0 | 6.4 | 0.00 | 0.00 | 0.00 | 39 | 1014.7 |
| 20260905183257 | 37 | 266 | 0.0 | 6.4 | 0.00 | 0.00 | 0.00 | 40 | 1014.7 |
| 20260905183156 | 37 | 275 | 1.6 | 6.4 | 0.00 | 0.00 | 0.00 | 39 | 1014.7 |
| 20260905183100 | 37 | 319 | 1.6 | 6.4 | 0.00 | 0.00 | 0.00 | 39 | 1014.7 |
| 20260905183041 | 37 | 307 | 0.0 | 6.4 | 0.00 | 0.00 | 0.00 | 39 | 1014.7 |
| 20260905182957 | 37 | 244 | 0.0 | 6.4 | 0.00 | 0.00 | 0.00 | 40 | 1014.8 |
| 20260905182850 | 37 | 200 | 1.6 | 6.4 | 0.00 | 0.00 | 0.00 | 40 | 1014.8 |
| 20260905182754 | 37 | 266 | 3.2 | 6.4 | 0.00 | 0.00 | 0.00 | 40 | 1014.8 |
| 20260905182718 | 37 | 258 | 4.8 | 6.4 | 0.00 | 0.00 | 0.00 | 40 | 1014.8 |
| 20260905182551 | 37 | 287 | 1.6 | 6.4 | 0.00 | 0.00 | 0.00 | 41 | 1014.8 |
| 20260905182450 | 37 | 288 | 0.0 | 6.4 | 0.00 | 0.00 | 0.00 | 41 | 1014.8 |
| 20260905182354 | 37 | 10 | 3.2 | 6.4 | 0.00 | 0.00 | 0.00 | 42 | 1014.8 |
| 20260905182249 | 36 | 214 | 3.2 | 6.4 | 0.00 | 0.00 | 0.00 | 41 | 1014.8 |
| 20260905182214 | 36 | 274 | 3.2 | 6.4 | 0.00 | 0.00 | 0.00 | 41 | 1014.9 |
| 20260905182108 | 36 | 287 | 1.6 | 8.0 | 0.00 | 0.00 | 0.00 | 41 | 1014.9 |
| 20260905182003 | 36 | 310 | 3.2 | 8.0 | 0.00 | 0.00 | 0.00 | 41 | 1014.9 |
| 20260905181908 | 36 | 311 | 4.8 | 8.0 | 0.00 | 0.00 | 0.00 | 41 | 1015.0 |
| 20260905181806 | 36 | 292 | 1.6 | 8.0 | 0.00 | 0.00 | 0.00 | 41 | 1014.9 |
| 20260905181730 | 36 | 217 | 1.6 | 8.0 | 0.00 | 0.00 | 0.00 | 42 | 1014.9 |
| 20260905181650 | 36 | 211 | 0.0 | 8.0 | 0.00 | 0.00 | 0.00 | 40 | 1014.9 |
| 20260905181604 | 37 | 154 | 3.2 | 8.0 | 0.00 | 0.00 | 0.00 | 40 | 1014.9 |
| 20260905181530 | 37 | 307 | 3.2 | 8.0 | 0.00 | 0.00 | 0.00 | 39 | 1015.0 |
| 20260905181403 | 37 | 312 | 4.8 | 8.0 | 0.00 | 0.00 | 0.00 | 39 | 1015.0 |
| 20260905181258 | 37 | 328 | 4.8 | 8.0 | 0.00 | 0.00 | 0.00 | 39 | 1015.0 |
| 20260905181153 | 37 | 300 | 3.2 | 8.0 | 0.00 | 0.00 | 0.00 | 40 | 1015.0 |
| 20260905181057 | 37 | 297 | 0.0 | 6.4 | 0.00 | 0.00 | 0.00 | 39 | 1015.0 |
| 20260905180956 | 37 | 222 | 3.2 | 6.4 | 0.00 | 0.00 | 0.00 | 39 | 1015.0 |
| 20260905180850 | 37 | 215 | 3.2 | 8.0 | 0.00 | 0.00 | 0.00 | 40 | 1015.1 |
| 20260905180754 | 37 | 212 | 1.6 | 8.0 | 0.00 | 0.00 | 0.00 | 40 | 1015.1 |
| 20260905180720 | 37 | 233 | 0.0 | 8.0 | 0.00 | 0.00 | 0.00 | 39 | 1015.1 |
| 20260905180552 | 37 | 231 | 0.0 | 8.0 | 0.00 | 0.00 | 0.00 | 39 | 1015.1 |
| 20260905180447 | 37 | 245 | 0.0 | 8.0 | 0.00 | 0.00 | 0.00 | 40 | 1015.1 |
| 20260905180411 | 37 | 250 | 0.0 | 8.0 | 0.00 | 0.00 | 0.00 | 40 | 1015.1 |
| 20260905180250 | 37 | 255 | 3.2 | 8.0 | 0.00 | 0.00 | 0.00 | 39 | 1015.2 |
| 20260905180215 | 37 | 252 | 3.2 | 8.0 | 0.00 | 0.00 | 0.00 | 39 | 1015.2 |
| 20260905180119 | 37 | 175 | 3.2 | 8.0 | 0.00 | 0.00 | 0.00 | 40 | 1015.2 |
| 20260905180019 | 37 | 269 | 0.0 | 6.4 | 0.00 | 0.00 | 0.00 | 40 | 1015.2 |
| 20260905175959 | 37 | 214 | 1.6 | 6.4 | 0.00 | 0.00 | 0.00 | 40 | 1015.2 |
| 20260905175901 | 37 | 326 | 1.6 | 6.4 | 0.00 | 0.00 | 0.00 | 39 | 1015.2 |
| 20260905175756 | 37 | 236 | 3.2 | 6.4 | 0.00 | 0.00 | 0.00 | 41 | 1015.2 |
| 20260905175651 | 37 | 147 | 3.2 | 6.4 | 0.00 | 0.00 | 0.00 | 40 | 1015.2 |
| 20260905175559 | 37 | 123 | 3.2 | 6.4 | 0.00 | 0.00 | 0.00 | 39 | 1015.2 |
| 20260905175454 | 37 | 108 | 4.8 | 6.4 | 0.00 | 0.00 | 0.00 | 39 | 1015.2 |
| 20260905175349 | 37 | 72 | 3.2 | 6.4 | 0.00 | 0.00 | 0.00 | 40 | 1015.2 |
| 20260905175253 | 37 | 57 | 3.2 | 6.4 | 0.00 | 0.00 | 0.00 | 40 | 1015.2 |
| 20260905175208 | 37 | 75 | 3.2 | 6.4 | 0.00 | 0.00 | 0.00 | 40 | 1015.2 |